Wetterdaten: Sonntag, 10.12.2017
Datum Zeit Temp. A. Pool Temp. Feuchte A. Luftdruck Regen Wind Richtung Richtung Sonnenschein ET UV Solar Taupunkt Windchill Windben Empfang
10.12.2017 00:00 -1,1 C 3,9 C 72 % 1015,2 hPa 0,0 l/m 13,0 km/h (3 Bft) W-SW 248 0 min 0,000 mm 0,0 UV-I 0 W/m -5,5 C -7,0 C 19,3 km/h (3 Bft) 100,00 %
10.12.2017 00:02 -1,1 C 3,9 C 72 % 1015,3 hPa 0,0 l/m 14,6 km/h (3 Bft) SW 231 0 min 0,000 mm 0,0 UV-I 0 W/m -5,5 C -8,1 C 20,9 km/h (4 Bft) 100,00 %
10.12.2017 00:04 -1,1 C 3,9 C 72 % 1015,2 hPa 0,0 l/m 15,4 km/h (3 Bft) W-SW 245 0 min 0,000 mm 0,0 UV-I 0 W/m -5,5 C -8,6 C 24,1 km/h (4 Bft) 100,00 %
10.12.2017 00:06 -1,2 C 3,9 C 73 % 1015,2 hPa 0,0 l/m 13,8 km/h (3 Bft) W-SW 240 0 min 0,000 mm 0,0 UV-I 0 W/m -5,4 C -7,7 C 20,9 km/h (4 Bft) 100,00 %
10.12.2017 00:08 -1,2 C 3,9 C 73 % 1015,2 hPa 0,0 l/m 18,6 km/h (3 Bft) W-SW 242 0 min 0,000 mm 0,0 UV-I 0 W/m -5,4 C -10,5 C 25,7 km/h (4 Bft) 98,00 %
10.12.2017 00:10 -1,2 C 3,9 C 73 % 1015,1 hPa 0,0 l/m 19,7 km/h (3 Bft) W-SW 240 0 min 0,000 mm 0,0 UV-I 0 W/m -5,4 C -11,0 C 25,7 km/h (4 Bft) 100,00 %
10.12.2017 00:12 -1,2 C 3,9 C 73 % 1015,1 hPa 0,0 l/m 16,6 km/h (3 Bft) W 261 0 min 0,000 mm 0,0 UV-I 0 W/m -5,4 C -9,4 C 25,7 km/h (4 Bft) 100,00 %
10.12.2017 00:14 -1,2 C 3,9 C 73 % 1015,1 hPa 0,0 l/m 16,6 km/h (3 Bft) W-SW 252 0 min 0,000 mm 0,0 UV-I 0 W/m -5,4 C -9,4 C 24,1 km/h (4 Bft) 100,00 %
10.12.2017 00:16 -1,2 C 3,9 C 74 % 1015,1 hPa 0,0 l/m 18,2 km/h (3 Bft) W-SW 243 0 min 0,000 mm 0,0 UV-I 0 W/m -5,2 C -10,3 C 25,7 km/h (4 Bft) 100,00 %
10.12.2017 00:18 -1,2 C 3,9 C 73 % 1015,1 hPa 0,0 l/m 18,5 km/h (3 Bft) SW 222 0 min 0,000 mm 0,0 UV-I 0 W/m -5,4 C -10,4 C 27,4 km/h (4 Bft) 97,14 %
10.12.2017 00:20 -1,2 C 3,9 C 73 % 1015,1 hPa 0,0 l/m 16,9 km/h (3 Bft) W-SW 240 0 min 0,000 mm 0,0 UV-I 0 W/m -5,4 C -9,6 C 24,1 km/h (4 Bft) 100,00 %
10.12.2017 00:22 -1,2 C 3,9 C 73 % 1015,1 hPa 0,0 l/m 17,6 km/h (3 Bft) SW 217 0 min 0,000 mm 0,0 UV-I 0 W/m -5,4 C -10,0 C 29,0 km/h (5 Bft) 100,00 %
10.12.2017 00:24 -1,2 C 3,9 C 74 % 1015,0 hPa 0,0 l/m 15,1 km/h (3 Bft) SW 218 0 min 0,000 mm 0,0 UV-I 0 W/m -5,2 C -8,5 C 24,1 km/h (4 Bft) 100,00 %
10.12.2017 00:26 -1,3 C 3,9 C 74 % 1015,1 hPa 0,0 l/m 20,3 km/h (4 Bft) W-SW 246 0 min 0,000 mm 0,0 UV-I 0 W/m -5,3 C -11,5 C 29,0 km/h (5 Bft) 100,00 %
10.12.2017 00:28 -1,3 C 3,9 C 74 % 1015,0 hPa 0,0 l/m 16,0 km/h (3 Bft) SW 231 0 min 0,000 mm 0,0 UV-I 0 W/m -5,3 C -9,2 C 24,1 km/h (4 Bft) 96,15 %
10.12.2017 00:30 -1,3 C 3,9 C 74 % 1015,1 hPa 0,0 l/m 14,0 km/h (3 Bft) S-SW 210 0 min 0,000 mm 0,0 UV-I 0 W/m -5,3 C -7,9 C 20,9 km/h (4 Bft) 100,00 %
10.12.2017 00:32 -1,3 C 3,9 C 75 % 1015,0 hPa 0,0 l/m 16,7 km/h (3 Bft) SW 228 0 min 0,000 mm 0,0 UV-I 0 W/m -5,1 C -9,6 C 24,1 km/h (4 Bft) 97,56 %
10.12.2017 00:34 -1,3 C 3,9 C 75 % 1015,0 hPa 0,0 l/m 15,4 km/h (3 Bft) SW 225 0 min 0,000 mm 0,0 UV-I 0 W/m -5,1 C -8,8 C 24,1 km/h (4 Bft) 100,00 %
10.12.2017 00:36 -1,3 C 3,9 C 75 % 1015,0 hPa 0,0 l/m 15,1 km/h (3 Bft) SW 232 0 min 0,000 mm 0,0 UV-I 0 W/m -5,1 C -8,6 C 25,7 km/h (4 Bft) 97,87 %
10.12.2017 00:38 -1,3 C 3,9 C 74 % 1015,0 hPa 0,0 l/m 14,0 km/h (3 Bft) W-SW 245 0 min 0,000 mm 0,0 UV-I 0 W/m -5,3 C -7,9 C 24,1 km/h (4 Bft) 100,00 %
10.12.2017 00:40 -1,3 C 3,9 C 74 % 1014,9 hPa 0,0 l/m 14,3 km/h (3 Bft) W-SW 240 0 min 0,000 mm 0,0 UV-I 0 W/m -5,3 C -8,1 C 20,9 km/h (4 Bft) 100,00 %
10.12.2017 00:42 -1,3 C 3,9 C 74 % 1015,0 hPa 0,0 l/m 12,4 km/h (3 Bft) S-SW 213 0 min 0,000 mm 0,0 UV-I 0 W/m -5,3 C -6,8 C 19,3 km/h (3 Bft) 97,73 %
10.12.2017 00:44 -1,3 C 3,9 C 75 % 1014,9 hPa 0,0 l/m 12,5 km/h (3 Bft) S-SW 198 0 min 0,000 mm 0,0 UV-I 0 W/m -5,1 C -6,9 C 20,9 km/h (4 Bft) 98,00 %
10.12.2017 00:46 -1,4 C 3,9 C 75 % 1014,9 hPa 0,0 l/m 13,5 km/h (3 Bft) SW 218 0 min 0,000 mm 0,0 UV-I 0 W/m -5,2 C -7,7 C 19,3 km/h (3 Bft) 97,50 %
10.12.2017 00:48 -1,4 C 3,9 C 75 % 1014,9 hPa 0,0 l/m 12,8 km/h (3 Bft) S-SW 194 0 min 0,000 mm 0,0 UV-I 0 W/m -5,2 C -7,2 C 17,7 km/h (3 Bft) 98,18 %
10.12.2017 00:50 -1,5 C 3,9 C 75 % 1014,9 hPa 0,0 l/m 13,4 km/h (3 Bft) S-SW 205 0 min 0,000 mm 0,0 UV-I 0 W/m -5,3 C -7,7 C 17,7 km/h (3 Bft) 97,62 %
10.12.2017 00:52 -1,5 C 3,9 C 75 % 1014,9 hPa 0,0 l/m 12,7 km/h (3 Bft) SW 222 0 min 0,000 mm 0,0 UV-I 0 W/m -5,3 C -7,2 C 19,3 km/h (3 Bft) 95,74 %
10.12.2017 00:54 -1,6 C 3,9 C 75 % 1014,8 hPa 0,0 l/m 13,4 km/h (3 Bft) S-SW 210 0 min 0,000 mm 0,0 UV-I 0 W/m -5,4 C -7,9 C 22,5 km/h (4 Bft) 95,74 %
10.12.2017 00:56 -1,6 C 3,9 C 75 % 1014,8 hPa 0,0 l/m 13,0 km/h (3 Bft) S-SW 205 0 min 0,000 mm 0,0 UV-I 0 W/m -5,4 C -7,6 C 19,3 km/h (3 Bft) 97,73 %
10.12.2017 00:58 -1,6 C 3,9 C 75 % 1014,8 hPa 0,0 l/m 14,8 km/h (3 Bft) S-SW 206 0 min 0,000 mm 0,0 UV-I 0 W/m -5,4 C -8,8 C 20,9 km/h (4 Bft) 98,21 %
10.12.2017 01:00 -1,6 C 3,9 C 75 % 1014,8 hPa 0,0 l/m 15,9 km/h (3 Bft) W-SW 240 0 min 0,025 mm 0,0 UV-I 0 W/m -5,4 C -9,5 C 24,1 km/h (4 Bft) 97,73 %
10.12.2017 01:02 -1,6 C 3,9 C 75 % 1014,8 hPa 0,0 l/m 17,0 km/h (3 Bft) W-SW 240 0 min 0,000 mm 0,0 UV-I 0 W/m -5,4 C -10,1 C 20,9 km/h (4 Bft) 97,37 %
10.12.2017 01:04 -1,7 C 3,9 C 76 % 1014,7 hPa 0,0 l/m 13,2 km/h (3 Bft) SW 236 0 min 0,000 mm 0,0 UV-I 0 W/m -5,4 C -7,8 C 17,7 km/h (3 Bft) 96,43 %
10.12.2017 01:06 -1,7 C 3,9 C 75 % 1014,7 hPa 0,0 l/m 13,6 km/h (3 Bft) W-SW 237 0 min 0,000 mm 0,0 UV-I 0 W/m -5,5 C -8,1 C 19,3 km/h (3 Bft) 95,74 %
10.12.2017 01:08 -1,7 C 3,9 C 75 % 1014,7 hPa 0,0 l/m 10,7 km/h (2 Bft) SW 226 0 min 0,000 mm 0,0 UV-I 0 W/m -5,5 C -5,9 C 16,1 km/h (3 Bft) 97,56 %
10.12.2017 01:10 -1,7 C 3,9 C 75 % 1014,8 hPa 0,0 l/m 14,4 km/h (3 Bft) W-SW 240 0 min 0,000 mm 0,0 UV-I 0 W/m -5,5 C -8,7 C 20,9 km/h (4 Bft) 96,30 %
10.12.2017 01:12 -1,7 C 3,9 C 75 % 1014,7 hPa 0,0 l/m 14,9 km/h (3 Bft) W-SW 246 0 min 0,000 mm 0,0 UV-I 0 W/m -5,5 C -9,0 C 20,9 km/h (4 Bft) 97,37 %
10.12.2017 01:14 -1,7 C 3,9 C 75 % 1014,7 hPa 0,0 l/m 11,7 km/h (2 Bft) W-SW 245 0 min 0,000 mm 0,0 UV-I 0 W/m -5,5 C -6,7 C 17,7 km/h (3 Bft) 97,78 %
10.12.2017 01:16 -1,7 C 3,9 C 75 % 1014,7 hPa 0,0 l/m 14,3 km/h (3 Bft) SW 221 0 min 0,000 mm 0,0 UV-I 0 W/m -5,5 C -8,6 C 22,5 km/h (4 Bft) 95,24 %
10.12.2017 01:18 -1,8 C 3,9 C 75 % 1014,7 hPa 0,0 l/m 13,8 km/h (3 Bft) S-SW 202 0 min 0,000 mm 0,0 UV-I 0 W/m -5,6 C -8,4 C 24,1 km/h (4 Bft) 92,68 %
10.12.2017 01:20 -1,8 C 3,9 C 76 % 1014,7 hPa 0,0 l/m 15,1 km/h (3 Bft) W-SW 245 0 min 0,000 mm 0,0 UV-I 0 W/m -5,5 C -9,2 C 22,5 km/h (4 Bft) 98,21 %
10.12.2017 01:22 -1,8 C 3,9 C 76 % 1014,7 hPa 0,0 l/m 15,0 km/h (3 Bft) W-SW 244 0 min 0,000 mm 0,0 UV-I 0 W/m -5,5 C -9,2 C 19,3 km/h (3 Bft) 98,00 %
10.12.2017 01:24 -1,9 C 3,9 C 76 % 1014,7 hPa 0,0 l/m 15,0 km/h (3 Bft) S-SW 208 0 min 0,000 mm 0,0 UV-I 0 W/m -5,6 C -9,3 C 19,3 km/h (3 Bft) 100,00 %
10.12.2017 01:26 -1,9 C 3,9 C 76 % 1014,7 hPa 0,0 l/m 18,0 km/h (3 Bft) W-SW 258 0 min 0,000 mm 0,0 UV-I 0 W/m -5,6 C -11,0 C 24,1 km/h (4 Bft) 98,08 %
10.12.2017 01:28 -1,9 C 3,9 C 76 % 1014,8 hPa 0,0 l/m 18,4 km/h (3 Bft) SW 226 0 min 0,000 mm 0,0 UV-I 0 W/m -5,6 C -11,3 C 24,1 km/h (4 Bft) 98,11 %
10.12.2017 01:30 -1,9 C 3,9 C 76 % 1014,7 hPa 0,0 l/m 17,4 km/h (3 Bft) SW 225 0 min 0,000 mm 0,0 UV-I 0 W/m -5,6 C -10,7 C 24,1 km/h (4 Bft) 95,24 %
10.12.2017 01:32 -1,9 C 3,9 C 76 % 1014,7 hPa 0,0 l/m 16,0 km/h (3 Bft) SW 229 0 min 0,000 mm 0,0 UV-I 0 W/m -5,6 C -9,9 C 25,7 km/h (4 Bft) 100,00 %
10.12.2017 01:34 -1,9 C 3,9 C 76 % 1014,7 hPa 0,0 l/m 14,1 km/h (3 Bft) SW 221 0 min 0,000 mm 0,0 UV-I 0 W/m -5,6 C -8,7 C 19,3 km/h (3 Bft) 96,92 %
10.12.2017 01:36 -2,0 C 3,9 C 76 % 1014,6 hPa 0,0 l/m 12,3 km/h (3 Bft) W-SW 238 0 min 0,000 mm 0,0 UV-I 0 W/m -5,6 C -7,5 C 17,7 km/h (3 Bft) 100,00 %
10.12.2017 01:38 -2,1 C 3,9 C 76 % 1014,6 hPa 0,0 l/m 12,1 km/h (2 Bft) SW 223 0 min 0,000 mm 0,0 UV-I 0 W/m -5,7 C -7,5 C 19,3 km/h (3 Bft) 100,00 %
10.12.2017 01:40 -2,1 C 3,9 C 77 % 1014,6 hPa 0,0 l/m 16,1 km/h (3 Bft) SW 225 0 min 0,000 mm 0,0 UV-I 0 W/m -5,6 C -10,2 C 22,5 km/h (4 Bft) 100,00 %
10.12.2017 01:42 -2,1 C 3,9 C 77 % 1014,5 hPa 0,0 l/m 15,6 km/h (3 Bft) SW 219 0 min 0,000 mm 0,0 UV-I 0 W/m -5,6 C -9,9 C 22,5 km/h (4 Bft) 100,00 %
10.12.2017 01:44 -2,1 C 3,9 C 77 % 1014,5 hPa 0,0 l/m 14,8 km/h (3 Bft) W-SW 252 0 min 0,000 mm 0,0 UV-I 0 W/m -5,6 C -9,4 C 19,3 km/h (3 Bft) 100,00 %
10.12.2017 01:46 -2,1 C 3,9 C 77 % 1014,5 hPa 0,0 l/m 12,2 km/h (2 Bft) W-SW 239 0 min 0,000 mm 0,0 UV-I 0 W/m -5,6 C -7,6 C 19,3 km/h (3 Bft) 100,00 %
10.12.2017 01:48 -2,2 C 3,9 C 77 % 1014,4 hPa 0,0 l/m 12,5 km/h (3 Bft) W-SW 244 0 min 0,000 mm 0,0 UV-I 0 W/m -5,7 C -7,9 C 19,3 km/h (3 Bft) 100,00 %
10.12.2017 01:50 -2,2 C 3,9 C 77 % 1014,5 hPa 0,0 l/m 12,3 km/h (3 Bft) W-SW 251 0 min 0,000 mm 0,0 UV-I 0 W/m -5,7 C -7,8 C 19,3 km/h (3 Bft) 100,00 %
10.12.2017 01:52 -2,2 C 3,9 C 77 % 1014,5 hPa 0,0 l/m 11,3 km/h (2 Bft) SW 226 0 min 0,000 mm 0,0 UV-I 0 W/m -5,7 C -7,0 C 17,7 km/h (3 Bft) 100,00 %
10.12.2017 01:54 -2,2 C 3,9 C 77 % 1014,4 hPa 0,0 l/m 14,3 km/h (3 Bft) W-SW 242 0 min 0,000 mm 0,0 UV-I 0 W/m -5,7 C -9,2 C 22,5 km/h (4 Bft) 100,00 %
10.12.2017 01:56 -2,2 C 3,9 C 76 % 1014,4 hPa 0,0 l/m 13,7 km/h (3 Bft) W-SW 241 0 min 0,000 mm 0,0 UV-I 0 W/m -5,8 C -8,8 C 20,9 km/h (4 Bft) 100,00 %
10.12.2017 01:58 -2,2 C 3,9 C 76 % 1014,4 hPa 0,0 l/m 13,0 km/h (3 Bft) SW 217 0 min 0,000 mm 0,0 UV-I 0 W/m -5,8 C -8,3 C 17,7 km/h (3 Bft) 98,00 %
10.12.2017 02:00 -2,2 C 3,9 C 76 % 1014,3 hPa 0,0 l/m 11,3 km/h (2 Bft) S-SW 204 0 min 0,026 mm 0,0 UV-I 0 W/m -5,8 C -7,0 C 19,3 km/h (3 Bft) 100,00 %
10.12.2017 02:02 -2,2 C 3,9 C 77 % 1014,3 hPa 0,0 l/m 10,1 km/h (2 Bft) SW 229 0 min 0,000 mm 0,0 UV-I 0 W/m -5,7 C -6,0 C 17,7 km/h (3 Bft) 98,00 %
10.12.2017 02:04 -2,2 C 3,9 C 77 % 1014,3 hPa 0,0 l/m 8,9 km/h (2 Bft) SW 226 0 min 0,000 mm 0,0 UV-I 0 W/m -5,7 C -4,9 C 14,5 km/h (3 Bft) 96,00 %
10.12.2017 02:06 -2,2 C 3,9 C 77 % 1014,3 hPa 0,0 l/m 9,2 km/h (2 Bft) S-SW 202 0 min 0,000 mm 0,0 UV-I 0 W/m -5,7 C -5,1 C 14,5 km/h (3 Bft) 100,00 %
10.12.2017 02:09 -2,2 C 3,9 C 77 % 1014,3 hPa 0,0 l/m 10,0 km/h (2 Bft) S-SW 211 0 min 0,000 mm 0,0 UV-I 0 W/m -5,7 C -5,9 C 17,7 km/h (3 Bft) 98,78 %
10.12.2017 02:10 -2,2 C 3,9 C 76 % 1014,3 hPa 0,0 l/m 12,2 km/h (2 Bft) W-SW 247 0 min 0,000 mm 0,0 UV-I 0 W/m -5,8 C -7,7 C 16,1 km/h (3 Bft) 100,00 %
10.12.2017 02:12 -2,2 C 3,9 C 77 % 1014,2 hPa 0,0 l/m 10,9 km/h (2 Bft) SW 232 0 min 0,000 mm 0,0 UV-I 0 W/m -5,7 C -6,7 C 16,1 km/h (3 Bft) 100,00 %
10.12.2017 02:14 -2,2 C 3,9 C 77 % 1014,2 hPa 0,0 l/m 10,0 km/h (2 Bft) S-SW 198 0 min 0,000 mm 0,0 UV-I 0 W/m -5,7 C -5,9 C 17,7 km/h (3 Bft) 97,73 %
10.12.2017 02:16 -2,3 C 3,9 C 77 % 1014,2 hPa 0,0 l/m 12,8 km/h (3 Bft) SW 233 0 min 0,000 mm 0,0 UV-I 0 W/m -5,8 C -8,3 C 19,3 km/h (3 Bft) 97,37 %
10.12.2017 02:18 -2,3 C 3,9 C 77 % 1014,2 hPa 0,0 l/m 11,6 km/h (2 Bft) W-SW 253 0 min 0,000 mm 0,0 UV-I 0 W/m -5,8 C -7,3 C 17,7 km/h (3 Bft) 96,43 %
10.12.2017 02:20 -2,3 C 3,9 C 76 % 1014,2 hPa 0,0 l/m 12,4 km/h (3 Bft) SW 229 0 min 0,000 mm 0,0 UV-I 0 W/m -5,9 C -8,0 C 17,7 km/h (3 Bft) 97,87 %
10.12.2017 02:22 -2,3 C 3,9 C 76 % 1014,2 hPa 0,0 l/m 11,6 km/h (2 Bft) SW 234 0 min 0,000 mm 0,0 UV-I 0 W/m -5,9 C -7,3 C 19,3 km/h (3 Bft) 97,56 %
10.12.2017 02:24 -2,2 C 3,9 C 76 % 1014,2 hPa 0,0 l/m 10,0 km/h (2 Bft) SW 231 0 min 0,000 mm 0,0 UV-I 0 W/m -5,8 C -5,9 C 12,9 km/h (3 Bft) 94,64 %
10.12.2017 02:26 -2,3 C 3,9 C 76 % 1014,2 hPa 0,0 l/m 11,2 km/h (2 Bft) W-SW 254 0 min 0,000 mm 0,0 UV-I 0 W/m -5,9 C -7,0 C 16,1 km/h (3 Bft) 97,14 %
10.12.2017 02:28 -2,3 C 3,9 C 76 % 1014,2 hPa 0,0 l/m 9,9 km/h (2 Bft) SW 227 0 min 0,000 mm 0,0 UV-I 0 W/m -5,9 C -5,9 C 16,1 km/h (3 Bft) 94,64 %
10.12.2017 02:30 -2,3 C 3,9 C 76 % 1014,2 hPa 0,0 l/m 8,6 km/h (2 Bft) S 186 0 min 0,000 mm 0,0 UV-I 0 W/m -5,9 C -4,7 C 14,5 km/h (3 Bft) 97,37 %
10.12.2017 02:32 -2,3 C 3,9 C 76 % 1014,2 hPa 0,0 l/m 8,4 km/h (2 Bft) SW 220 0 min 0,000 mm 0,0 UV-I 0 W/m -5,9 C -4,5 C 12,9 km/h (3 Bft) 98,21 %
10.12.2017 02:34 -2,4 C 3,9 C 76 % 1014,1 hPa 0,0 l/m 11,0 km/h (2 Bft) S-SW 205 0 min 0,000 mm 0,0 UV-I 0 W/m -6,0 C -7,0 C 16,1 km/h (3 Bft) 97,56 %
10.12.2017 02:36 -2,4 C 3,9 C 77 % 1014,2 hPa 0,0 l/m 8,5 km/h (2 Bft) S-SW 207 0 min 0,000 mm 0,0 UV-I 0 W/m -5,9 C -4,7 C 12,9 km/h (3 Bft) 97,37 %
10.12.2017 02:38 -2,6 C 3,9 C 77 % 1014,1 hPa 0,0 l/m 9,7 km/h (2 Bft) SW 231 0 min 0,000 mm 0,0 UV-I 0 W/m -6,1 C -6,0 C 17,7 km/h (3 Bft) 92,86 %
10.12.2017 02:40 -2,6 C 3,9 C 78 % 1014,1 hPa 0,0 l/m 8,4 km/h (2 Bft) S-SW 196 0 min 0,000 mm 0,0 UV-I 0 W/m -5,9 C -4,8 C 14,5 km/h (3 Bft) 98,11 %
10.12.2017 02:42 -2,6 C 3,9 C 78 % 1014,1 hPa 0,0 l/m 8,3 km/h (2 Bft) S-SW 196 0 min 0,000 mm 0,0 UV-I 0 W/m -5,9 C -4,7 C 14,5 km/h (3 Bft) 97,56 %
10.12.2017 02:44 -2,6 C 3,9 C 77 % 1014,1 hPa 0,0 l/m 10,2 km/h (2 Bft) S-SW 209 0 min 0,000 mm 0,0 UV-I 0 W/m -6,1 C -6,5 C 14,5 km/h (3 Bft) 97,62 %
10.12.2017 02:46 -2,7 C 3,9 C 78 % 1014,1 hPa 0,0 l/m 8,4 km/h (2 Bft) S-SW 205 0 min 0,000 mm 0,0 UV-I 0 W/m -6,0 C -4,9 C 12,9 km/h (3 Bft) 97,73 %
10.12.2017 02:48 -2,7 C 3,9 C 78 % 1014,1 hPa 0,0 l/m 10,1 km/h (2 Bft) S-SW 209 0 min 0,000 mm 0,0 UV-I 0 W/m -6,0 C -6,5 C 14,5 km/h (3 Bft) 96,43 %
10.12.2017 02:50 -2,8 C 3,9 C 78 % 1014,1 hPa 0,0 l/m 8,2 km/h (2 Bft) S 190 0 min 0,000 mm 0,0 UV-I 0 W/m -6,1 C -4,8 C 11,3 km/h (2 Bft) 92,00 %
10.12.2017 02:52 -2,8 C 3,9 C 78 % 1014,0 hPa 0,0 l/m 8,6 km/h (2 Bft) SW 217 0 min 0,000 mm 0,0 UV-I 0 W/m -6,1 C -5,2 C 12,9 km/h (3 Bft) 95,45 %
10.12.2017 02:54 -2,8 C 3,9 C 78 % 1014,0 hPa 0,0 l/m 9,1 km/h (2 Bft) SW 217 0 min 0,000 mm 0,0 UV-I 0 W/m -6,1 C -5,7 C 12,9 km/h (3 Bft) 98,11 %
10.12.2017 02:56 -2,8 C 3,9 C 78 % 1014,0 hPa 0,0 l/m 7,2 km/h (2 Bft) SW 216 0 min 0,000 mm 0,0 UV-I 0 W/m -6,1 C -3,7 C 9,7 km/h (2 Bft) 97,73 %
10.12.2017 02:58 -2,7 C 3,9 C 78 % 1013,9 hPa 0,0 l/m 6,9 km/h (2 Bft) SW 216 0 min 0,000 mm 0,0 UV-I 0 W/m -6,0 C -3,3 C 9,7 km/h (2 Bft) 94,74 %
10.12.2017 03:00 -2,7 C 3,9 C 77 % 1013,8 hPa 0,0 l/m 6,7 km/h (2 Bft) S-SW 207 0 min 0,025 mm 0,0 UV-I 0 W/m -6,2 C -3,0 C 11,3 km/h (2 Bft) 94,64 %
10.12.2017 03:02 -2,7 C 3,9 C 77 % 1013,8 hPa 0,0 l/m 6,5 km/h (2 Bft) SW 228 0 min 0,000 mm 0,0 UV-I 0 W/m -6,2 C -2,8 C 9,7 km/h (2 Bft) 94,74 %
10.12.2017 03:04 -2,7 C 3,9 C 77 % 1013,7 hPa 0,0 l/m 6,5 km/h (2 Bft) S-SW 200 0 min 0,000 mm 0,0 UV-I 0 W/m -6,2 C -2,8 C 11,3 km/h (2 Bft) 94,00 %
10.12.2017 03:06 -2,7 C 3,9 C 77 % 1013,7 hPa 0,0 l/m 7,6 km/h (2 Bft) S-SW 208 0 min 0,000 mm 0,0 UV-I 0 W/m -6,2 C -4,0 C 11,3 km/h (2 Bft) 96,23 %
10.12.2017 03:08 -2,8 C 3,9 C 77 % 1013,6 hPa 0,0 l/m 6,6 km/h (2 Bft) W-SW 242 0 min 0,000 mm 0,0 UV-I 0 W/m -6,3 C -3,0 C 11,3 km/h (2 Bft) 90,24 %
10.12.2017 03:10 -2,8 C 3,9 C 77 % 1013,5 hPa 0,0 l/m 7,3 km/h (2 Bft) SW 233 0 min 0,000 mm 0,0 UV-I 0 W/m -6,3 C -3,8 C 9,7 km/h (2 Bft) 90,57 %
10.12.2017 03:12 -2,8 C 3,9 C 78 % 1013,6 hPa 0,0 l/m 7,1 km/h (2 Bft) W-SW 240 0 min 0,000 mm 0,0 UV-I 0 W/m -6,1 C -3,6 C 9,7 km/h (2 Bft) 95,12 %
10.12.2017 03:14 -2,8 C 3,9 C 78 % 1013,5 hPa 0,0 l/m 7,6 km/h (2 Bft) W-SW 240 0 min 0,000 mm 0,0 UV-I 0 W/m -6,1 C -4,2 C 11,3 km/h (2 Bft) 96,23 %
10.12.2017 03:16 -2,9 C 3,9 C 78 % 1013,5 hPa 0,0 l/m 5,2 km/h (1 Bft) W-SW 237 0 min 0,000 mm 0,0 UV-I 0 W/m -6,2 C -2,9 C 8,0 km/h (2 Bft) 97,37 %
10.12.2017 03:18 -3,0 C 3,9 C 78 % 1013,5 hPa 0,0 l/m 6,0 km/h (2 Bft) SW 217 0 min 0,000 mm 0,0 UV-I 0 W/m -6,3 C -3,0 C 8,0 km/h (2 Bft) 98,11 %
10.12.2017 03:20 -3,0 C 3,9 C 78 % 1013,5 hPa 0,0 l/m 6,6 km/h (2 Bft) S-SW 212 0 min 0,000 mm 0,0 UV-I 0 W/m -6,3 C -3,2 C 9,7 km/h (2 Bft) 98,00 %
10.12.2017 03:22 -2,9 C 3,9 C 78 % 1013,5 hPa 0,0 l/m 6,6 km/h (2 Bft) S-SW 212 0 min 0,000 mm 0,0 UV-I 0 W/m -6,2 C -3,1 C 11,3 km/h (2 Bft) 97,87 %
10.12.2017 03:24 -3,0 C 3,9 C 78 % 1013,4 hPa 0,0 l/m 5,6 km/h (1 Bft) SW 220 0 min 0,000 mm 0,0 UV-I 0 W/m -6,3 C -3,0 C 8,0 km/h (2 Bft) 97,22 %
10.12.2017 03:26 -3,0 C 3,9 C 78 % 1013,4 hPa 0,0 l/m 5,3 km/h (1 Bft) SW 215 0 min 0,000 mm 0,0 UV-I 0 W/m -6,3 C -3,0 C 8,0 km/h (2 Bft) 98,11 %
10.12.2017 03:28 -3,0 C 3,9 C 78 % 1013,3 hPa 0,0 l/m 6,0 km/h (2 Bft) SW 227 0 min 0,000 mm 0,0 UV-I 0 W/m -6,3 C -3,0 C 8,0 km/h (2 Bft) 97,37 %
10.12.2017 03:30 -3,1 C 3,9 C 78 % 1013,3 hPa 0,0 l/m 5,5 km/h (1 Bft) S-SW 209 0 min 0,000 mm 0,0 UV-I 0 W/m -6,4 C -3,1 C 9,7 km/h (2 Bft) 98,11 %
10.12.2017 03:32 -3,0 C 3,9 C 78 % 1013,2 hPa 0,0 l/m 6,6 km/h (2 Bft) S-SW 207 0 min 0,000 mm 0,0 UV-I 0 W/m -6,3 C -3,2 C 9,7 km/h (2 Bft) 97,87 %
10.12.2017 03:34 -3,1 C 3,9 C 78 % 1013,3 hPa 0,0 l/m 5,3 km/h (1 Bft) SW 217 0 min 0,000 mm 0,0 UV-I 0 W/m -6,4 C -3,1 C 8,0 km/h (2 Bft) 100,00 %
10.12.2017 03:36 -3,2 C 3,9 C 78 % 1013,3 hPa 0,0 l/m 5,6 km/h (1 Bft) S-SW 205 0 min 0,000 mm 0,0 UV-I 0 W/m -6,5 C -3,2 C 9,7 km/h (2 Bft) 98,00 %
10.12.2017 03:38 -3,3 C 3,9 C 79 % 1013,2 hPa 0,0 l/m 4,7 km/h (1 Bft) SW 217 0 min 0,000 mm 0,0 UV-I 0 W/m -6,4 C -3,3 C 8,0 km/h (2 Bft) 94,29 %
10.12.2017 03:40 -3,3 C 3,9 C 79 % 1013,2 hPa 0,0 l/m 6,8 km/h (2 Bft) S-SW 209 0 min 0,000 mm 0,0 UV-I 0 W/m -6,4 C -3,7 C 9,7 km/h (2 Bft) 100,00 %
10.12.2017 03:42 -3,2 C 3,9 C 79 % 1013,1 hPa 0,0 l/m 5,4 km/h (1 Bft) S-SW 207 0 min 0,000 mm 0,0 UV-I 0 W/m -6,3 C -3,2 C 8,0 km/h (2 Bft) 100,00 %
10.12.2017 03:44 -3,3 C 3,9 C 79 % 1013,1 hPa 0,0 l/m 3,7 km/h (1 Bft) SW 215 0 min 0,000 mm 0,0 UV-I 0 W/m -6,4 C -3,3 C 6,4 km/h (2 Bft) 98,11 %
10.12.2017 03:46 -3,3 C 3,9 C 79 % 1013,1 hPa 0,0 l/m 4,4 km/h (1 Bft) SW 215 0 min 0,000 mm 0,0 UV-I 0 W/m -6,4 C -3,3 C 6,4 km/h (2 Bft) 97,87 %
10.12.2017 03:48 -3,4 C 3,9 C 79 % 1013,0 hPa 0,0 l/m 2,9 km/h (1 Bft) SW 215 0 min 0,000 mm 0,0 UV-I 0 W/m -6,5 C -3,4 C 4,8 km/h (1 Bft) 100,00 %
10.12.2017 03:50 -3,4 C 3,9 C 79 % 1013,0 hPa 0,0 l/m 3,0 km/h (1 Bft) SW 215 0 min 0,000 mm 0,0 UV-I 0 W/m -6,5 C -3,4 C 4,8 km/h (1 Bft) 100,00 %
10.12.2017 03:52 -3,4 C 3,9 C 79 % 1012,9 hPa 0,0 l/m 3,7 km/h (1 Bft) SW 215 0 min 0,000 mm 0,0 UV-I 0 W/m -6,5 C -3,4 C 6,4 km/h (2 Bft) 100,00 %
10.12.2017 03:54 -3,3 C 3,9 C 79 % 1012,9 hPa 0,0 l/m 4,0 km/h (1 Bft) SW 215 0 min 0,000 mm 0,0 UV-I 0 W/m -6,4 C -3,3 C 6,4 km/h (2 Bft) 97,37 %
10.12.2017 03:56 -3,4 C 3,9 C 79 % 1012,9 hPa 0,0 l/m 4,0 km/h (1 Bft) SW 216 0 min 0,000 mm 0,0 UV-I 0 W/m -6,5 C -3,4 C 6,4 km/h (2 Bft) 100,00 %
10.12.2017 03:58 -3,4 C 3,9 C 79 % 1012,8 hPa 0,0 l/m 3,3 km/h (1 Bft) SW 216 0 min 0,000 mm 0,0 UV-I 0 W/m -6,5 C -3,4 C 4,8 km/h (1 Bft) 100,00 %
10.12.2017 04:00 -3,4 C 3,9 C 79 % 1012,8 hPa 0,0 l/m 4,1 km/h (1 Bft) SW 216 0 min 0,000 mm 0,0 UV-I 0 W/m -6,5 C -3,4 C 6,4 km/h (2 Bft) 100,00 %
10.12.2017 04:02 -3,5 C 3,9 C 79 % 1012,8 hPa 0,0 l/m 4,0 km/h (1 Bft) SW 216 0 min 0,000 mm 0,0 UV-I 0 W/m -6,6 C -3,5 C 6,4 km/h (2 Bft) 100,00 %
10.12.2017 04:04 -3,6 C 3,9 C 80 % 1012,8 hPa 0,0 l/m 3,9 km/h (1 Bft) S 187 0 min 0,000 mm 0,0 UV-I 0 W/m -6,5 C -3,6 C 6,4 km/h (2 Bft) 100,00 %
10.12.2017 04:06 -3,6 C 3,9 C 80 % 1012,8 hPa 0,0 l/m 2,6 km/h (1 Bft) S 187 0 min 0,000 mm 0,0 UV-I 0 W/m -6,5 C -3,6 C 4,8 km/h (1 Bft) 98,00 %
10.12.2017 04:08 -3,6 C 3,9 C 80 % 1012,8 hPa 0,0 l/m 3,1 km/h (1 Bft) S 184 0 min 0,000 mm 0,0 UV-I 0 W/m -6,5 C -3,6 C 4,8 km/h (1 Bft) 100,00 %
10.12.2017 04:10 -3,6 C 3,9 C 80 % 1012,7 hPa 0,0 l/m 2,9 km/h (1 Bft) S 177 0 min 0,000 mm 0,0 UV-I 0 W/m -6,5 C -3,6 C 6,4 km/h (2 Bft) 98,11 %
10.12.2017 04:12 -3,5 C 3,9 C 80 % 1012,7 hPa 0,0 l/m 4,1 km/h (1 Bft) S 179 0 min 0,000 mm 0,0 UV-I 0 W/m -6,4 C -3,5 C 6,4 km/h (2 Bft) 97,96 %
10.12.2017 04:14 -3,5 C 3,9 C 80 % 1012,6 hPa 0,0 l/m 4,4 km/h (1 Bft) S 173 0 min 0,000 mm 0,0 UV-I 0 W/m -6,4 C -3,5 C 8,0 km/h (2 Bft) 100,00 %
10.12.2017 04:16 -3,4 C 3,9 C 80 % 1012,6 hPa 0,0 l/m 3,9 km/h (1 Bft) S 184 0 min 0,000 mm 0,0 UV-I 0 W/m -6,3 C -3,4 C 6,4 km/h (2 Bft) 100,00 %
10.12.2017 04:18 -3,4 C 3,9 C 80 % 1012,5 hPa 0,0 l/m 3,5 km/h (1 Bft) S 178 0 min 0,000 mm 0,0 UV-I 0 W/m -6,3 C -3,4 C 6,4 km/h (2 Bft) 100,00 %
10.12.2017 04:20 -3,4 C 3,9 C 79 % 1012,5 hPa 0,0 l/m 4,2 km/h (1 Bft) S 186 0 min 0,000 mm 0,0 UV-I 0 W/m -6,5 C -3,4 C 8,0 km/h (2 Bft) 100,00 %
10.12.2017 04:22 -3,4 C 3,9 C 79 % 1012,5 hPa 0,0 l/m 4,5 km/h (1 Bft) S-SW 210 0 min 0,000 mm 0,0 UV-I 0 W/m -6,5 C -3,4 C 8,0 km/h (2 Bft) 100,00 %
10.12.2017 04:24 -3,4 C 3,9 C 80 % 1012,4 hPa 0,0 l/m 5,1 km/h (1 Bft) S 189 0 min 0,000 mm 0,0 UV-I 0 W/m -6,3 C -3,4 C 6,4 km/h (2 Bft) 100,00 %
10.12.2017 04:26 -3,5 C 3,9 C 80 % 1012,3 hPa 0,0 l/m 6,6 km/h (2 Bft) S-SW 202 0 min 0,000 mm 0,0 UV-I 0 W/m -6,4 C -3,7 C 11,3 km/h (2 Bft) 100,00 %
10.12.2017 04:28 -3,5 C 3,9 C 80 % 1012,3 hPa 0,0 l/m 6,2 km/h (2 Bft) S-SW 202 0 min 0,000 mm 0,0 UV-I 0 W/m -6,4 C -3,5 C 8,0 km/h (2 Bft) 100,00 %
10.12.2017 04:30 -3,5 C 3,9 C 80 % 1012,3 hPa 0,0 l/m 6,0 km/h (2 Bft) S-SW 201 0 min 0,000 mm 0,0 UV-I 0 W/m -6,4 C -3,5 C 9,7 km/h (2 Bft) 98,21 %
10.12.2017 04:32 -3,5 C 3,9 C 80 % 1012,2 hPa 0,0 l/m 6,2 km/h (2 Bft) S-SW 200 0 min 0,000 mm 0,0 UV-I 0 W/m -6,4 C -3,5 C 8,0 km/h (2 Bft) 100,00 %
10.12.2017 04:34 -3,5 C 3,9 C 80 % 1012,2 hPa 0,0 l/m 5,5 km/h (1 Bft) S 175 0 min 0,000 mm 0,0 UV-I 0 W/m -6,4 C -3,5 C 8,0 km/h (2 Bft) 97,56 %
10.12.2017 04:36 -3,6 C 3,9 C 81 % 1012,1 hPa 0,0 l/m 4,5 km/h (1 Bft) S-SW 198 0 min 0,000 mm 0,0 UV-I 0 W/m -6,4 C -3,6 C 8,0 km/h (2 Bft) 96,23 %
10.12.2017 04:38 -3,5 C 3,9 C 81 % 1012,1 hPa 0,0 l/m 5,2 km/h (1 Bft) S-SW 203 0 min 0,000 mm 0,0 UV-I 0 W/m -6,3 C -3,5 C 8,0 km/h (2 Bft) 96,30 %
10.12.2017 04:40 -3,4 C 3,9 C 81 % 1012,2 hPa 0,0 l/m 4,3 km/h (1 Bft) S 176 0 min 0,000 mm 0,0 UV-I 0 W/m -6,2 C -3,4 C 9,7 km/h (2 Bft) 100,00 %
10.12.2017 04:42 -3,3 C 3,9 C 80 % 1012,2 hPa 0,0 l/m 4,8 km/h (1 Bft) S 190 0 min 0,000 mm 0,0 UV-I 0 W/m -6,2 C -3,3 C 6,4 km/h (2 Bft) 100,00 %
10.12.2017 04:44 -3,3 C 3,9 C 80 % 1012,1 hPa 0,0 l/m 2,8 km/h (1 Bft) S 169 0 min 0,000 mm 0,0 UV-I 0 W/m -6,2 C -3,3 C 6,4 km/h (2 Bft) 100,00 %
10.12.2017 04:46 -3,4 C 3,9 C 80 % 1012,1 hPa 0,0 l/m 4,9 km/h (1 Bft) S 182 0 min 0,000 mm 0,0 UV-I 0 W/m -6,3 C -3,4 C 8,0 km/h (2 Bft) 95,12 %
10.12.2017 04:48 -3,3 C 3,9 C 80 % 1012,0 hPa 0,0 l/m 4,9 km/h (1 Bft) S 169 0 min 0,000 mm 0,0 UV-I 0 W/m -6,2 C -3,3 C 8,0 km/h (2 Bft) 100,00 %
10.12.2017 04:50 -3,3 C 3,9 C 80 % 1012,0 hPa 0,0 l/m 5,1 km/h (1 Bft) S-SO 158 0 min 0,000 mm 0,0 UV-I 0 W/m -6,2 C -3,3 C 12,9 km/h (3 Bft) 100,00 %
10.12.2017 04:52 -3,3 C 3,9 C 79 % 1011,9 hPa 0,0 l/m 5,0 km/h (1 Bft) S-SO 165 0 min 0,000 mm 0,0 UV-I 0 W/m -6,4 C -3,3 C 8,0 km/h (2 Bft) 96,00 %
10.12.2017 04:54 -3,3 C 3,9 C 79 % 1011,9 hPa 0,0 l/m 5,1 km/h (1 Bft) S-SW 201 0 min 0,000 mm 0,0 UV-I 0 W/m -6,4 C -3,3 C 11,3 km/h (2 Bft) 100,00 %
10.12.2017 04:56 -3,2 C 3,9 C 79 % 1011,9 hPa 0,0 l/m 4,3 km/h (1 Bft) S 175 0 min 0,000 mm 0,0 UV-I 0 W/m -6,3 C -3,2 C 9,7 km/h (2 Bft) 100,00 %
10.12.2017 04:58 -3,1 C 3,9 C 78 % 1011,9 hPa 0,0 l/m 5,0 km/h (1 Bft) S-SO 167 0 min 0,000 mm 0,0 UV-I 0 W/m -6,4 C -3,1 C 8,0 km/h (2 Bft) 100,00 %
10.12.2017 05:00 -3,1 C 3,9 C 78 % 1011,8 hPa 0,0 l/m 3,8 km/h (1 Bft) S 182 0 min 0,000 mm 0,0 UV-I 0 W/m -6,4 C -3,1 C 6,4 km/h (2 Bft) 100,00 %
10.12.2017 05:02 -3,1 C 3,9 C 78 % 1011,8 hPa 0,0 l/m 4,8 km/h (1 Bft) S-SO 161 0 min 0,000 mm 0,0 UV-I 0 W/m -6,4 C -3,1 C 8,0 km/h (2 Bft) 100,00 %
10.12.2017 05:04 -3,1 C 3,9 C 78 % 1011,7 hPa 0,0 l/m 4,4 km/h (1 Bft) S 189 0 min 0,000 mm 0,0 UV-I 0 W/m -6,4 C -3,1 C 8,0 km/h (2 Bft) 100,00 %
10.12.2017 05:06 -3,1 C 3,9 C 78 % 1011,7 hPa 0,0 l/m 3,5 km/h (1 Bft) S 186 0 min 0,000 mm 0,0 UV-I 0 W/m -6,4 C -3,1 C 4,8 km/h (1 Bft) 95,74 %
10.12.2017 05:08 -3,1 C 3,9 C 78 % 1011,7 hPa 0,0 l/m 4,1 km/h (1 Bft) S-SW 196 0 min 0,000 mm 0,0 UV-I 0 W/m -6,4 C -3,1 C 6,4 km/h (2 Bft) 95,12 %
10.12.2017 05:10 -3,1 C 3,9 C 78 % 1011,6 hPa 0,0 l/m 3,8 km/h (1 Bft) S-SW 196 0 min 0,000 mm 0,0 UV-I 0 W/m -6,4 C -3,1 C 4,8 km/h (1 Bft) 98,11 %
10.12.2017 05:12 -3,2 C 3,9 C 78 % 1011,5 hPa 0,0 l/m 2,6 km/h (1 Bft) S-SW 196 0 min 0,000 mm 0,0 UV-I 0 W/m -6,5 C -3,2 C 4,8 km/h (1 Bft) 100,00 %
10.12.2017 05:14 -3,2 C 3,9 C 78 % 1011,5 hPa 0,0 l/m 2,7 km/h (1 Bft) S-SW 196 0 min 0,000 mm 0,0 UV-I 0 W/m -6,5 C -3,2 C 4,8 km/h (1 Bft) 96,23 %
10.12.2017 05:16 -3,2 C 3,9 C 79 % 1011,5 hPa 0,0 l/m 2,7 km/h (1 Bft) S-SW 196 0 min 0,000 mm 0,0 UV-I 0 W/m -6,3 C -3,2 C 3,2 km/h (1 Bft) 97,56 %
10.12.2017 05:18 -3,3 C 3,9 C 79 % 1011,5 hPa 0,0 l/m 1,8 km/h (1 Bft) S-SW 196 0 min 0,000 mm 0,0 UV-I 0 W/m -6,4 C -3,3 C 3,2 km/h (1 Bft) 98,11 %
10.12.2017 05:20 -3,3 C 3,9 C 79 % 1011,5 hPa 0,0 l/m 1,3 km/h (1 Bft) S-SW 196 0 min 0,000 mm 0,0 UV-I 0 W/m -6,4 C -3,3 C 3,2 km/h (1 Bft) 97,87 %
10.12.2017 05:22 -3,4 C 3,9 C 80 % 1011,4 hPa 0,0 l/m 1,0 km/h (0 Bft) S-SW 196 0 min 0,000 mm 0,0 UV-I 0 W/m -6,3 C -3,4 C 3,2 km/h (1 Bft) 97,56 %
10.12.2017 05:24 -3,5 C 3,9 C 80 % 1011,4 hPa 0,0 l/m 0,8 km/h (0 Bft) S-SW 196 0 min 0,000 mm 0,0 UV-I 0 W/m -6,4 C -3,5 C 1,6 km/h (1 Bft) 98,00 %
10.12.2017 05:26 -3,5 C 3,9 C 81 % 1011,5 hPa 0,0 l/m 2,6 km/h (1 Bft) S-SW 196 0 min 0,000 mm 0,0 UV-I 0 W/m -6,3 C -3,5 C 4,8 km/h (1 Bft) 97,62 %
10.12.2017 05:28 -3,5 C 3,9 C 80 % 1011,4 hPa 0,0 l/m 2,0 km/h (1 Bft) S-SW 196 0 min 0,000 mm 0,0 UV-I 0 W/m -6,4 C -3,5 C 3,2 km/h (1 Bft) 97,56 %
10.12.2017 05:30 -3,5 C 3,9 C 80 % 1011,4 hPa 0,0 l/m 1,0 km/h (0 Bft) S-SW 196 0 min 0,000 mm 0,0 UV-I 0 W/m -6,4 C -3,5 C 3,2 km/h (1 Bft) 94,34 %
10.12.2017 05:32 -3,6 C 3,9 C 80 % 1011,4 hPa 0,0 l/m 0,5 km/h (0 Bft) S-SW 196 0 min 0,000 mm 0,0 UV-I 0 W/m -6,5 C -3,6 C 1,6 km/h (1 Bft) 96,00 %
10.12.2017 05:34 -3,5 C 3,9 C 80 % 1011,3 hPa 0,0 l/m 0,0 km/h (0 Bft) S-SW 196 0 min 0,000 mm 0,0 UV-I 0 W/m -6,4 C -3,5 C 1,6 km/h (1 Bft) 97,87 %
10.12.2017 05:36 -3,6 C 3,9 C 80 % 1011,2 hPa 0,0 l/m 1,8 km/h (1 Bft) S-SO 155 0 min 0,000 mm 0,0 UV-I 0 W/m -6,5 C -3,6 C 4,8 km/h (1 Bft) 98,00 %
10.12.2017 05:38 -3,7 C 3,9 C 80 % 1011,2 hPa 0,0 l/m 3,5 km/h (1 Bft) S-SO 155 0 min 0,000 mm 0,0 UV-I 0 W/m -6,6 C -3,7 C 6,4 km/h (2 Bft) 97,37 %
10.12.2017 05:40 -3,7 C 3,9 C 81 % 1011,2 hPa 0,0 l/m 3,1 km/h (1 Bft) S-SO 155 0 min 0,000 mm 0,0 UV-I 0 W/m -6,5 C -3,7 C 4,8 km/h (1 Bft) 98,21 %
10.12.2017 05:42 -3,7 C 3,9 C 81 % 1011,1 hPa 0,0 l/m 1,2 km/h (1 Bft) S-SO 155 0 min 0,000 mm 0,0 UV-I 0 W/m -6,5 C -3,7 C 3,2 km/h (1 Bft) 97,56 %
10.12.2017 05:44 -3,7 C 3,9 C 81 % 1011,1 hPa 0,0 l/m 2,0 km/h (1 Bft) S-SO 155 0 min 0,000 mm 0,0 UV-I 0 W/m -6,5 C -3,7 C 4,8 km/h (1 Bft) 95,74 %
10.12.2017 05:46 -3,7 C 3,9 C 81 % 1011,1 hPa 0,0 l/m 0,7 km/h (0 Bft) S-SO 155 0 min 0,000 mm 0,0 UV-I 0 W/m -6,5 C -3,7 C 1,6 km/h (1 Bft) 95,74 %
10.12.2017 05:48 -3,7 C 3,9 C 81 % 1011,1 hPa 0,0 l/m 1,6 km/h (1 Bft) S-SO 155 0 min 0,000 mm 0,0 UV-I 0 W/m -6,5 C -3,7 C 3,2 km/h (1 Bft) 94,64 %
10.12.2017 05:50 -3,7 C 3,9 C 81 % 1011,1 hPa 0,0 l/m 2,3 km/h (1 Bft) S-SO 155 0 min 0,000 mm 0,0 UV-I 0 W/m -6,5 C -3,7 C 3,2 km/h (1 Bft) 94,74 %
10.12.2017 05:52 -3,7 C 3,9 C 81 % 1011,1 hPa 0,0 l/m 1,9 km/h (1 Bft) S-SO 155 0 min 0,000 mm 0,0 UV-I 0 W/m -6,5 C -3,7 C 3,2 km/h (1 Bft) 98,00 %
10.12.2017 05:54 -3,7 C 3,9 C 81 % 1011,1 hPa 0,0 l/m 2,7 km/h (1 Bft) S-SO 155 0 min 0,000 mm 0,0 UV-I 0 W/m -6,5 C -3,7 C 4,8 km/h (1 Bft) 97,87 %
10.12.2017 05:56 -3,7 C 3,9 C 81 % 1011,0 hPa 0,0 l/m 0,1 km/h (0 Bft) S-SO 155 0 min 0,000 mm 0,0 UV-I 0 W/m -6,5 C -3,7 C 1,6 km/h (1 Bft) 96,23 %
10.12.2017 05:58 -3,7 C 3,9 C 81 % 1011,0 hPa 0,0 l/m 0,9 km/h (0 Bft) S-SO 155 0 min 0,000 mm 0,0 UV-I 0 W/m -6,5 C -3,7 C 3,2 km/h (1 Bft) 97,56 %
10.12.2017 06:00 -3,8 C 3,9 C 81 % 1011,0 hPa 0,0 l/m 0,9 km/h (0 Bft) S-SO 155 0 min 0,000 mm 0,0 UV-I 0 W/m -6,6 C -3,8 C 1,6 km/h (1 Bft) 91,49 %
10.12.2017 06:02 -3,8 C 3,9 C 82 % 1011,0 hPa 0,0 l/m 1,0 km/h (0 Bft) S-SO 155 0 min 0,000 mm 0,0 UV-I 0 W/m -6,4 C -3,8 C 3,2 km/h (1 Bft) 95,74 %
10.12.2017 06:04 -3,8 C 3,9 C 81 % 1011,0 hPa 0,0 l/m 0,3 km/h (0 Bft) S-SO 155 0 min 0,000 mm 0,0 UV-I 0 W/m -6,6 C -3,8 C 1,6 km/h (1 Bft) 95,74 %
10.12.2017 06:06 -3,9 C 3,9 C 82 % 1011,0 hPa 0,0 l/m 1,0 km/h (0 Bft) S-SO 155 0 min 0,000 mm 0,0 UV-I 0 W/m -6,5 C -3,9 C 1,6 km/h (1 Bft) 98,00 %
10.12.2017 06:08 -3,9 C 3,9 C 82 % 1011,0 hPa 0,0 l/m 0,8 km/h (0 Bft) S-SO 155 0 min 0,000 mm 0,0 UV-I 0 W/m -6,5 C -3,9 C 1,6 km/h (1 Bft) 97,22 %
10.12.2017 06:10 -3,9 C 3,9 C 82 % 1011,1 hPa 0,0 l/m 0,8 km/h (0 Bft) S-SO 155 0 min 0,000 mm 0,0 UV-I 0 W/m -6,5 C -3,9 C 1,6 km/h (1 Bft) 98,28 %
10.12.2017 06:12 -3,9 C 3,9 C 82 % 1011,0 hPa 0,0 l/m 1,0 km/h (0 Bft) S-SO 155 0 min 0,000 mm 0,0 UV-I 0 W/m -6,5 C -3,9 C 3,2 km/h (1 Bft) 97,78 %
10.12.2017 06:14 -4,0 C 3,9 C 82 % 1011,0 hPa 0,0 l/m 2,0 km/h (1 Bft) S-SO 155 0 min 0,000 mm 0,0 UV-I 0 W/m -6,6 C -4,0 C 4,8 km/h (1 Bft) 97,56 %
10.12.2017 06:16 -3,9 C 3,9 C 82 % 1010,9 hPa 0,0 l/m 1,1 km/h (1 Bft) S-SO 155 0 min 0,000 mm 0,0 UV-I 0 W/m -6,5 C -3,9 C 3,2 km/h (1 Bft) 98,04 %
10.12.2017 06:18 -3,9 C 3,9 C 82 % 1010,9 hPa 0,0 l/m 0,7 km/h (0 Bft) S-SO 155 0 min 0,000 mm 0,0 UV-I 0 W/m -6,5 C -3,9 C 1,6 km/h (1 Bft) 97,87 %
10.12.2017 06:20 -3,9 C 3,9 C 82 % 1010,9 hPa 0,0 l/m 2,7 km/h (1 Bft) S-SO 155 0 min 0,000 mm 0,0 UV-I 0 W/m -6,5 C -3,9 C 4,8 km/h (1 Bft) 95,74 %
10.12.2017 06:22 -3,9 C 3,9 C 82 % 1010,8 hPa 0,0 l/m 3,4 km/h (1 Bft) S-SO 155 0 min 0,000 mm 0,0 UV-I 0 W/m -6,5 C -3,9 C 4,8 km/h (1 Bft) 97,56 %
10.12.2017 06:24 -4,1 C 3,9 C 82 % 1010,8 hPa 0,0 l/m 3,2 km/h (1 Bft) S-SO 156 0 min 0,000 mm 0,0 UV-I 0 W/m -6,7 C -4,1 C 6,4 km/h (2 Bft) 96,00 %
10.12.2017 06:26 -4,0 C 3,9 C 82 % 1010,8 hPa 0,0 l/m 3,2 km/h (1 Bft) S-SO 156 0 min 0,000 mm 0,0 UV-I 0 W/m -6,6 C -4,0 C 4,8 km/h (1 Bft) 96,23 %
10.12.2017 06:28 -4,1 C 3,9 C 82 % 1010,8 hPa 0,0 l/m 2,9 km/h (1 Bft) S-SO 156 0 min 0,000 mm 0,0 UV-I 0 W/m -6,7 C -4,1 C 4,8 km/h (1 Bft) 97,37 %
10.12.2017 06:30 -4,0 C 3,9 C 81 % 1010,7 hPa 0,0 l/m 3,2 km/h (1 Bft) S 191 0 min 0,000 mm 0,0 UV-I 0 W/m -6,8 C -4,0 C 6,4 km/h (2 Bft) 97,87 %
10.12.2017 06:32 -4,1 C 3,9 C 81 % 1010,7 hPa 0,0 l/m 3,3 km/h (1 Bft) S 191 0 min 0,000 mm 0,0 UV-I 0 W/m -6,9 C -4,1 C 4,8 km/h (1 Bft) 97,87 %
10.12.2017 06:34 -4,1 C 3,9 C 81 % 1010,7 hPa 0,0 l/m 3,3 km/h (1 Bft) S 180 0 min 0,000 mm 0,0 UV-I 0 W/m -6,9 C -4,1 C 6,4 km/h (2 Bft) 98,00 %
10.12.2017 06:36 -4,2 C 3,9 C 81 % 1010,6 hPa 0,0 l/m 3,6 km/h (1 Bft) S-SO 153 0 min 0,000 mm 0,0 UV-I 0 W/m -7,0 C -4,2 C 6,4 km/h (2 Bft) 96,00 %
10.12.2017 06:38 -4,2 C 3,9 C 81 % 1010,6 hPa 0,0 l/m 4,2 km/h (1 Bft) SO 140 0 min 0,000 mm 0,0 UV-I 0 W/m -7,0 C -4,2 C 12,9 km/h (3 Bft) 100,00 %
10.12.2017 06:40 -4,2 C 3,9 C 80 % 1010,5 hPa 0,0 l/m 5,4 km/h (1 Bft) S-SO 161 0 min 0,000 mm 0,0 UV-I 0 W/m -7,1 C -4,2 C 11,3 km/h (2 Bft) 97,14 %
10.12.2017 06:42 -4,1 C 3,3 C 80 % 1010,5 hPa 0,0 l/m 6,3 km/h (2 Bft) SO 144 0 min 0,000 mm 0,0 UV-I 0 W/m -7,0 C -4,1 C 11,3 km/h (2 Bft) 100,00 %
10.12.2017 06:44 -4,1 C 3,9 C 80 % 1010,5 hPa 0,0 l/m 4,9 km/h (1 Bft) S 175 0 min 0,000 mm 0,0 UV-I 0 W/m -7,0 C -4,1 C 11,3 km/h (2 Bft) 98,00 %
10.12.2017 06:46 -4,1 C 3,9 C 79 % 1010,4 hPa 0,0 l/m 3,4 km/h (1 Bft) S 170 0 min 0,000 mm 0,0 UV-I 0 W/m -7,2 C -4,1 C 8,0 km/h (2 Bft) 100,00 %
10.12.2017 06:48 -4,1 C 3,9 C 79 % 1010,4 hPa 0,0 l/m 2,8 km/h (1 Bft) SO 146 0 min 0,000 mm 0,0 UV-I 0 W/m -7,2 C -4,1 C 6,4 km/h (2 Bft) 100,00 %
10.12.2017 06:50 -4,2 C 3,3 C 80 % 1010,4 hPa 0,0 l/m 2,1 km/h (1 Bft) S-SO 155 0 min 0,000 mm 0,0 UV-I 0 W/m -7,1 C -4,2 C 3,2 km/h (1 Bft) 100,00 %
10.12.2017 06:52 -4,3 C 3,3 C 80 % 1010,3 hPa 0,0 l/m 2,0 km/h (1 Bft) S-SO 155 0 min 0,000 mm 0,0 UV-I 0 W/m -7,2 C -4,3 C 3,2 km/h (1 Bft) 100,00 %
10.12.2017 06:54 -4,3 C 3,9 C 80 % 1010,3 hPa 0,0 l/m 4,2 km/h (1 Bft) S-SO 148 0 min 0,000 mm 0,0 UV-I 0 W/m -7,2 C -4,3 C 9,7 km/h (2 Bft) 100,00 %
10.12.2017 06:56 -4,3 C 3,3 C 80 % 1010,3 hPa 0,0 l/m 3,3 km/h (1 Bft) S-SO 159 0 min 0,000 mm 0,0 UV-I 0 W/m -7,2 C -4,3 C 6,4 km/h (2 Bft) 98,11 %
10.12.2017 06:58 -4,2 C 3,9 C 79 % 1010,2 hPa 0,0 l/m 5,0 km/h (1 Bft) SO 132 0 min 0,000 mm 0,0 UV-I 0 W/m -7,3 C -4,2 C 11,3 km/h (2 Bft) 100,00 %
10.12.2017 07:00 -4,2 C 3,9 C 79 % 1010,1 hPa 0,0 l/m 7,3 km/h (2 Bft) S-SO 165 0 min 0,000 mm 0,0 UV-I 0 W/m -7,3 C -5,3 C 12,9 km/h (3 Bft) 100,00 %
10.12.2017 07:02 -4,2 C 3,3 C 79 % 1010,2 hPa 0,0 l/m 5,8 km/h (2 Bft) SO 141 0 min 0,000 mm 0,0 UV-I 0 W/m -7,3 C -4,2 C 11,3 km/h (2 Bft) 100,00 %
10.12.2017 07:04 -4,2 C 3,3 C 79 % 1010,1 hPa 0,0 l/m 3,9 km/h (1 Bft) S-SO 150 0 min 0,000 mm 0,0 UV-I 0 W/m -7,3 C -4,2 C 6,4 km/h (2 Bft) 96,15 %
10.12.2017 07:06 -4,2 C 3,9 C 79 % 1010,0 hPa 0,0 l/m 4,7 km/h (1 Bft) O-SO 123 0 min 0,000 mm 0,0 UV-I 0 W/m -7,3 C -4,2 C 11,3 km/h (2 Bft) 100,00 %
10.12.2017 07:08 -4,3 C 3,3 C 79 % 1010,0 hPa 0,0 l/m 4,6 km/h (1 Bft) SO 143 0 min 0,000 mm 0,0 UV-I 0 W/m -7,4 C -4,3 C 11,3 km/h (2 Bft) 100,00 %
10.12.2017 07:10 -4,3 C 3,3 C 79 % 1010,0 hPa 0,0 l/m 4,1 km/h (1 Bft) S-SO 153 0 min 0,000 mm 0,0 UV-I 0 W/m -7,4 C -4,3 C 8,0 km/h (2 Bft) 96,43 %
10.12.2017 07:12 -4,3 C 3,3 C 79 % 1009,9 hPa 0,0 l/m 4,3 km/h (1 Bft) S-SO 150 0 min 0,000 mm 0,0 UV-I 0 W/m -7,4 C -4,3 C 8,0 km/h (2 Bft) 98,21 %
10.12.2017 07:14 -4,4 C 3,3 C 79 % 1009,9 hPa 0,0 l/m 3,8 km/h (1 Bft) SO 136 0 min 0,000 mm 0,0 UV-I 0 W/m -7,5 C -4,4 C 11,3 km/h (2 Bft) 97,14 %
10.12.2017 07:16 -4,4 C 3,3 C 79 % 1009,9 hPa 0,0 l/m 3,4 km/h (1 Bft) S-SO 148 0 min 0,000 mm 0,0 UV-I 0 W/m -7,5 C -4,4 C 8,0 km/h (2 Bft) 98,11 %
10.12.2017 07:18 -4,4 C 3,9 C 80 % 1009,9 hPa 0,0 l/m 1,7 km/h (1 Bft) SO 145 0 min 0,000 mm 0,0 UV-I 0 W/m -7,3 C -4,4 C 4,8 km/h (1 Bft) 97,87 %
10.12.2017 07:20 -4,5 C 3,9 C 80 % 1010,0 hPa 0,0 l/m 0,7 km/h (0 Bft) SO 145 0 min 0,000 mm 0,0 UV-I 0 W/m -7,4 C -4,5 C 3,2 km/h (1 Bft) 98,11 %
10.12.2017 07:22 -4,6 C 3,9 C 80 % 1009,9 hPa 0,0 l/m 0,1 km/h (0 Bft) SO 145 0 min 0,000 mm 0,0 UV-I 0 W/m -7,5 C -4,6 C 1,6 km/h (1 Bft) 97,44 %
10.12.2017 07:24 -4,7 C 3,9 C 80 % 1010,0 hPa 0,0 l/m 0,4 km/h (0 Bft) SO 145 0 min 0,000 mm 0,0 UV-I 0 W/m -7,6 C -4,7 C 1,6 km/h (1 Bft) 92,73 %
10.12.2017 07:26 -4,8 C 3,9 C 81 % 1009,9 hPa 0,0 l/m 0,9 km/h (0 Bft) SO 145 0 min 0,000 mm 0,0 UV-I 0 W/m -7,5 C -4,8 C 1,6 km/h (1 Bft) 97,62 %
10.12.2017 07:28 -4,9 C 3,9 C 82 % 1009,8 hPa 0,0 l/m 0,1 km/h (0 Bft) SO 146 0 min 0,000 mm 0,0 UV-I 5 W/m -7,5 C -4,9 C 1,6 km/h (1 Bft) 98,08 %
10.12.2017 07:30 -4,9 C 3,9 C 82 % 1009,8 hPa 0,0 l/m 0,8 km/h (0 Bft) SO 145 0 min 0,000 mm 0,0 UV-I 5 W/m -7,5 C -4,9 C 3,2 km/h (1 Bft) 95,24 %
10.12.2017 07:32 -4,9 C 3,9 C 82 % 1009,8 hPa 0,0 l/m 1,5 km/h (1 Bft) SO 146 0 min 0,000 mm 0,0 UV-I 5 W/m -7,5 C -4,9 C 3,2 km/h (1 Bft) 92,00 %
10.12.2017 07:34 -4,9 C 3,3 C 82 % 1009,6 hPa 0,0 l/m 0,9 km/h (0 Bft) SO 146 0 min 0,000 mm 0,0 UV-I 5 W/m -7,5 C -4,9 C 3,2 km/h (1 Bft) 97,56 %
10.12.2017 07:36 -4,8 C 3,3 C 81 % 1009,7 hPa 0,0 l/m 2,7 km/h (1 Bft) SO 134 0 min 0,000 mm 0,0 UV-I 5 W/m -7,5 C -4,8 C 4,8 km/h (1 Bft) 98,21 %
10.12.2017 07:38 -4,8 C 3,3 C 81 % 1009,6 hPa 0,0 l/m 2,7 km/h (1 Bft) SO 142 0 min 0,000 mm 0,0 UV-I 7 W/m -7,5 C -4,8 C 4,8 km/h (1 Bft) 96,15 %
10.12.2017 07:40 -4,8 C 3,9 C 80 % 1009,5 hPa 0,0 l/m 2,0 km/h (1 Bft) SO 142 0 min 0,000 mm 0,0 UV-I 7 W/m -7,7 C -4,8 C 4,8 km/h (1 Bft) 95,38 %
10.12.2017 07:42 -4,8 C 3,9 C 81 % 1009,4 hPa 0,0 l/m 1,8 km/h (1 Bft) SO 142 0 min 0,000 mm 0,0 UV-I 7 W/m -7,5 C -4,8 C 4,8 km/h (1 Bft) 96,00 %
10.12.2017 07:44 -4,9 C 3,9 C 81 % 1009,4 hPa 0,0 l/m 1,4 km/h (1 Bft) SO 142 0 min 0,000 mm 0,0 UV-I 8 W/m -7,6 C -4,9 C 4,8 km/h (1 Bft) 97,37 %
10.12.2017 07:46 -4,9 C 3,3 C 81 % 1009,4 hPa 0,0 l/m 2,3 km/h (1 Bft) S-SO 147 0 min 0,000 mm 0,0 UV-I 9 W/m -7,6 C -4,9 C 4,8 km/h (1 Bft) 98,11 %
10.12.2017 07:48 -4,8 C 3,9 C 81 % 1009,4 hPa 0,0 l/m 2,5 km/h (1 Bft) S-SO 153 0 min 0,000 mm 0,0 UV-I 9 W/m -7,5 C -4,8 C 4,8 km/h (1 Bft) 97,56 %
10.12.2017 07:50 -4,8 C 3,9 C 80 % 1009,3 hPa 0,0 l/m 2,8 km/h (1 Bft) SO 136 0 min 0,000 mm 0,0 UV-I 9 W/m -7,7 C -4,8 C 4,8 km/h (1 Bft) 96,00 %
10.12.2017 07:52 -4,7 C 3,9 C 80 % 1009,3 hPa 0,0 l/m 2,8 km/h (1 Bft) SO 131 0 min 0,000 mm 0,0 UV-I 11 W/m -7,6 C -4,7 C 4,8 km/h (1 Bft) 100,00 %
10.12.2017 07:54 -4,7 C 3,3 C 79 % 1009,3 hPa 0,0 l/m 0,9 km/h (0 Bft) SO 131 0 min 0,000 mm 0,0 UV-I 11 W/m -7,8 C -4,7 C 3,2 km/h (1 Bft) 97,87 %
10.12.2017 07:56 -4,9 C 3,9 C 80 % 1009,3 hPa 0,0 l/m 0,7 km/h (0 Bft) SO 131 2 min 0,000 mm 0,0 UV-I 11 W/m -7,8 C -4,9 C 1,6 km/h (1 Bft) 97,56 %
10.12.2017 07:58 -5,1 C 3,9 C 81 % 1009,2 hPa 0,0 l/m 0,5 km/h (0 Bft) SO 131 2 min 0,000 mm 0,0 UV-I 12 W/m -7,8 C -5,1 C 1,6 km/h (1 Bft) 98,00 %
10.12.2017 08:00 -5,1 C 3,9 C 82 % 1009,2 hPa 0,0 l/m 0,0 km/h (0 Bft) SO 131 0 min 0,000 mm 0,0 UV-I 14 W/m -7,7 C -5,1 C 1,6 km/h (1 Bft) 97,87 %
10.12.2017 08:03 -5,2 C 3,9 C 82 % 1009,1 hPa 0,0 l/m 0,1 km/h (0 Bft) SO 131 0 min 0,000 mm 0,0 UV-I 14 W/m -7,8 C -5,2 C 1,6 km/h (1 Bft) 100,00 %
10.12.2017 08:04 -5,2 C 3,9 C 82 % 1009,1 hPa 0,0 l/m 0,1 km/h (0 Bft) SO 131 0 min 0,000 mm 0,0 UV-I 14 W/m -7,8 C -5,2 C 1,6 km/h (1 Bft) 100,00 %
10.12.2017 08:06 -5,3 C 3,9 C 82 % 1009,1 hPa 0,0 l/m 0,5 km/h (0 Bft) SO 131 0 min 0,000 mm 0,0 UV-I 15 W/m -7,9 C -5,3 C 1,6 km/h (1 Bft) 94,00 %
10.12.2017 08:08 -5,3 C 3,9 C 82 % 1009,1 hPa 0,0 l/m 2,2 km/h (1 Bft) SO 131 0 min 0,000 mm 0,0 UV-I 16 W/m -7,9 C -5,3 C 4,8 km/h (1 Bft) 97,87 %
10.12.2017 08:10 -5,2 C 3,9 C 82 % 1009,0 hPa 0,0 l/m 1,5 km/h (1 Bft) SO 131 0 min 0,000 mm 0,0 UV-I 16 W/m -7,8 C -5,2 C 3,2 km/h (1 Bft) 97,78 %
10.12.2017 08:12 -5,2 C 3,9 C 82 % 1009,0 hPa 0,0 l/m 0,0 km/h (0 Bft) SO 131 0 min 0,000 mm 0,0 UV-I 18 W/m -7,8 C -5,2 C 1,6 km/h (1 Bft) 96,00 %
10.12.2017 08:14 -5,2 C 3,9 C 82 % 1008,9 hPa 0,0 l/m 1,2 km/h (1 Bft) SO 131 0 min 0,000 mm 0,0 UV-I 19 W/m -7,8 C -5,2 C 3,2 km/h (1 Bft) 100,00 %
10.12.2017 08:16 -5,2 C 3,9 C 82 % 1008,9 hPa 0,0 l/m 1,3 km/h (1 Bft) SO 131 0 min 0,000 mm 0,0 UV-I 20 W/m -7,8 C -5,2 C 3,2 km/h (1 Bft) 98,11 %
10.12.2017 08:18 -5,2 C 3,3 C 81 % 1008,8 hPa 0,0 l/m 0,9 km/h (0 Bft) SO 131 0 min 0,000 mm 0,0 UV-I 27 W/m -7,9 C -5,2 C 3,2 km/h (1 Bft) 94,74 %
10.12.2017 08:20 -5,2 C 3,3 C 82 % 1008,8 hPa 0,0 l/m 0,3 km/h (0 Bft) SO 131 0 min 0,000 mm 0,0 UV-I 27 W/m -7,8 C -5,2 C 1,6 km/h (1 Bft) 100,00 %
10.12.2017 08:22 -5,3 C 3,3 C 82 % 1008,9 hPa 0,0 l/m 0,0 km/h (0 Bft) SO 131 0 min 0,000 mm 0,0 UV-I 27 W/m -7,9 C -5,3 C 0,0 km/h (0 Bft) 100,00 %
10.12.2017 08:24 -5,3 C 3,3 C 83 % 1008,9 hPa 0,0 l/m 0,0 km/h (0 Bft) SO 131 2 min 0,000 mm 0,0 UV-I 53 W/m -7,7 C -5,3 C 0,0 km/h (0 Bft) 100,00 %
10.12.2017 08:26 -5,4 C 3,3 C 84 % 1008,9 hPa 0,0 l/m 0,0 km/h (0 Bft) SO 131 2 min 0,000 mm 0,0 UV-I 86 W/m -7,7 C -5,4 C 0,0 km/h (0 Bft) 100,00 %
10.12.2017 08:28 -5,3 C 3,9 C 84 % 1008,8 hPa 0,0 l/m 0,0 km/h (0 Bft) SO 131 2 min 0,000 mm 0,0 UV-I 91 W/m -7,6 C -5,3 C 0,0 km/h (0 Bft) 100,00 %
10.12.2017 08:30 -5,2 C 3,9 C 83 % 1008,8 hPa 0,0 l/m 0,0 km/h (0 Bft) SO 131 2 min 0,000 mm 0,0 UV-I 95 W/m -7,6 C -5,2 C 0,0 km/h (0 Bft) 100,00 %
10.12.2017 08:32 -5,1 C 3,9 C 83 % 1008,8 hPa 0,0 l/m 0,1 km/h (0 Bft) SO 131 2 min 0,000 mm 0,0 UV-I 99 W/m -7,5 C -5,1 C 1,6 km/h (1 Bft) 100,00 %
10.12.2017 08:34 -5,0 C 3,3 C 82 % 1008,8 hPa 0,0 l/m 1,9 km/h (1 Bft) SO 131 2 min 0,000 mm 0,0 UV-I 104 W/m -7,6 C -5,0 C 3,2 km/h (1 Bft) 98,00 %
10.12.2017 08:36 -4,9 C 3,3 C 82 % 1008,8 hPa 0,0 l/m 1,4 km/h (1 Bft) SO 131 2 min 0,000 mm 0,0 UV-I 109 W/m -7,5 C -4,9 C 3,2 km/h (1 Bft) 100,00 %
10.12.2017 08:38 -4,8 C 3,3 C 81 % 1008,7 hPa 0,0 l/m 1,2 km/h (1 Bft) SO 131 2 min 0,000 mm 0,0 UV-I 114 W/m -7,5 C -4,8 C 3,2 km/h (1 Bft) 100,00 %
10.12.2017 08:40 -4,8 C 3,9 C 81 % 1008,6 hPa 0,0 l/m 0,0 km/h (0 Bft) SO 131 2 min 0,000 mm 0,0 UV-I 117 W/m -7,5 C -4,8 C 1,6 km/h (1 Bft) 100,00 %
10.12.2017 08:42 -4,7 C 3,9 C 81 % 1008,5 hPa 0,0 l/m 0,0 km/h (0 Bft) SO 131 2 min 0,000 mm 0,0 UV-I 120 W/m -7,4 C -4,7 C 0,0 km/h (0 Bft) 100,00 %
10.12.2017 08:44 -4,7 C 3,9 C 81 % 1008,4 hPa 0,0 l/m 1,0 km/h (0 Bft) SO 131 2 min 0,000 mm 0,0 UV-I 124 W/m -7,4 C -4,7 C 3,2 km/h (1 Bft) 100,00 %
10.12.2017 08:46 -4,5 C 3,9 C 80 % 1008,3 hPa 0,0 l/m 1,9 km/h (1 Bft) SO 131 2 min 0,000 mm 0,0 UV-I 128 W/m -7,4 C -4,5 C 4,8 km/h (1 Bft) 100,00 %
10.12.2017 08:48 -4,3 C 3,9 C 82 % 1008,3 hPa 0,0 l/m 0,0 km/h (0 Bft) SO 131 2 min 0,000 mm 0,0 UV-I 132 W/m -6,9 C -4,3 C 0,0 km/h (0 Bft) 100,00 %
10.12.2017 08:50 -4,3 C 3,9 C 82 % 1008,3 hPa 0,0 l/m 0,7 km/h (0 Bft) SO 131 2 min 0,000 mm 0,0 UV-I 131 W/m -6,9 C -4,3 C 3,2 km/h (1 Bft) 100,00 %
10.12.2017 08:52 -4,3 C 3,3 C 83 % 1008,2 hPa 0,0 l/m 0,6 km/h (0 Bft) O 81 2 min 0,000 mm 0,0 UV-I 122 W/m -6,7 C -4,3 C 3,2 km/h (1 Bft) 100,00 %
10.12.2017 08:54 -4,3 C 3,3 C 83 % 1008,2 hPa 0,0 l/m 1,4 km/h (1 Bft) O 81 2 min 0,000 mm 0,0 UV-I 137 W/m -6,7 C -4,3 C 3,2 km/h (1 Bft) 97,87 %
10.12.2017 08:56 -4,2 C 3,3 C 83 % 1008,1 hPa 0,0 l/m 2,8 km/h (1 Bft) O 81 2 min 0,000 mm 0,0 UV-I 144 W/m -6,6 C -4,2 C 4,8 km/h (1 Bft) 97,87 %
10.12.2017 08:58 -4,2 C 3,3 C 82 % 1008,1 hPa 0,0 l/m 4,5 km/h (1 Bft) O-NO 75 2 min 0,000 mm 0,0 UV-I 134 W/m -6,8 C -4,2 C 6,4 km/h (2 Bft) 100,00 %
10.12.2017 09:00 -4,1 C 3,9 C 82 % 1007,9 hPa 0,0 l/m 2,8 km/h (1 Bft) O-NO 75 2 min 0,026 mm 0,0 UV-I 155 W/m -6,7 C -4,1 C 6,4 km/h (2 Bft) 100,00 %
10.12.2017 09:03 -4,1 C 3,9 C 81 % 1007,8 hPa 0,0 l/m 3,2 km/h (1 Bft) O 93 3 min 0,000 mm 0,0 UV-I 160 W/m -6,9 C -4,1 C 6,4 km/h (2 Bft) 98,63 %
10.12.2017 09:04 -4,0 C 3,9 C 79 % 1007,7 hPa 0,0 l/m 4,4 km/h (1 Bft) O 94 1 min 0,000 mm 0,0 UV-I 163 W/m -7,1 C -4,0 C 4,8 km/h (1 Bft) 100,00 %
10.12.2017 09:06 -3,9 C 3,9 C 79 % 1007,7 hPa 0,0 l/m 1,8 km/h (1 Bft) O 94 2 min 0,000 mm 0,0 UV-I 159 W/m -7,0 C -3,9 C 3,2 km/h (1 Bft) 94,29 %
10.12.2017 09:08 -3,8 C 3,9 C 78 % 1007,7 hPa 0,0 l/m 5,6 km/h (1 Bft) O-SO 119 2 min 0,000 mm 0,0 UV-I 162 W/m -7,1 C -3,8 C 11,3 km/h (2 Bft) 94,74 %
10.12.2017 09:10 -3,8 C 3,9 C 78 % 1007,6 hPa 0,0 l/m 4,7 km/h (1 Bft) SO 135 2 min 0,000 mm 0,0 UV-I 169 W/m -7,1 C -3,8 C 6,4 km/h (2 Bft) 98,46 %
10.12.2017 09:12 -3,8 C 3,3 C 78 % 1007,5 hPa 0,0 l/m 3,8 km/h (1 Bft) O-SO 113 2 min 0,000 mm 0,0 UV-I 181 W/m -7,1 C -3,8 C 9,7 km/h (2 Bft) 97,87 %
10.12.2017 09:14 -3,7 C 3,9 C 78 % 1007,3 hPa 0,0 l/m 6,5 km/h (2 Bft) SO 130 2 min 0,000 mm 0,0 UV-I 186 W/m -7,0 C -3,8 C 11,3 km/h (2 Bft) 97,56 %
10.12.2017 09:16 -3,7 C 3,3 C 78 % 1007,2 hPa 0,0 l/m 4,4 km/h (1 Bft) SO 141 2 min 0,000 mm 0,0 UV-I 192 W/m -7,0 C -3,7 C 9,7 km/h (2 Bft) 95,74 %
10.12.2017 09:18 -3,6 C 3,3 C 78 % 1007,1 hPa 0,0 l/m 5,8 km/h (2 Bft) SO 137 2 min 0,000 mm 0,0 UV-I 196 W/m -6,9 C -3,6 C 9,7 km/h (2 Bft) 95,74 %
10.12.2017 09:20 -3,6 C 3,9 C 77 % 1007,1 hPa 0,0 l/m 5,8 km/h (2 Bft) O-SO 121 2 min 0,000 mm 0,0 UV-I 200 W/m -7,0 C -3,6 C 12,9 km/h (3 Bft) 98,11 %
10.12.2017 09:22 -3,5 C 3,9 C 78 % 1006,9 hPa 0,0 l/m 5,3 km/h (1 Bft) O-SO 110 2 min 0,000 mm 0,0 UV-I 201 W/m -6,8 C -3,5 C 9,7 km/h (2 Bft) 94,74 %
10.12.2017 09:24 -3,4 C 3,9 C 77 % 1006,9 hPa 0,0 l/m 6,9 km/h (2 Bft) O-SO 117 2 min 0,000 mm 0,0 UV-I 203 W/m -6,8 C -4,0 C 11,3 km/h (2 Bft) 100,00 %
10.12.2017 09:26 -3,3 C 3,3 C 77 % 1006,8 hPa 0,0 l/m 7,0 km/h (2 Bft) O-SO 109 2 min 0,000 mm 0,0 UV-I 206 W/m -6,7 C -4,0 C 12,9 km/h (3 Bft) 96,00 %
10.12.2017 09:28 -3,3 C 3,9 C 76 % 1006,7 hPa 0,0 l/m 9,6 km/h (2 Bft) SO 135 2 min 0,000 mm 0,0 UV-I 204 W/m -6,9 C -6,7 C 16,1 km/h (3 Bft) 100,00 %
10.12.2017 09:30 -3,3 C 3,9 C 76 % 1006,6 hPa 0,0 l/m 8,9 km/h (2 Bft) O 100 2 min 0,000 mm 0,0 UV-I 213 W/m -6,9 C -6,0 C 14,5 km/h (3 Bft) 100,00 %
10.12.2017 09:32 -3,3 C 3,9 C 76 % 1006,5 hPa 0,0 l/m 9,3 km/h (2 Bft) SO 136 2 min 0,000 mm 0,0 UV-I 215 W/m -6,9 C -6,4 C 12,9 km/h (3 Bft) 100,00 %
10.12.2017 09:34 -3,2 C 3,9 C 76 % 1006,5 hPa 0,0 l/m 7,7 km/h (2 Bft) O-SO 114 2 min 0,000 mm 0,0 UV-I 216 W/m -6,8 C -4,7 C 11,3 km/h (2 Bft) 100,00 %
10.12.2017 09:36 -3,2 C 3,3 C 76 % 1006,4 hPa 0,0 l/m 7,0 km/h (2 Bft) O-SO 107 2 min 0,000 mm 0,0 UV-I 229 W/m -6,8 C -3,9 C 11,3 km/h (2 Bft) 100,00 %
10.12.2017 09:38 -3,2 C 3,3 C 75 % 1006,4 hPa 0,0 l/m 11,1 km/h (2 Bft) O 93 2 min 0,000 mm 0,0 UV-I 230 W/m -7,0 C -7,9 C 16,1 km/h (3 Bft) 100,00 %
10.12.2017 09:40 -3,1 C 3,3 C 75 % 1006,3 hPa 0,0 l/m 11,7 km/h (2 Bft) O-SO 115 2 min 0,000 mm 0,0 UV-I 228 W/m -6,9 C -8,3 C 14,5 km/h (3 Bft) 98,46 %
10.12.2017 09:42 -3,1 C 3,9 C 75 % 1006,2 hPa 0,0 l/m 15,7 km/h (3 Bft) O-NO 76 2 min 0,000 mm 0,0 UV-I 236 W/m -6,9 C -11,2 C 19,3 km/h (3 Bft) 100,00 %
10.12.2017 09:44 -3,1 C 3,9 C 75 % 1006,1 hPa 0,0 l/m 12,4 km/h (3 Bft) O 87 2 min 0,000 mm 0,0 UV-I 219 W/m -6,9 C -8,9 C 16,1 km/h (3 Bft) 98,46 %
10.12.2017 09:46 -3,1 C 3,9 C 75 % 1006,1 hPa 0,0 l/m 10,4 km/h (2 Bft) O 91 2 min 0,000 mm 0,0 UV-I 150 W/m -6,9 C -7,2 C 16,1 km/h (3 Bft) 100,00 %
10.12.2017 09:48 -3,1 C 3,3 C 75 % 1006,0 hPa 0,0 l/m 10,5 km/h (2 Bft) O-SO 120 2 min 0,000 mm 0,0 UV-I 238 W/m -6,9 C -7,3 C 14,5 km/h (3 Bft) 100,00 %
10.12.2017 09:50 -3,0 C 3,9 C 75 % 1005,9 hPa 0,0 l/m 9,2 km/h (2 Bft) O-SO 104 2 min 0,000 mm 0,0 UV-I 262 W/m -6,8 C -6,0 C 14,5 km/h (3 Bft) 97,73 %
10.12.2017 09:52 -2,9 C 3,3 C 74 % 1005,7 hPa 0,0 l/m 9,9 km/h (2 Bft) O-SO 107 2 min 0,000 mm 0,0 UV-I 277 W/m -6,9 C -6,6 C 14,5 km/h (3 Bft) 98,11 %
10.12.2017 09:54 -2,9 C 3,3 C 75 % 1005,6 hPa 0,0 l/m 8,6 km/h (2 Bft) O 92 2 min 0,000 mm 0,0 UV-I 288 W/m -6,7 C -5,3 C 14,5 km/h (3 Bft) 100,00 %
10.12.2017 09:56 -2,8 C 3,3 C 75 % 1005,6 hPa 0,0 l/m 11,2 km/h (2 Bft) O-SO 121 2 min 0,000 mm 0,0 UV-I 297 W/m -6,6 C -7,6 C 16,1 km/h (3 Bft) 100,00 %
10.12.2017 09:58 -2,8 C 3,3 C 75 % 1005,4 hPa 0,0 l/m 8,3 km/h (2 Bft) O-NO 72 2 min 0,000 mm 0,0 UV-I 279 W/m -6,6 C -4,9 C 12,9 km/h (3 Bft) 97,87 %
10.12.2017 10:00 -2,7 C 3,9 C 75 % 1005,5 hPa 0,0 l/m 11,4 km/h (2 Bft) O-SO 115 2 min 0,076 mm 0,0 UV-I 285 W/m -6,5 C -7,6 C 19,3 km/h (3 Bft) 98,00 %
10.12.2017 10:02 -2,7 C 3,3 C 74 % 1005,3 hPa 0,0 l/m 10,4 km/h (2 Bft) O-SO 107 2 min 0,000 mm 0,0 UV-I 233 W/m -6,7 C -6,8 C 16,1 km/h (3 Bft) 97,22 %
10.12.2017 10:04 -2,7 C 3,3 C 76 % 1005,2 hPa 0,0 l/m 8,2 km/h (2 Bft) O-NO 74 2 min 0,000 mm 0,0 UV-I 226 W/m -6,3 C -4,7 C 14,5 km/h (3 Bft) 96,15 %
10.12.2017 10:06 -2,7 C 3,3 C 75 % 1005,2 hPa 0,0 l/m 11,4 km/h (2 Bft) O 83 2 min 0,000 mm 0,0 UV-I 226 W/m -6,5 C -7,6 C 16,1 km/h (3 Bft) 100,00 %
10.12.2017 10:08 -2,7 C 3,9 C 74 % 1005,2 hPa 0,0 l/m 8,1 km/h (2 Bft) O 100 2 min 0,000 mm 0,0 UV-I 227 W/m -6,7 C -4,6 C 12,9 km/h (3 Bft) 100,00 %
10.12.2017 10:10 -2,7 C 3,3 C 76 % 1005,0 hPa 0,0 l/m 9,2 km/h (2 Bft) O-SO 110 2 min 0,000 mm 0,0 UV-I 185 W/m -6,3 C -5,7 C 12,9 km/h (3 Bft) 100,00 %
10.12.2017 10:12 -2,7 C 3,9 C 75 % 1005,0 hPa 0,0 l/m 9,6 km/h (2 Bft) O-NO 67 2 min 0,000 mm 0,0 UV-I 167 W/m -6,5 C -6,1 C 14,5 km/h (3 Bft) 100,00 %
10.12.2017 10:14 -2,7 C 3,9 C 75 % 1005,0 hPa 0,0 l/m 9,5 km/h (2 Bft) O-NO 71 2 min 0,000 mm 0,0 UV-I 179 W/m -6,5 C -6,0 C 14,5 km/h (3 Bft) 100,00 %
10.12.2017 10:16 -2,7 C 3,9 C 75 % 1005,0 hPa 0,0 l/m 6,9 km/h (2 Bft) O-NO 72 2 min 0,000 mm 0,0 UV-I 172 W/m -6,5 C -3,3 C 8,0 km/h (2 Bft) 97,37 %
10.12.2017 10:18 -2,7 C 3,9 C 76 % 1004,9 hPa 0,0 l/m 6,4 km/h (2 Bft) O-NO 63 2 min 0,000 mm 0,0 UV-I 215 W/m -6,3 C -2,7 C 12,9 km/h (3 Bft) 100,00 %
10.12.2017 10:20 -2,6 C 3,9 C 76 % 1004,9 hPa 0,0 l/m 7,0 km/h (2 Bft) O-NO 57 2 min 0,000 mm 0,0 UV-I 251 W/m -6,2 C -3,3 C 11,3 km/h (2 Bft) 100,00 %
10.12.2017 10:22 -2,6 C 3,9 C 75 % 1004,9 hPa 0,0 l/m 6,2 km/h (2 Bft) O 94 2 min 0,000 mm 0,2 UV-I 261 W/m -6,4 C -2,6 C 9,7 km/h (2 Bft) 96,00 %
10.12.2017 10:24 -2,4 C 3,9 C 75 % 1004,9 hPa 0,0 l/m 6,0 km/h (2 Bft) O-NO 64 2 min 0,000 mm 0,5 UV-I 286 W/m -6,2 C -2,4 C 8,0 km/h (2 Bft) 91,49 %
10.12.2017 10:26 -2,4 C 3,9 C 75 % 1004,6 hPa 0,0 l/m 6,9 km/h (2 Bft) O-NO 59 2 min 0,000 mm 0,5 UV-I 292 W/m -6,2 C -2,9 C 11,3 km/h (2 Bft) 98,00 %
10.12.2017 10:28 -2,3 C 3,9 C 75 % 1004,5 hPa 0,0 l/m 8,5 km/h (2 Bft) O-NO 63 2 min 0,000 mm 0,5 UV-I 301 W/m -6,1 C -4,6 C 14,5 km/h (3 Bft) 97,37 %
10.12.2017 10:30 -2,3 C 3,9 C 75 % 1004,5 hPa 0,0 l/m 11,1 km/h (2 Bft) O 84 2 min 0,000 mm 0,5 UV-I 304 W/m -6,1 C -6,9 C 16,1 km/h (3 Bft) 98,00 %
10.12.2017 10:32 -2,3 C 3,9 C 75 % 1004,4 hPa 0,0 l/m 10,5 km/h (2 Bft) O-NO 62 2 min 0,000 mm 0,5 UV-I 306 W/m -6,1 C -6,4 C 14,5 km/h (3 Bft) 97,56 %
10.12.2017 10:34 -2,3 C 3,9 C 75 % 1004,3 hPa 0,0 l/m 9,4 km/h (2 Bft) O-NO 67 2 min 0,000 mm 0,5 UV-I 310 W/m -6,1 C -5,4 C 14,5 km/h (3 Bft) 96,00 %
10.12.2017 10:36 -2,2 C 3,9 C 75 % 1004,4 hPa 0,0 l/m 7,9 km/h (2 Bft) O 79 2 min 0,000 mm 0,5 UV-I 310 W/m -6,0 C -3,9 C 12,9 km/h (3 Bft) 97,73 %
10.12.2017 10:38 -2,2 C 3,9 C 75 % 1004,3 hPa 0,0 l/m 8,5 km/h (2 Bft) NO 55 2 min 0,000 mm 0,5 UV-I 310 W/m -6,0 C -4,5 C 14,5 km/h (3 Bft) 96,61 %
10.12.2017 10:40 -2,1 C 3,9 C 75 % 1004,2 hPa 0,0 l/m 8,7 km/h (2 Bft) O-NO 67 2 min 0,000 mm 0,5 UV-I 322 W/m -5,9 C -4,6 C 14,5 km/h (3 Bft) 97,44 %
10.12.2017 10:42 -2,0 C 3,9 C 75 % 1004,2 hPa 0,0 l/m 9,5 km/h (2 Bft) O-NO 63 2 min 0,000 mm 0,5 UV-I 335 W/m -5,8 C -5,2 C 14,5 km/h (3 Bft) 98,00 %
10.12.2017 10:44 -1,9 C 3,9 C 75 % 1004,0 hPa 0,0 l/m 9,6 km/h (2 Bft) NO 55 2 min 0,000 mm 0,5 UV-I 326 W/m -5,7 C -5,2 C 16,1 km/h (3 Bft) 100,00 %
10.12.2017 10:46 -1,9 C 3,9 C 75 % 1004,0 hPa 0,0 l/m 9,5 km/h (2 Bft) O-NO 71 2 min 0,000 mm 0,5 UV-I 307 W/m -5,7 C -5,1 C 14,5 km/h (3 Bft) 97,62 %
10.12.2017 10:48 -1,9 C 3,9 C 75 % 1003,7 hPa 0,0 l/m 10,2 km/h (2 Bft) N-NO 30 2 min 0,000 mm 0,5 UV-I 263 W/m -5,7 C -5,7 C 16,1 km/h (3 Bft) 98,18 %
10.12.2017 10:50 -1,8 C 3,9 C 75 % 1003,7 hPa 0,0 l/m 10,4 km/h (2 Bft) O-NO 63 2 min 0,000 mm 0,5 UV-I 266 W/m -5,6 C -5,8 C 16,1 km/h (3 Bft) 100,00 %
10.12.2017 10:52 -1,8 C 3,9 C 75 % 1003,6 hPa 0,0 l/m 14,6 km/h (3 Bft) O-NO 63 2 min 0,000 mm 0,5 UV-I 290 W/m -5,6 C -8,9 C 19,3 km/h (3 Bft) 100,00 %
10.12.2017 10:54 -1,8 C 3,9 C 75 % 1003,4 hPa 0,0 l/m 14,7 km/h (3 Bft) NO 46 2 min 0,000 mm 0,6 UV-I 313 W/m -5,6 C -9,0 C 20,9 km/h (4 Bft) 100,00 %
10.12.2017 10:56 -1,7 C 3,9 C 74 % 1003,3 hPa 0,0 l/m 15,5 km/h (3 Bft) O-NO 57 2 min 0,000 mm 0,6 UV-I 311 W/m -5,7 C -9,4 C 22,5 km/h (4 Bft) 100,00 %
10.12.2017 10:58 -1,6 C 3,9 C 74 % 1003,2 hPa 0,0 l/m 14,7 km/h (3 Bft) O-NO 62 2 min 0,000 mm 0,6 UV-I 305 W/m -5,6 C -8,7 C 20,9 km/h (4 Bft) 97,87 %
10.12.2017 11:00 -1,6 C 3,9 C 74 % 1003,1 hPa 0,0 l/m 15,8 km/h (3 Bft) NO 39 2 min 0,000 mm 0,6 UV-I 305 W/m -5,6 C -9,4 C 19,3 km/h (3 Bft) 97,56 %
10.12.2017 11:02 -1,5 C 3,9 C 74 % 1003,0 hPa 0,0 l/m 15,2 km/h (3 Bft) O 80 2 min 0,101 mm 0,6 UV-I 338 W/m -5,5 C -8,9 C 20,9 km/h (4 Bft) 100,00 %
10.12.2017 11:04 -1,4 C 3,9 C 74 % 1002,9 hPa 0,0 l/m 13,9 km/h (3 Bft) O 84 2 min 0,000 mm 0,6 UV-I 326 W/m -5,4 C -8,0 C 17,7 km/h (3 Bft) 98,04 %
10.12.2017 11:06 -1,3 C 3,9 C 74 % 1002,8 hPa 0,0 l/m 12,9 km/h (3 Bft) NO 40 2 min 0,000 mm 0,6 UV-I 321 W/m -5,3 C -7,2 C 19,3 km/h (3 Bft) 100,00 %
10.12.2017 11:08 -1,3 C 3,9 C 74 % 1002,7 hPa 0,0 l/m 14,6 km/h (3 Bft) NO 44 2 min 0,000 mm 0,6 UV-I 353 W/m -5,3 C -8,3 C 22,5 km/h (4 Bft) 100,00 %
10.12.2017 11:10 -1,3 C 3,9 C 74 % 1002,6 hPa 0,0 l/m 15,8 km/h (3 Bft) NO 54 2 min 0,000 mm 0,6 UV-I 345 W/m -5,3 C -9,0 C 20,9 km/h (4 Bft) 97,87 %
10.12.2017 11:12 -1,2 C 3,9 C 74 % 1002,5 hPa 0,0 l/m 11,6 km/h (2 Bft) NO 53 2 min 0,000 mm 0,6 UV-I 355 W/m -5,2 C -6,1 C 19,3 km/h (3 Bft) 100,00 %
10.12.2017 11:14 -1,2 C 3,9 C 74 % 1002,4 hPa 0,0 l/m 15,3 km/h (3 Bft) O-NO 63 2 min 0,000 mm 0,6 UV-I 307 W/m -5,2 C -8,6 C 20,9 km/h (4 Bft) 100,00 %
10.12.2017 11:16 -1,1 C 3,9 C 74 % 1002,3 hPa 0,0 l/m 12,3 km/h (3 Bft) O-NO 59 2 min 0,000 mm 0,6 UV-I 299 W/m -5,1 C -6,5 C 19,3 km/h (3 Bft) 95,12 %
10.12.2017 11:18 -1,2 C 3,9 C 73 % 1002,2 hPa 0,0 l/m 15,4 km/h (3 Bft) NO 51 2 min 0,000 mm 0,6 UV-I 273 W/m -5,4 C -8,7 C 22,5 km/h (4 Bft) 100,00 %
10.12.2017 11:20 -1,2 C 3,9 C 72 % 1002,0 hPa 0,0 l/m 18,0 km/h (3 Bft) NO 53 2 min 0,000 mm 0,6 UV-I 291 W/m -5,6 C -10,2 C 22,5 km/h (4 Bft) 100,00 %
10.12.2017 11:22 -1,2 C 3,9 C 72 % 1001,8 hPa 0,0 l/m 18,2 km/h (3 Bft) O 83 2 min 0,000 mm 0,6 UV-I 277 W/m -5,6 C -10,3 C 22,5 km/h (4 Bft) 100,00 %
10.12.2017 11:24 -1,3 C 3,9 C 72 % 1001,7 hPa 0,0 l/m 17,6 km/h (3 Bft) O-NO 68 2 min 0,000 mm 0,6 UV-I 294 W/m -5,7 C -10,1 C 24,1 km/h (4 Bft) 97,37 %
10.12.2017 11:26 -1,2 C 3,9 C 73 % 1001,6 hPa 0,0 l/m 18,7 km/h (3 Bft) O-NO 63 2 min 0,000 mm 0,6 UV-I 345 W/m -5,4 C -10,5 C 25,7 km/h (4 Bft) 100,00 %
10.12.2017 11:28 -1,2 C 3,9 C 73 % 1001,5 hPa 0,0 l/m 16,9 km/h (3 Bft) O 80 2 min 0,000 mm 0,6 UV-I 354 W/m -5,4 C -9,6 C 20,9 km/h (4 Bft) 100,00 %
10.12.2017 11:30 -1,1 C 3,9 C 72 % 1001,3 hPa 0,0 l/m 18,6 km/h (3 Bft) O-NO 57 2 min 0,000 mm 0,6 UV-I 349 W/m -5,5 C -10,4 C 22,5 km/h (4 Bft) 100,00 %
10.12.2017 11:32 -1,1 C 3,9 C 71 % 1001,2 hPa 0,0 l/m 19,1 km/h (3 Bft) NO 55 2 min 0,000 mm 0,6 UV-I 338 W/m -5,7 C -10,6 C 22,5 km/h (4 Bft) 98,00 %
10.12.2017 11:34 -1,2 C 3,9 C 72 % 1001,2 hPa 0,0 l/m 19,5 km/h (3 Bft) O-NO 65 2 min 0,000 mm 0,6 UV-I 252 W/m -5,6 C -10,9 C 25,7 km/h (4 Bft) 97,73 %
10.12.2017 11:36 -1,2 C 3,9 C 71 % 1001,2 hPa 0,0 l/m 16,9 km/h (3 Bft) NO 52 2 min 0,000 mm 0,6 UV-I 311 W/m -5,8 C -9,6 C 24,1 km/h (4 Bft) 96,43 %
10.12.2017 11:38 -1,1 C 3,9 C 71 % 1001,3 hPa 0,0 l/m 17,7 km/h (3 Bft) O-NO 57 2 min 0,000 mm 0,6 UV-I 318 W/m -5,7 C -9,9 C 24,1 km/h (4 Bft) 97,37 %
10.12.2017 11:40 -1,1 C 3,9 C 71 % 1001,1 hPa 0,0 l/m 16,9 km/h (3 Bft) NO 56 2 min 0,000 mm 0,6 UV-I 297 W/m -5,7 C -9,4 C 20,9 km/h (4 Bft) 98,11 %
10.12.2017 11:42 -1,1 C 3,9 C 71 % 1001,1 hPa 0,0 l/m 17,9 km/h (3 Bft) NO 49 2 min 0,000 mm 0,6 UV-I 283 W/m -5,7 C -10,0 C 25,7 km/h (4 Bft) 97,37 %
10.12.2017 11:44 -1,1 C 3,9 C 71 % 1001,0 hPa 0,0 l/m 17,4 km/h (3 Bft) O-NO 65 2 min 0,000 mm 0,6 UV-I 267 W/m -5,7 C -9,7 C 22,5 km/h (4 Bft) 98,11 %
10.12.2017 11:46 -1,1 C 3,9 C 70 % 1001,0 hPa 0,0 l/m 16,9 km/h (3 Bft) O-NO 58 2 min 0,000 mm 0,6 UV-I 267 W/m -5,9 C -9,4 C 24,1 km/h (4 Bft) 97,73 %
10.12.2017 11:48 -1,1 C 3,9 C 71 % 1001,0 hPa 0,0 l/m 14,5 km/h (3 Bft) O-NO 59 2 min 0,000 mm 0,6 UV-I 296 W/m -5,7 C -8,0 C 20,9 km/h (4 Bft) 98,11 %
10.12.2017 11:50 -1,1 C 3,9 C 72 % 1001,0 hPa 0,0 l/m 17,4 km/h (3 Bft) O-NO 71 2 min 0,000 mm 0,6 UV-I 280 W/m -5,5 C -9,7 C 22,5 km/h (4 Bft) 95,74 %
10.12.2017 11:52 -1,1 C 3,9 C 71 % 1000,8 hPa 0,0 l/m 17,5 km/h (3 Bft) O 83 2 min 0,000 mm 0,6 UV-I 296 W/m -5,7 C -9,8 C 20,9 km/h (4 Bft) 97,92 %
10.12.2017 11:54 -1,1 C 3,9 C 71 % 1000,6 hPa 0,0 l/m 14,2 km/h (3 Bft) O 82 2 min 0,000 mm 0,6 UV-I 304 W/m -5,7 C -7,8 C 17,7 km/h (3 Bft) 94,74 %
10.12.2017 11:56 -1,0 C 3,9 C 71 % 1000,4 hPa 0,0 l/m 15,6 km/h (3 Bft) O-NO 63 2 min 0,000 mm 0,6 UV-I 327 W/m -5,6 C -8,6 C 22,5 km/h (4 Bft) 98,00 %
10.12.2017 11:58 -0,9 C 3,9 C 71 % 1000,3 hPa 0,0 l/m 17,5 km/h (3 Bft) O-NO 64 2 min 0,000 mm 0,6 UV-I 337 W/m -5,5 C -9,5 C 22,5 km/h (4 Bft) 98,00 %
10.12.2017 12:00 -0,9 C 3,9 C 70 % 1000,2 hPa 0,0 l/m 18,2 km/h (3 Bft) NO 56 2 min 0,000 mm 0,6 UV-I 347 W/m -5,7 C -9,9 C 22,5 km/h (4 Bft) 100,00 %
10.12.2017 12:02 -0,9 C 3,9 C 71 % 1000,1 hPa 0,0 l/m 18,1 km/h (3 Bft) O-NO 66 2 min 0,127 mm 0,6 UV-I 331 W/m -5,5 C -9,8 C 24,1 km/h (4 Bft) 100,00 %
10.12.2017 12:04 -0,8 C 3,9 C 71 % 1000,0 hPa 0,0 l/m 16,8 km/h (3 Bft) NO 51 2 min 0,000 mm 0,6 UV-I 315 W/m -5,4 C -9,0 C 19,3 km/h (3 Bft) 97,62 %
10.12.2017 12:06 -0,8 C 3,9 C 72 % 999,9 hPa 0,0 l/m 15,1 km/h (3 Bft) O-NO 64 2 min 0,000 mm 0,6 UV-I 245 W/m -5,2 C -8,0 C 19,3 km/h (3 Bft) 98,00 %
10.12.2017 12:08 -0,9 C 3,9 C 72 % 999,9 hPa 0,0 l/m 12,2 km/h (2 Bft) NO 47 2 min 0,000 mm 0,5 UV-I 206 W/m -5,3 C -6,2 C 17,7 km/h (3 Bft) 98,00 %
10.12.2017 12:10 -0,9 C 3,9 C 73 % 999,8 hPa 0,0 l/m 13,7 km/h (3 Bft) NO 54 2 min 0,000 mm 0,5 UV-I 212 W/m -5,1 C -7,2 C 20,9 km/h (4 Bft) 98,00 %
10.12.2017 12:12 -0,9 C 3,9 C 73 % 999,7 hPa 0,0 l/m 13,1 km/h (3 Bft) NO 53 2 min 0,000 mm 0,5 UV-I 200 W/m -5,1 C -6,8 C 17,7 km/h (3 Bft) 100,00 %
10.12.2017 12:14 -1,0 C 3,9 C 73 % 999,7 hPa 0,0 l/m 13,9 km/h (3 Bft) O-NO 63 2 min 0,000 mm 0,5 UV-I 188 W/m -5,2 C -7,5 C 20,9 km/h (4 Bft) 97,37 %
10.12.2017 12:16 -1,1 C 3,9 C 73 % 999,6 hPa 0,0 l/m 15,9 km/h (3 Bft) O-NO 74 0 min 0,000 mm 0,2 UV-I 168 W/m -5,3 C -8,9 C 20,9 km/h (4 Bft) 100,00 %
10.12.2017 12:18 -1,1 C 3,9 C 73 % 999,5 hPa 0,0 l/m 18,1 km/h (3 Bft) O-NO 69 0 min 0,000 mm 0,0 UV-I 154 W/m -5,3 C -10,1 C 22,5 km/h (4 Bft) 97,73 %
10.12.2017 12:20 -1,1 C 3,9 C 74 % 999,4 hPa 0,0 l/m 15,9 km/h (3 Bft) N-NO 31 0 min 0,000 mm 0,0 UV-I 144 W/m -5,1 C -8,9 C 22,5 km/h (4 Bft) 100,00 %
10.12.2017 12:22 -1,2 C 3,9 C 74 % 999,3 hPa 0,0 l/m 17,4 km/h (3 Bft) O 81 0 min 0,000 mm 0,0 UV-I 135 W/m -5,2 C -9,8 C 22,5 km/h (4 Bft) 100,00 %
10.12.2017 12:24 -1,2 C 3,9 C 73 % 999,1 hPa 0,0 l/m 16,5 km/h (3 Bft) O-NO 67 0 min 0,000 mm 0,0 UV-I 127 W/m -5,4 C -9,3 C 22,5 km/h (4 Bft) 96,00 %
10.12.2017 12:26 -1,2 C 3,9 C 73 % 999,0 hPa 0,0 l/m 16,0 km/h (3 Bft) O-NO 78 0 min 0,000 mm 0,0 UV-I 124 W/m -5,4 C -9,0 C 19,3 km/h (3 Bft) 98,11 %
10.12.2017 12:28 -1,2 C 3,9 C 74 % 998,8 hPa 0,0 l/m 12,0 km/h (2 Bft) O-NO 73 0 min 0,000 mm 0,0 UV-I 123 W/m -5,2 C -6,4 C 17,7 km/h (3 Bft) 100,00 %
10.12.2017 12:30 -1,2 C 3,9 C 74 % 998,8 hPa 0,0 l/m 15,8 km/h (3 Bft) O-NO 59 0 min 0,000 mm 0,0 UV-I 123 W/m -5,2 C -8,9 C 20,9 km/h (4 Bft) 100,00 %
10.12.2017 12:32 -1,2 C 3,9 C 75 % 998,8 hPa 0,0 l/m 14,2 km/h (3 Bft) O-NO 58 0 min 0,000 mm 0,0 UV-I 124 W/m -5,0 C -7,9 C 19,3 km/h (3 Bft) 100,00 %
10.12.2017 12:34 -1,2 C 3,9 C 74 % 998,7 hPa 0,0 l/m 16,1 km/h (3 Bft) O-NO 71 0 min 0,000 mm 0,0 UV-I 128 W/m -5,2 C -9,1 C 22,5 km/h (4 Bft) 100,00 %
10.12.2017 12:36 -1,1 C 3,9 C 74 % 998,6 hPa 0,0 l/m 19,4 km/h (3 Bft) O-NO 74 0 min 0,000 mm 0,0 UV-I 134 W/m -5,1 C -10,8 C 25,7 km/h (4 Bft) 96,23 %
10.12.2017 12:38 -1,1 C 3,9 C 74 % 998,3 hPa 0,0 l/m 15,6 km/h (3 Bft) O-NO 59 0 min 0,000 mm 0,0 UV-I 138 W/m -5,1 C -8,7 C 22,5 km/h (4 Bft) 98,00 %
10.12.2017 12:40 -1,1 C 3,9 C 74 % 998,2 hPa 0,0 l/m 17,3 km/h (3 Bft) NO 51 0 min 0,000 mm 0,0 UV-I 142 W/m -5,1 C -9,7 C 22,5 km/h (4 Bft) 98,11 %
10.12.2017 12:42 -1,1 C 3,9 C 74 % 998,1 hPa 0,0 l/m 17,2 km/h (3 Bft) O-NO 68 0 min 0,000 mm 0,0 UV-I 139 W/m -5,1 C -9,6 C 22,5 km/h (4 Bft) 100,00 %
10.12.2017 12:44 -1,1 C 3,9 C 74 % 998,0 hPa 0,0 l/m 16,8 km/h (3 Bft) O-NO 58 0 min 0,000 mm 0,0 UV-I 131 W/m -5,1 C -9,4 C 20,9 km/h (4 Bft) 100,00 %
10.12.2017 12:46 -1,0 C 3,9 C 74 % 998,0 hPa 0,0 l/m 13,5 km/h (3 Bft) O 80 0 min 0,000 mm 0,0 UV-I 121 W/m -5,0 C -7,2 C 19,3 km/h (3 Bft) 100,00 %
10.12.2017 12:48 -1,0 C 3,9 C 74 % 997,8 hPa 0,0 l/m 16,8 km/h (3 Bft) O-NO 75 0 min 0,000 mm 0,0 UV-I 112 W/m -5,0 C -9,3 C 22,5 km/h (4 Bft) 100,00 %
10.12.2017 12:50 -1,0 C 3,9 C 73 % 997,7 hPa 0,0 l/m 15,2 km/h (3 Bft) O-NO 63 0 min 0,000 mm 0,0 UV-I 106 W/m -5,2 C -8,3 C 22,5 km/h (4 Bft) 100,00 %
10.12.2017 12:52 -0,9 C 3,9 C 74 % 997,7 hPa 0,0 l/m 13,1 km/h (3 Bft) N-NO 32 0 min 0,000 mm 0,0 UV-I 102 W/m -4,9 C -6,8 C 19,3 km/h (3 Bft) 97,87 %
10.12.2017 12:54 -0,9 C 3,9 C 74 % 997,6 hPa 0,0 l/m 14,0 km/h (3 Bft) O-NO 59 0 min 0,000 mm 0,0 UV-I 100 W/m -4,9 C -7,4 C 19,3 km/h (3 Bft) 100,00 %
10.12.2017 12:56 -0,9 C 3,9 C 74 % 997,5 hPa 0,0 l/m 13,9 km/h (3 Bft) NO 46 0 min 0,000 mm 0,0 UV-I 102 W/m -4,9 C -7,4 C 20,9 km/h (4 Bft) 100,00 %
10.12.2017 12:58 -0,9 C 3,9 C 74 % 997,5 hPa 0,0 l/m 18,0 km/h (3 Bft) O-NO 69 0 min 0,000 mm 0,0 UV-I 98 W/m -4,9 C -9,8 C 22,5 km/h (4 Bft) 100,00 %
10.12.2017 13:00 -0,9 C 3,9 C 74 % 997,4 hPa 0,0 l/m 16,3 km/h (3 Bft) NO 53 0 min 0,000 mm 0,0 UV-I 94 W/m -4,9 C -8,8 C 19,3 km/h (3 Bft) 100,00 %
10.12.2017 13:02 -0,9 C 3,9 C 74 % 997,3 hPa 0,0 l/m 12,7 km/h (3 Bft) O-NO 57 0 min 0,077 mm 0,0 UV-I 93 W/m -4,9 C -6,5 C 17,7 km/h (3 Bft) 100,00 %
10.12.2017 13:04 -0,9 C 3,9 C 74 % 997,3 hPa 0,0 l/m 15,8 km/h (3 Bft) O 82 0 min 0,000 mm 0,0 UV-I 95 W/m -4,9 C -8,6 C 20,9 km/h (4 Bft) 100,00 %
10.12.2017 13:06 -0,9 C 3,9 C 74 % 997,2 hPa 0,0 l/m 12,7 km/h (3 Bft) O-NO 69 0 min 0,000 mm 0,0 UV-I 99 W/m -4,9 C -6,5 C 17,7 km/h (3 Bft) 100,00 %
10.12.2017 13:08 -0,9 C 3,9 C 75 % 997,2 hPa 0,0 l/m 12,1 km/h (2 Bft) NO 43 0 min 0,000 mm 0,0 UV-I 103 W/m -4,8 C -6,1 C 17,7 km/h (3 Bft) 97,87 %
10.12.2017 13:10 -0,9 C 3,9 C 74 % 997,2 hPa 0,0 l/m 13,3 km/h (3 Bft) O-NO 60 0 min 0,000 mm 0,0 UV-I 104 W/m -4,9 C -7,0 C 16,1 km/h (3 Bft) 100,00 %
10.12.2017 13:12 -0,9 C 3,9 C 74 % 997,0 hPa 0,0 l/m 14,4 km/h (3 Bft) O-NO 68 0 min 0,000 mm 0,0 UV-I 107 W/m -4,9 C -7,7 C 19,3 km/h (3 Bft) 95,45 %
10.12.2017 13:14 -0,9 C 3,9 C 74 % 996,9 hPa 0,0 l/m 13,0 km/h (3 Bft) O-NO 59 0 min 0,000 mm 0,0 UV-I 107 W/m -4,9 C -6,8 C 19,3 km/h (3 Bft) 97,73 %
10.12.2017 13:16 -0,8 C 3,9 C 74 % 996,8 hPa 0,0 l/m 13,9 km/h (3 Bft) O-NO 65 0 min 0,000 mm 0,0 UV-I 104 W/m -4,8 C -7,2 C 19,3 km/h (3 Bft) 96,43 %
10.12.2017 13:18 -0,9 C 3,9 C 73 % 996,6 hPa 0,0 l/m 15,3 km/h (3 Bft) NO 54 0 min 0,000 mm 0,0 UV-I 99 W/m -5,1 C -8,3 C 22,5 km/h (4 Bft) 97,56 %
10.12.2017 13:20 -0,8 C 3,9 C 74 % 996,5 hPa 0,0 l/m 10,6 km/h (2 Bft) NO 51 0 min 0,000 mm 0,0 UV-I 98 W/m -4,8 C -4,8 C 14,5 km/h (3 Bft) 96,23 %
10.12.2017 13:22 -0,8 C 3,9 C 74 % 996,5 hPa 0,0 l/m 14,0 km/h (3 Bft) O-NO 62 0 min 0,000 mm 0,0 UV-I 96 W/m -4,8 C -7,3 C 20,9 km/h (4 Bft) 95,74 %
10.12.2017 13:24 -0,8 C 3,9 C 74 % 996,4 hPa 0,0 l/m 12,6 km/h (3 Bft) O-NO 62 0 min 0,000 mm 0,0 UV-I 92 W/m -4,8 C -6,4 C 17,7 km/h (3 Bft) 97,62 %
10.12.2017 13:26 -0,8 C 3,9 C 74 % 996,3 hPa 0,0 l/m 11,9 km/h (2 Bft) NO 53 0 min 0,000 mm 0,0 UV-I 90 W/m -4,8 C -5,8 C 16,1 km/h (3 Bft) 98,18 %
10.12.2017 13:28 -0,8 C 3,9 C 74 % 996,2 hPa 0,0 l/m 12,3 km/h (3 Bft) NO 42 0 min 0,000 mm 0,0 UV-I 86 W/m -4,8 C -6,1 C 17,7 km/h (3 Bft) 97,62 %
10.12.2017 13:30 -0,8 C 3,9 C 74 % 996,2 hPa 0,0 l/m 12,0 km/h (2 Bft) O-NO 59 0 min 0,000 mm 0,0 UV-I 81 W/m -4,8 C -5,9 C 19,3 km/h (3 Bft) 96,23 %
10.12.2017 13:32 -0,8 C 3,9 C 73 % 996,1 hPa 0,0 l/m 12,8 km/h (3 Bft) O-NO 61 0 min 0,000 mm 0,0 UV-I 75 W/m -5,0 C -6,5 C 19,3 km/h (3 Bft) 95,74 %
10.12.2017 13:34 -0,8 C 3,9 C 74 % 996,0 hPa 0,0 l/m 12,4 km/h (3 Bft) O-NO 64 0 min 0,000 mm 0,0 UV-I 69 W/m -4,8 C -6,2 C 17,7 km/h (3 Bft) 100,00 %
10.12.2017 13:36 -0,8 C 3,9 C 74 % 995,9 hPa 0,0 l/m 14,0 km/h (3 Bft) O-NO 76 0 min 0,000 mm 0,0 UV-I 65 W/m -4,8 C -7,3 C 17,7 km/h (3 Bft) 96,43 %
10.12.2017 13:38 -0,8 C 3,9 C 74 % 995,8 hPa 0,0 l/m 15,7 km/h (3 Bft) O-NO 67 0 min 0,000 mm 0,0 UV-I 63 W/m -4,8 C -8,4 C 22,5 km/h (4 Bft) 97,14 %
10.12.2017 13:40 -0,8 C 3,9 C 73 % 995,7 hPa 0,0 l/m 13,7 km/h (3 Bft) O-NO 76 0 min 0,000 mm 0,0 UV-I 62 W/m -5,0 C -7,1 C 19,3 km/h (3 Bft) 98,21 %
10.12.2017 13:42 -0,7 C 3,9 C 73 % 995,7 hPa 0,0 l/m 16,9 km/h (3 Bft) O 81 0 min 0,000 mm 0,0 UV-I 62 W/m -4,9 C -8,9 C 20,9 km/h (4 Bft) 97,14 %
10.12.2017 13:44 -0,7 C 3,9 C 72 % 995,6 hPa 0,0 l/m 11,9 km/h (2 Bft) NO 55 0 min 0,000 mm 0,0 UV-I 60 W/m -5,1 C -5,7 C 20,9 km/h (4 Bft) 96,43 %
10.12.2017 13:46 -0,7 C 3,9 C 72 % 995,6 hPa 0,0 l/m 16,6 km/h (3 Bft) O-NO 65 0 min 0,000 mm 0,0 UV-I 57 W/m -5,1 C -8,8 C 22,5 km/h (4 Bft) 97,37 %
10.12.2017 13:48 -0,7 C 3,9 C 72 % 995,5 hPa 0,0 l/m 14,5 km/h (3 Bft) O-NO 64 0 min 0,000 mm 0,0 UV-I 53 W/m -5,1 C -7,5 C 19,3 km/h (3 Bft) 100,00 %
10.12.2017 13:50 -0,7 C 3,9 C 71 % 995,4 hPa 0,0 l/m 15,0 km/h (3 Bft) NO 56 0 min 0,000 mm 0,0 UV-I 49 W/m -5,3 C -7,8 C 19,3 km/h (3 Bft) 100,00 %
10.12.2017 13:52 -0,7 C 3,9 C 73 % 995,3 hPa 0,0 l/m 14,9 km/h (3 Bft) O-NO 68 0 min 0,000 mm 0,0 UV-I 46 W/m -4,9 C -7,8 C 19,3 km/h (3 Bft) 100,00 %
10.12.2017 13:54 -0,7 C 3,9 C 71 % 995,3 hPa 0,0 l/m 15,9 km/h (3 Bft) NO 55 0 min 0,000 mm 0,0 UV-I 42 W/m -5,3 C -8,4 C 20,9 km/h (4 Bft) 95,45 %
10.12.2017 13:56 -0,7 C 3,9 C 71 % 995,2 hPa 0,0 l/m 16,4 km/h (3 Bft) O-NO 70 0 min 0,000 mm 0,0 UV-I 42 W/m -5,3 C -8,7 C 20,9 km/h (4 Bft) 98,11 %
10.12.2017 13:58 -0,7 C 3,9 C 70 % 995,1 hPa 0,0 l/m 15,7 km/h (3 Bft) O-NO 65 0 min 0,000 mm 0,0 UV-I 42 W/m -5,5 C -8,3 C 22,5 km/h (4 Bft) 100,00 %
10.12.2017 14:00 -0,7 C 3,9 C 72 % 995,0 hPa 0,0 l/m 12,8 km/h (3 Bft) NO 40 0 min 0,050 mm 0,0 UV-I 44 W/m -5,1 C -6,4 C 17,7 km/h (3 Bft) 100,00 %
10.12.2017 14:02 -0,7 C 3,9 C 71 % 995,0 hPa 0,0 l/m 17,2 km/h (3 Bft) NO 56 0 min 0,000 mm 0,0 UV-I 45 W/m -5,3 C -9,1 C 20,9 km/h (4 Bft) 100,00 %
10.12.2017 14:04 -0,7 C 3,9 C 71 % 995,0 hPa 0,0 l/m 12,2 km/h (2 Bft) O 82 0 min 0,000 mm 0,0 UV-I 46 W/m -5,3 C -6,0 C 17,7 km/h (3 Bft) 100,00 %
10.12.2017 14:06 -0,7 C 3,9 C 72 % 995,0 hPa 0,0 l/m 13,3 km/h (3 Bft) O-NO 78 0 min 0,000 mm 0,0 UV-I 46 W/m -5,1 C -6,7 C 19,3 km/h (3 Bft) 100,00 %
10.12.2017 14:08 -0,7 C 3,9 C 71 % 994,8 hPa 0,0 l/m 12,0 km/h (2 Bft) O-NO 61 0 min 0,000 mm 0,0 UV-I 47 W/m -5,3 C -5,8 C 17,7 km/h (3 Bft) 94,00 %
10.12.2017 14:10 -0,7 C 3,9 C 71 % 994,8 hPa 0,0 l/m 11,3 km/h (2 Bft) O-NO 61 0 min 0,000 mm 0,0 UV-I 47 W/m -5,3 C -5,3 C 17,7 km/h (3 Bft) 100,00 %
10.12.2017 14:12 -0,6 C 3,9 C 72 % 994,6 hPa 0,0 l/m 8,7 km/h (2 Bft) NO 41 0 min 0,000 mm 0,0 UV-I 47 W/m -5,0 C -3,0 C 17,7 km/h (3 Bft) 100,00 %
10.12.2017 14:14 -0,6 C 3,9 C 72 % 994,6 hPa 0,0 l/m 12,1 km/h (2 Bft) NO 50 0 min 0,000 mm 0,0 UV-I 45 W/m -5,0 C -5,8 C 17,7 km/h (3 Bft) 100,00 %
10.12.2017 14:16 -0,6 C 3,9 C 72 % 994,5 hPa 0,0 l/m 14,2 km/h (3 Bft) O-NO 70 0 min 0,000 mm 0,0 UV-I 42 W/m -5,0 C -7,2 C 17,7 km/h (3 Bft) 100,00 %
10.12.2017 14:18 -0,6 C 3,9 C 72 % 994,6 hPa 0,0 l/m 11,1 km/h (2 Bft) O-NO 69 0 min 0,000 mm 0,0 UV-I 42 W/m -5,0 C -5,0 C 19,3 km/h (3 Bft) 100,00 %
10.12.2017 14:20 -0,6 C 3,9 C 72 % 994,5 hPa 0,0 l/m 12,8 km/h (3 Bft) O-NO 58 0 min 0,000 mm 0,0 UV-I 43 W/m -5,0 C -6,3 C 16,1 km/h (3 Bft) 100,00 %
10.12.2017 14:22 -0,6 C 3,9 C 71 % 994,5 hPa 0,0 l/m 11,1 km/h (2 Bft) O-NO 63 0 min 0,000 mm 0,0 UV-I 42 W/m -5,2 C -5,0 C 16,1 km/h (3 Bft) 100,00 %
10.12.2017 14:24 -0,6 C 3,9 C 72 % 994,5 hPa 0,0 l/m 9,1 km/h (2 Bft) O-NO 62 0 min 0,000 mm 0,0 UV-I 41 W/m -5,0 C -3,3 C 14,5 km/h (3 Bft) 98,00 %
10.12.2017 14:26 -0,6 C 3,9 C 73 % 994,4 hPa 0,0 l/m 9,8 km/h (2 Bft) O-NO 64 0 min 0,000 mm 0,0 UV-I 40 W/m -4,8 C -3,9 C 14,5 km/h (3 Bft) 100,00 %
10.12.2017 14:28 -0,6 C 3,9 C 72 % 994,2 hPa 0,0 l/m 12,4 km/h (3 Bft) NO 54 0 min 0,000 mm 0,0 UV-I 40 W/m -5,0 C -6,0 C 17,7 km/h (3 Bft) 96,23 %
10.12.2017 14:30 -0,6 C 3,9 C 71 % 994,1 hPa 0,0 l/m 14,4 km/h (3 Bft) NO 49 0 min 0,000 mm 0,0 UV-I 41 W/m -5,2 C -7,3 C 19,3 km/h (3 Bft) 100,00 %
10.12.2017 14:32 -0,5 C 3,9 C 71 % 994,0 hPa 0,0 l/m 14,9 km/h (3 Bft) O-NO 59 0 min 0,000 mm 0,0 UV-I 41 W/m -5,1 C -7,5 C 19,3 km/h (3 Bft) 97,56 %
10.12.2017 14:34 -0,5 C 3,9 C 72 % 993,7 hPa 0,0 l/m 16,1 km/h (3 Bft) O-NO 71 0 min 0,000 mm 0,0 UV-I 39 W/m -4,9 C -8,2 C 19,3 km/h (3 Bft) 100,00 %
10.12.2017 14:36 -0,5 C 3,9 C 72 % 993,6 hPa 0,0 l/m 15,3 km/h (3 Bft) O 99 0 min 0,000 mm 0,0 UV-I 37 W/m -4,9 C -7,8 C 22,5 km/h (4 Bft) 98,00 %
10.12.2017 14:38 -0,5 C 3,9 C 71 % 993,6 hPa 0,0 l/m 13,2 km/h (3 Bft) O 86 0 min 0,000 mm 0,0 UV-I 37 W/m -5,1 C -6,4 C 17,7 km/h (3 Bft) 100,00 %
10.12.2017 14:40 -0,5 C 3,9 C 72 % 993,7 hPa 0,0 l/m 13,1 km/h (3 Bft) O 98 0 min 0,000 mm 0,0 UV-I 35 W/m -4,9 C -6,4 C 17,7 km/h (3 Bft) 100,00 %
10.12.2017 14:42 -0,5 C 3,9 C 72 % 993,6 hPa 0,0 l/m 11,6 km/h (2 Bft) O-NO 78 0 min 0,000 mm 0,0 UV-I 33 W/m -4,9 C -5,3 C 17,7 km/h (3 Bft) 98,18 %
10.12.2017 14:44 -0,4 C 3,9 C 71 % 993,7 hPa 0,0 l/m 14,2 km/h (3 Bft) O-NO 74 0 min 0,000 mm 0,0 UV-I 33 W/m -5,0 C -7,0 C 19,3 km/h (3 Bft) 100,00 %
10.12.2017 14:46 -0,4 C 3,9 C 72 % 993,6 hPa 0,0 l/m 13,9 km/h (3 Bft) O-NO 63 0 min 0,000 mm 0,0 UV-I 33 W/m -4,8 C -6,8 C 17,7 km/h (3 Bft) 100,00 %
10.12.2017 14:48 -0,4 C 3,9 C 71 % 993,5 hPa 0,0 l/m 13,6 km/h (3 Bft) O-NO 65 0 min 0,000 mm 0,0 UV-I 32 W/m -5,0 C -6,6 C 17,7 km/h (3 Bft) 100,00 %
10.12.2017 14:50 -0,4 C 3,9 C 71 % 993,5 hPa 0,0 l/m 14,9 km/h (3 Bft) NO 51 0 min 0,000 mm 0,0 UV-I 31 W/m -5,0 C -7,4 C 19,3 km/h (3 Bft) 100,00 %
10.12.2017 14:52 -0,4 C 3,9 C 72 % 993,4 hPa 0,0 l/m 13,5 km/h (3 Bft) NO 42 0 min 0,000 mm 0,0 UV-I 31 W/m -4,8 C -6,5 C 17,7 km/h (3 Bft) 100,00 %
10.12.2017 14:54 -0,4 C 3,9 C 73 % 993,4 hPa 0,0 l/m 12,3 km/h (3 Bft) O 94 0 min 0,000 mm 0,0 UV-I 31 W/m -4,6 C -5,7 C 19,3 km/h (3 Bft) 100,00 %
10.12.2017 14:56 -0,4 C 3,9 C 72 % 993,4 hPa 0,0 l/m 14,9 km/h (3 Bft) O-NO 68 0 min 0,000 mm 0,0 UV-I 30 W/m -4,8 C -7,4 C 20,9 km/h (4 Bft) 100,00 %
10.12.2017 14:58 -0,4 C 3,9 C 72 % 993,2 hPa 0,0 l/m 16,0 km/h (3 Bft) NO 53 0 min 0,000 mm 0,0 UV-I 30 W/m -4,8 C -8,1 C 19,3 km/h (3 Bft) 100,00 %
10.12.2017 15:00 -0,4 C 3,9 C 72 % 993,2 hPa 0,0 l/m 11,9 km/h (2 Bft) O-NO 61 0 min 0,051 mm 0,0 UV-I 27 W/m -4,8 C -5,4 C 17,7 km/h (3 Bft) 100,00 %
10.12.2017 15:02 -0,3 C 3,9 C 73 % 993,2 hPa 0,0 l/m 9,0 km/h (2 Bft) O-NO 64 0 min 0,000 mm 0,0 UV-I 26 W/m -4,5 C -2,9 C 16,1 km/h (3 Bft) 100,00 %
10.12.2017 15:04 -0,3 C 3,9 C 73 % 993,2 hPa 0,0 l/m 11,0 km/h (2 Bft) NO 47 0 min 0,000 mm 0,0 UV-I 24 W/m -4,5 C -4,6 C 16,1 km/h (3 Bft) 100,00 %
10.12.2017 15:06 -0,3 C 3,9 C 72 % 993,1 hPa 0,0 l/m 13,8 km/h (3 Bft) O-NO 59 0 min 0,000 mm 0,0 UV-I 22 W/m -4,7 C -6,6 C 20,9 km/h (4 Bft) 100,00 %
10.12.2017 15:08 -0,3 C 3,9 C 71 % 993,1 hPa 0,0 l/m 14,1 km/h (3 Bft) O-NO 68 0 min 0,000 mm 0,0 UV-I 19 W/m -4,9 C -6,8 C 20,9 km/h (4 Bft) 100,00 %
10.12.2017 15:10 -0,3 C 3,9 C 72 % 993,1 hPa 0,0 l/m 14,5 km/h (3 Bft) O-NO 69 0 min 0,000 mm 0,0 UV-I 18 W/m -4,7 C -7,0 C 20,9 km/h (4 Bft) 97,37 %
10.12.2017 15:12 -0,3 C 3,9 C 72 % 993,0 hPa 0,0 l/m 11,0 km/h (2 Bft) NO 50 0 min 0,000 mm 0,0 UV-I 16 W/m -4,7 C -4,6 C 16,1 km/h (3 Bft) 97,56 %
10.12.2017 15:14 -0,3 C 3,9 C 73 % 993,1 hPa 0,0 l/m 13,7 km/h (3 Bft) NO 49 0 min 0,000 mm 0,0 UV-I 14 W/m -4,5 C -6,5 C 19,3 km/h (3 Bft) 98,11 %
10.12.2017 15:16 -0,3 C 3,9 C 73 % 993,0 hPa 0,0 l/m 15,4 km/h (3 Bft) NO 52 0 min 0,000 mm 0,0 UV-I 14 W/m -4,5 C -7,6 C 20,9 km/h (4 Bft) 91,53 %
10.12.2017 15:18 -0,3 C 3,9 C 73 % 993,0 hPa 0,0 l/m 12,0 km/h (2 Bft) O-NO 73 0 min 0,000 mm 0,0 UV-I 12 W/m -4,5 C -5,3 C 16,1 km/h (3 Bft) 95,45 %
10.12.2017 15:20 -0,3 C 3,9 C 73 % 993,0 hPa 0,0 l/m 12,8 km/h (3 Bft) O-NO 76 0 min 0,000 mm 0,0 UV-I 12 W/m -4,5 C -5,9 C 19,3 km/h (3 Bft) 96,00 %
10.12.2017 15:22 -0,3 C 3,9 C 72 % 993,0 hPa 0,0 l/m 13,0 km/h (3 Bft) O 83 0 min 0,000 mm 0,0 UV-I 12 W/m -4,7 C -6,1 C 17,7 km/h (3 Bft) 95,74 %
10.12.2017 15:24 -0,3 C 3,9 C 72 % 993,2 hPa 0,0 l/m 11,9 km/h (2 Bft) O 86 0 min 0,000 mm 0,0 UV-I 11 W/m -4,7 C -5,3 C 16,1 km/h (3 Bft) 91,67 %
10.12.2017 15:26 -0,2 C 3,9 C 71 % 993,2 hPa 0,0 l/m 12,4 km/h (3 Bft) O 96 0 min 0,000 mm 0,0 UV-I 9 W/m -4,8 C -5,5 C 17,7 km/h (3 Bft) 94,55 %
10.12.2017 15:28 -0,3 C 3,9 C 72 % 993,3 hPa 0,0 l/m 9,1 km/h (2 Bft) O-SO 104 0 min 0,000 mm 0,0 UV-I 9 W/m -4,7 C -3,0 C 17,7 km/h (3 Bft) 95,24 %
10.12.2017 15:30 -0,3 C 3,9 C 71 % 993,2 hPa 0,0 l/m 9,1 km/h (2 Bft) O-NO 63 0 min 0,000 mm 0,0 UV-I 9 W/m -4,9 C -3,0 C 14,5 km/h (3 Bft) 94,34 %
10.12.2017 15:32 -0,2 C 3,9 C 72 % 993,2 hPa 0,0 l/m 9,3 km/h (2 Bft) O-NO 62 0 min 0,000 mm 0,0 UV-I 9 W/m -4,6 C -3,1 C 17,7 km/h (3 Bft) 95,12 %
10.12.2017 15:34 -0,2 C 3,9 C 72 % 993,2 hPa 0,0 l/m 10,2 km/h (2 Bft) O 84 0 min 0,000 mm 0,0 UV-I 9 W/m -4,6 C -3,8 C 16,1 km/h (3 Bft) 94,00 %
10.12.2017 15:36 -0,2 C 3,9 C 72 % 993,2 hPa 0,0 l/m 13,7 km/h (3 Bft) O-NO 68 0 min 0,000 mm 0,0 UV-I 7 W/m -4,6 C -6,4 C 17,7 km/h (3 Bft) 94,00 %
10.12.2017 15:41 -0,3 C 3,9 C 72 % 993,0 hPa 0,0 l/m 12,1 km/h (2 Bft) O-NO 61 0 min 0,000 mm 0,0 UV-I 7 W/m -4,7 C -5,4 C 17,7 km/h (3 Bft) 95,16 %
10.12.2017 15:42 -0,3 C 3,9 C 73 % 993,0 hPa 0,0 l/m 12,3 km/h (3 Bft) O 85 0 min 0,000 mm 0,0 UV-I 7 W/m -4,5 C -5,6 C 17,7 km/h (3 Bft) 95,83 %
10.12.2017 15:44 -0,4 C 3,9 C 74 % 993,0 hPa 0,0 l/m 10,8 km/h (2 Bft) O-NO 71 0 min 0,000 mm 0,0 UV-I 7 W/m -4,5 C -4,5 C 16,1 km/h (3 Bft) 87,80 %
10.12.2017 15:46 -0,4 C 3,9 C 75 % 993,1 hPa 0,0 l/m 12,1 km/h (2 Bft) O 99 0 min 0,000 mm 0,0 UV-I 7 W/m -4,3 C -5,5 C 16,1 km/h (3 Bft) 96,23 %
10.12.2017 15:48 -0,5 C 3,9 C 76 % 993,0 hPa 0,0 l/m 7,8 km/h (2 Bft) O 82 0 min 0,000 mm 0,0 UV-I 7 W/m -4,2 C -2,0 C 12,9 km/h (3 Bft) 95,12 %
10.12.2017 15:50 -0,6 C 3,9 C 76 % 993,0 hPa 0,0 l/m 11,1 km/h (2 Bft) O-NO 71 0 min 0,000 mm 0,0 UV-I 7 W/m -4,3 C -5,0 C 14,5 km/h (3 Bft) 93,18 %
10.12.2017 15:52 -0,7 C 3,9 C 78 % 993,0 hPa 0,0 l/m 10,6 km/h (2 Bft) O-NO 59 0 min 0,000 mm 0,0 UV-I 6 W/m -4,0 C -4,7 C 14,5 km/h (3 Bft) 95,74 %
10.12.2017 15:54 -0,8 C 3,9 C 80 % 993,0 hPa 0,0 l/m 10,4 km/h (2 Bft) O-NO 76 0 min 0,000 mm 0,0 UV-I 5 W/m -3,8 C -4,7 C 17,7 km/h (3 Bft) 98,00 %
10.12.2017 15:56 -0,9 C 3,9 C 82 % 993,0 hPa 0,0 l/m 11,0 km/h (2 Bft) O-NO 76 0 min 0,000 mm 0,0 UV-I 5 W/m -3,6 C -5,3 C 14,5 km/h (3 Bft) 96,23 %
10.12.2017 15:58 -1,1 C 3,9 C 83 % 993,0 hPa 0,0 l/m 11,4 km/h (2 Bft) O-NO 64 0 min 0,000 mm 0,0 UV-I 5 W/m -3,6 C -5,8 C 14,5 km/h (3 Bft) 97,87 %
10.12.2017 16:00 -1,2 C 3,9 C 85 % 992,8 hPa 0,0 l/m 10,6 km/h (2 Bft) O-NO 58 0 min 0,026 mm 0,0 UV-I 5 W/m -3,4 C -5,3 C 14,5 km/h (3 Bft) 95,74 %
10.12.2017 16:02 -1,3 C 3,9 C 86 % 992,7 hPa 0,0 l/m 10,2 km/h (2 Bft) NO 36 0 min 0,000 mm 0,0 UV-I 5 W/m -3,3 C -5,1 C 14,5 km/h (3 Bft) 97,56 %
10.12.2017 16:04 -1,4 C 3,9 C 87 % 992,7 hPa 0,0 l/m 13,3 km/h (3 Bft) NO 53 0 min 0,000 mm 0,0 UV-I 4 W/m -3,3 C -7,6 C 19,3 km/h (3 Bft) 98,00 %
10.12.2017 16:06 -1,4 C 3,9 C 88 % 992,8 hPa 0,0 l/m 9,9 km/h (2 Bft) NO 51 0 min 0,000 mm 0,0 UV-I 0 W/m -3,1 C -4,9 C 14,5 km/h (3 Bft) 97,56 %
10.12.2017 16:08 -1,5 C 3,9 C 88 % 992,8 hPa 0,0 l/m 11,0 km/h (2 Bft) O-NO 58 0 min 0,000 mm 0,0 UV-I 0 W/m -3,2 C -5,9 C 16,1 km/h (3 Bft) 94,00 %
10.12.2017 16:10 -1,6 C 3,9 C 89 % 992,7 hPa 0,0 l/m 12,5 km/h (3 Bft) NO 55 0 min 0,000 mm 0,0 UV-I 0 W/m -3,2 C -7,2 C 17,7 km/h (3 Bft) 98,00 %
10.12.2017 16:12 -1,6 C 3,9 C 89 % 992,7 hPa 0,0 l/m 12,2 km/h (2 Bft) O-NO 73 0 min 0,000 mm 0,0 UV-I 0 W/m -3,2 C -7,0 C 16,1 km/h (3 Bft) 97,44 %
10.12.2017 16:14 -1,6 C 3,9 C 90 % 992,7 hPa 0,0 l/m 10,9 km/h (2 Bft) O-NO 57 0 min 0,000 mm 0,0 UV-I 0 W/m -3,0 C -6,0 C 14,5 km/h (3 Bft) 97,73 %
10.12.2017 16:16 -1,6 C 3,9 C 90 % 992,6 hPa 0,0 l/m 12,5 km/h (3 Bft) NO 51 0 min 0,000 mm 0,0 UV-I 0 W/m -3,0 C -7,2 C 17,7 km/h (3 Bft) 93,10 %
10.12.2017 16:18 -1,6 C 3,9 C 90 % 992,6 hPa 0,0 l/m 10,7 km/h (2 Bft) O-NO 60 0 min 0,000 mm 0,0 UV-I 0 W/m -3,0 C -5,8 C 14,5 km/h (3 Bft) 97,62 %
10.12.2017 16:20 -1,7 C 3,9 C 91 % 992,5 hPa 0,0 l/m 13,3 km/h (3 Bft) O-NO 65 0 min 0,000 mm 0,0 UV-I 0 W/m -3,0 C -7,9 C 17,7 km/h (3 Bft) 98,11 %
10.12.2017 16:22 -1,7 C 3,9 C 91 % 992,5 hPa 0,0 l/m 11,6 km/h (2 Bft) NO 53 0 min 0,000 mm 0,0 UV-I 0 W/m -3,0 C -6,7 C 14,5 km/h (3 Bft) 100,00 %
10.12.2017 16:24 -1,7 C 3,9 C 91 % 992,5 hPa 0,0 l/m 11,6 km/h (2 Bft) NO 53 0 min 0,000 mm 0,0 UV-I 0 W/m -3,0 C -6,7 C 16,1 km/h (3 Bft) 100,00 %
10.12.2017 16:26 -1,7 C 3,9 C 92 % 992,5 hPa 0,0 l/m 12,6 km/h (3 Bft) O-NO 60 0 min 0,000 mm 0,0 UV-I 0 W/m -2,8 C -7,4 C 16,1 km/h (3 Bft) 100,00 %
10.12.2017 16:28 -1,7 C 3,9 C 92 % 992,6 hPa 0,0 l/m 10,2 km/h (2 Bft) NO 53 0 min 0,000 mm 0,0 UV-I 0 W/m -2,8 C -5,5 C 16,1 km/h (3 Bft) 100,00 %
10.12.2017 16:30 -1,7 C 3,9 C 92 % 992,6 hPa 0,0 l/m 10,5 km/h (2 Bft) NO 41 0 min 0,000 mm 0,0 UV-I 0 W/m -2,8 C -5,8 C 14,5 km/h (3 Bft) 97,37 %
10.12.2017 16:32 -1,7 C 3,9 C 93 % 992,7 hPa 0,0 l/m 8,5 km/h (2 Bft) NO 49 0 min 0,000 mm 0,0 UV-I 0 W/m -2,7 C -3,9 C 12,9 km/h (3 Bft) 98,21 %
10.12.2017 16:34 -1,7 C 3,9 C 93 % 992,7 hPa 0,0 l/m 8,0 km/h (2 Bft) NO 36 0 min 0,000 mm 0,0 UV-I 0 W/m -2,7 C -3,4 C 14,5 km/h (3 Bft) 100,00 %
10.12.2017 16:36 -1,7 C 3,9 C 93 % 992,6 hPa 0,0 l/m 11,7 km/h (2 Bft) NO 41 0 min 0,000 mm 0,0 UV-I 0 W/m -2,7 C -6,7 C 16,1 km/h (3 Bft) 96,92 %
10.12.2017 16:39 -1,8 C 3,9 C 93 % 992,6 hPa 0,0 l/m 9,2 km/h (2 Bft) NO 44 0 min 0,000 mm 0,0 UV-I 0 W/m -2,8 C -4,7 C 16,1 km/h (3 Bft) 100,00 %
10.12.2017 16:40 -1,8 C 3,9 C 93 % 992,6 hPa 0,0 l/m 12,8 km/h (3 Bft) O-NO 61 0 min 0,000 mm 0,0 UV-I 0 W/m -2,8 C -7,7 C 16,1 km/h (3 Bft) 100,00 %
10.12.2017 16:42 -1,8 C 3,9 C 93 % 992,7 hPa 0,0 l/m 10,4 km/h (2 Bft) O-NO 57 0 min 0,000 mm 0,0 UV-I 0 W/m -2,8 C -5,8 C 16,1 km/h (3 Bft) 97,37 %
10.12.2017 16:44 -1,8 C 3,9 C 93 % 992,7 hPa 0,0 l/m 9,5 km/h (2 Bft) NO 53 0 min 0,000 mm 0,0 UV-I 0 W/m -2,8 C -5,0 C 12,9 km/h (3 Bft) 98,00 %
10.12.2017 16:46 -1,8 C 3,9 C 93 % 992,7 hPa 0,0 l/m 9,0 km/h (2 Bft) NO 52 0 min 0,000 mm 0,0 UV-I 0 W/m -2,8 C -4,5 C 14,5 km/h (3 Bft) 98,00 %
10.12.2017 16:48 -1,8 C 3,9 C 93 % 992,7 hPa 0,0 l/m 10,2 km/h (2 Bft) O-NO 59 0 min 0,000 mm 0,0 UV-I 0 W/m -2,8 C -5,6 C 16,1 km/h (3 Bft) 97,56 %
10.12.2017 16:50 -1,8 C 3,9 C 93 % 992,8 hPa 0,0 l/m 10,0 km/h (2 Bft) O-NO 65 0 min 0,000 mm 0,0 UV-I 0 W/m -2,8 C -5,4 C 14,5 km/h (3 Bft) 98,11 %
10.12.2017 16:52 -1,8 C 3,9 C 93 % 992,9 hPa 0,0 l/m 8,0 km/h (2 Bft) NO 50 0 min 0,000 mm 0,0 UV-I 0 W/m -2,8 C -3,5 C 11,3 km/h (2 Bft) 100,00 %
10.12.2017 16:54 -1,8 C 3,9 C 94 % 992,9 hPa 0,0 l/m 7,4 km/h (2 Bft) N-NO 26 0 min 0,000 mm 0,0 UV-I 0 W/m -2,6 C -2,9 C 11,3 km/h (2 Bft) 100,00 %
10.12.2017 16:56 -1,7 C 3,9 C 94 % 992,9 hPa 0,0 l/m 6,9 km/h (2 Bft) N-NO 32 0 min 0,000 mm 0,0 UV-I 0 W/m -2,5 C -2,2 C 11,3 km/h (2 Bft) 100,00 %
10.12.2017 16:58 -1,7 C 3,9 C 94 % 993,0 hPa 0,0 l/m 5,8 km/h (2 Bft) N-NO 28 0 min 0,000 mm 0,0 UV-I 0 W/m -2,5 C -1,7 C 6,4 km/h (2 Bft) 100,00 %
10.12.2017 17:00 -1,7 C 3,9 C 94 % 993,1 hPa 0,0 l/m 5,6 km/h (1 Bft) NO 36 0 min 0,000 mm 0,0 UV-I 0 W/m -2,5 C -1,7 C 9,7 km/h (2 Bft) 100,00 %
10.12.2017 17:02 -1,7 C 3,9 C 94 % 992,9 hPa 0,0 l/m 6,3 km/h (2 Bft) NO 38 0 min 0,000 mm 0,0 UV-I 0 W/m -2,5 C -1,7 C 8,0 km/h (2 Bft) 100,00 %
10.12.2017 17:04 -1,7 C 3,9 C 94 % 993,2 hPa 0,0 l/m 4,1 km/h (1 Bft) NO 51 0 min 0,000 mm 0,0 UV-I 0 W/m -2,5 C -1,7 C 6,4 km/h (2 Bft) 97,56 %
10.12.2017 17:06 -1,7 C 3,9 C 94 % 993,2 hPa 0,0 l/m 4,9 km/h (1 Bft) NO 39 0 min 0,000 mm 0,0 UV-I 0 W/m -2,5 C -1,7 C 6,4 km/h (2 Bft) 97,87 %
10.12.2017 17:08 -1,7 C 3,9 C 94 % 993,0 hPa 0,0 l/m 6,7 km/h (2 Bft) NO 52 0 min 0,000 mm 0,0 UV-I 0 W/m -2,5 C -2,0 C 8,0 km/h (2 Bft) 100,00 %
10.12.2017 17:10 -1,7 C 3,9 C 94 % 993,1 hPa 0,0 l/m 7,0 km/h (2 Bft) O-NO 76 0 min 0,000 mm 0,0 UV-I 0 W/m -2,5 C -2,4 C 9,7 km/h (2 Bft) 100,00 %
10.12.2017 17:12 -1,7 C 3,9 C 94 % 993,2 hPa 0,0 l/m 6,8 km/h (2 Bft) NO 55 0 min 0,000 mm 0,0 UV-I 0 W/m -2,5 C -2,1 C 8,0 km/h (2 Bft) 100,00 %
10.12.2017 17:14 -1,7 C 3,9 C 94 % 993,1 hPa 0,0 l/m 5,8 km/h (2 Bft) O-NO 68 0 min 0,000 mm 0,0 UV-I 0 W/m -2,5 C -1,7 C 8,0 km/h (2 Bft) 100,00 %
10.12.2017 17:16 -1,7 C 3,9 C 94 % 993,1 hPa 0,0 l/m 4,8 km/h (1 Bft) O-NO 59 0 min 0,000 mm 0,0 UV-I 0 W/m -2,5 C -1,7 C 6,4 km/h (2 Bft) 100,00 %
10.12.2017 17:18 -1,7 C 3,9 C 94 % 993,0 hPa 0,0 l/m 6,9 km/h (2 Bft) NO 56 0 min 0,000 mm 0,0 UV-I 0 W/m -2,5 C -2,2 C 9,7 km/h (2 Bft) 98,21 %
10.12.2017 17:20 -1,7 C 3,9 C 94 % 993,0 hPa 0,0 l/m 6,8 km/h (2 Bft) O-NO 61 0 min 0,000 mm 0,0 UV-I 0 W/m -2,5 C -2,1 C 9,7 km/h (2 Bft) 97,73 %
10.12.2017 17:22 -1,7 C 3,9 C 94 % 993,0 hPa 0,0 l/m 5,9 km/h (2 Bft) O-NO 63 0 min 0,000 mm 0,0 UV-I 0 W/m -2,5 C -1,7 C 8,0 km/h (2 Bft) 97,87 %
10.12.2017 17:24 -1,7 C 3,9 C 94 % 993,0 hPa 0,0 l/m 3,0 km/h (1 Bft) O-NO 63 0 min 0,000 mm 0,0 UV-I 0 W/m -2,5 C -1,7 C 6,4 km/h (2 Bft) 97,87 %
10.12.2017 17:26 -1,6 C 3,9 C 95 % 993,1 hPa 0,0 l/m 2,4 km/h (1 Bft) O-NO 63 0 min 0,000 mm 0,0 UV-I 0 W/m -2,3 C -1,6 C 4,8 km/h (1 Bft) 96,00 %
10.12.2017 17:28 -1,6 C 3,9 C 95 % 993,1 hPa 0,0 l/m 3,7 km/h (1 Bft) N-NO 33 0 min 0,000 mm 0,0 UV-I 0 W/m -2,3 C -1,6 C 6,4 km/h (2 Bft) 97,56 %
10.12.2017 17:30 -1,6 C 3,9 C 95 % 993,2 hPa 0,0 l/m 5,1 km/h (1 Bft) N-NO 32 0 min 0,000 mm 0,0 UV-I 0 W/m -2,3 C -1,6 C 8,0 km/h (2 Bft) 96,43 %
10.12.2017 17:32 -1,6 C 3,9 C 95 % 993,2 hPa 0,0 l/m 2,8 km/h (1 Bft) N-NO 26 0 min 0,000 mm 0,0 UV-I 0 W/m -2,3 C -1,6 C 4,8 km/h (1 Bft) 94,44 %
10.12.2017 17:34 -1,6 C 3,9 C 95 % 993,2 hPa 0,0 l/m 2,6 km/h (1 Bft) N-NO 26 0 min 0,000 mm 0,0 UV-I 0 W/m -2,3 C -1,6 C 4,8 km/h (1 Bft) 92,68 %
10.12.2017 17:36 -1,6 C 3,9 C 95 % 993,2 hPa 0,0 l/m 1,1 km/h (1 Bft) N-NO 26 0 min 0,000 mm 0,0 UV-I 0 W/m -2,3 C -1,6 C 3,2 km/h (1 Bft) 96,72 %
10.12.2017 17:38 -1,6 C 3,9 C 95 % 993,3 hPa 0,0 l/m 3,1 km/h (1 Bft) N-NO 26 0 min 0,000 mm 0,0 UV-I 0 W/m -2,3 C -1,6 C 6,4 km/h (2 Bft) 95,83 %
10.12.2017 17:40 -1,6 C 3,9 C 95 % 993,4 hPa 0,0 l/m 1,8 km/h (1 Bft) N-NO 26 0 min 0,000 mm 0,0 UV-I 0 W/m -2,3 C -1,6 C 3,2 km/h (1 Bft) 97,56 %
10.12.2017 17:42 -1,6 C 3,9 C 95 % 993,4 hPa 0,0 l/m 2,9 km/h (1 Bft) N-NO 26 0 min 0,000 mm 0,0 UV-I 0 W/m -2,3 C -1,6 C 4,8 km/h (1 Bft) 94,00 %
10.12.2017 17:44 -1,5 C 3,9 C 95 % 993,4 hPa 0,0 l/m 3,8 km/h (1 Bft) N-NO 26 0 min 0,000 mm 0,0 UV-I 0 W/m -2,2 C -1,5 C 4,8 km/h (1 Bft) 98,00 %
10.12.2017 17:46 -1,6 C 3,9 C 95 % 993,6 hPa 0,0 l/m 0,0 km/h (0 Bft) N-NO 26 0 min 0,000 mm 0,0 UV-I 0 W/m -2,3 C -1,6 C 0,0 km/h (0 Bft) 95,65 %
10.12.2017 17:48 -1,6 C 3,9 C 95 % 993,6 hPa 0,0 l/m 0,2 km/h (0 Bft) N-NO 26 0 min 0,000 mm 0,0 UV-I 0 W/m -2,3 C -1,6 C 1,6 km/h (1 Bft) 98,46 %
10.12.2017 17:50 -1,6 C 3,9 C 95 % 993,7 hPa 0,0 l/m 0,4 km/h (0 Bft) N-NO 26 0 min 0,000 mm 0,0 UV-I 0 W/m -2,3 C -1,6 C 1,6 km/h (1 Bft) 97,56 %
10.12.2017 17:52 -1,5 C 3,9 C 95 % 993,7 hPa 0,0 l/m 0,0 km/h (0 Bft) N-NO 26 0 min 0,000 mm 0,0 UV-I 0 W/m -2,2 C -1,5 C 0,0 km/h (0 Bft) 98,00 %
10.12.2017 17:54 -1,5 C 3,9 C 95 % 993,6 hPa 0,0 l/m 0,0 km/h (0 Bft) N-NO 26 0 min 0,000 mm 0,0 UV-I 0 W/m -2,2 C -1,5 C 0,0 km/h (0 Bft) 96,00 %
10.12.2017 17:56 -1,5 C 3,9 C 95 % 993,8 hPa 0,0 l/m 0,0 km/h (0 Bft) N-NO 26 0 min 0,000 mm 0,0 UV-I 0 W/m -2,2 C -1,5 C 0,0 km/h (0 Bft) 98,11 %
10.12.2017 17:58 -1,4 C 3,9 C 95 % 993,8 hPa 0,0 l/m 0,0 km/h (0 Bft) N-NO 26 0 min 0,000 mm 0,0 UV-I 0 W/m -2,1 C -1,4 C 0,0 km/h (0 Bft) 100,00 %
10.12.2017 18:00 -1,4 C 3,9 C 95 % 993,8 hPa 0,0 l/m 0,0 km/h (0 Bft) N-NO 26 0 min 0,000 mm 0,0 UV-I 0 W/m -2,1 C -1,4 C 0,0 km/h (0 Bft) 97,87 %
10.12.2017 18:02 -1,4 C 3,9 C 95 % 993,7 hPa 0,0 l/m 0,0 km/h (0 Bft) N-NO 26 0 min 0,000 mm 0,0 UV-I 0 W/m -2,1 C -1,4 C 0,0 km/h (0 Bft) 97,73 %
10.12.2017 18:04 -1,4 C 3,9 C 95 % 993,7 hPa 0,0 l/m 0,0 km/h (0 Bft) N-NO 26 0 min 0,000 mm 0,0 UV-I 0 W/m -2,1 C -1,4 C 0,0 km/h (0 Bft) 100,00 %
10.12.2017 18:06 -1,5 C 3,9 C 95 % 993,6 hPa 0,0 l/m 3,4 km/h (1 Bft) O-NO 64 0 min 0,000 mm 0,0 UV-I 0 W/m -2,2 C -1,5 C 6,4 km/h (2 Bft) 94,74 %
10.12.2017 18:08 -1,5 C 3,9 C 95 % 993,4 hPa 0,0 l/m 5,0 km/h (1 Bft) O-NO 64 0 min 0,000 mm 0,0 UV-I 0 W/m -2,2 C -1,5 C 6,4 km/h (2 Bft) 97,87 %
10.12.2017 18:10 -1,5 C 3,9 C 95 % 993,4 hPa 0,0 l/m 4,2 km/h (1 Bft) O-NO 70 0 min 0,000 mm 0,0 UV-I 0 W/m -2,2 C -1,5 C 8,0 km/h (2 Bft) 100,00 %
10.12.2017 18:12 -1,4 C 3,9 C 95 % 993,5 hPa 0,0 l/m 3,4 km/h (1 Bft) O-NO 70 0 min 0,000 mm 0,0 UV-I 0 W/m -2,1 C -1,4 C 4,8 km/h (1 Bft) 100,00 %
10.12.2017 18:14 -1,4 C 3,9 C 95 % 993,4 hPa 0,0 l/m 3,5 km/h (1 Bft) O-NO 70 0 min 0,000 mm 0,0 UV-I 0 W/m -2,1 C -1,4 C 4,8 km/h (1 Bft) 100,00 %
10.12.2017 18:16 -1,4 C 3,9 C 95 % 993,5 hPa 0,0 l/m 3,3 km/h (1 Bft) O-NO 70 0 min 0,000 mm 0,0 UV-I 0 W/m -2,1 C -1,4 C 6,4 km/h (2 Bft) 98,11 %
10.12.2017 18:18 -1,3 C 3,9 C 95 % 993,6 hPa 0,0 l/m 1,4 km/h (1 Bft) O-NO 70 0 min 0,000 mm 0,0 UV-I 0 W/m -2,0 C -1,3 C 4,8 km/h (1 Bft) 100,00 %
10.12.2017 18:20 -1,4 C 3,9 C 95 % 993,7 hPa 0,0 l/m 3,5 km/h (1 Bft) O-NO 70 0 min 0,000 mm 0,0 UV-I 0 W/m -2,1 C -1,4 C 4,8 km/h (1 Bft) 100,00 %
10.12.2017 18:22 -1,4 C 3,9 C 95 % 993,6 hPa 0,0 l/m 3,9 km/h (1 Bft) O-NO 70 0 min 0,000 mm 0,0 UV-I 0 W/m -2,1 C -1,4 C 6,4 km/h (2 Bft) 100,00 %
10.12.2017 18:24 -1,4 C 3,9 C 95 % 993,5 hPa 0,0 l/m 3,9 km/h (1 Bft) O-NO 70 0 min 0,000 mm 0,0 UV-I 0 W/m -2,1 C -1,4 C 6,4 km/h (2 Bft) 100,00 %
10.12.2017 18:26 -1,4 C 3,9 C 95 % 993,5 hPa 0,0 l/m 4,9 km/h (1 Bft) O-NO 70 0 min 0,000 mm 0,0 UV-I 0 W/m -2,1 C -1,4 C 6,4 km/h (2 Bft) 98,11 %
10.12.2017 18:28 -1,4 C 3,9 C 95 % 993,6 hPa 0,0 l/m 3,3 km/h (1 Bft) O-NO 70 0 min 0,000 mm 0,0 UV-I 0 W/m -2,1 C -1,4 C 6,4 km/h (2 Bft) 100,00 %
10.12.2017 18:30 -1,4 C 3,9 C 95 % 993,7 hPa 0,0 l/m 1,9 km/h (1 Bft) O-NO 70 0 min 0,000 mm 0,0 UV-I 0 W/m -2,1 C -1,4 C 3,2 km/h (1 Bft) 100,00 %
10.12.2017 18:33 -1,4 C 3,9 C 95 % 993,5 hPa 0,0 l/m 4,2 km/h (1 Bft) O-NO 70 0 min 0,000 mm 0,0 UV-I 0 W/m -2,1 C -1,4 C 6,4 km/h (2 Bft) 100,00 %
10.12.2017 18:34 -1,4 C 3,9 C 95 % 993,5 hPa 0,0 l/m 3,5 km/h (1 Bft) O-NO 70 0 min 0,000 mm 0,0 UV-I 0 W/m -2,1 C -1,4 C 4,8 km/h (1 Bft) 100,00 %
10.12.2017 18:36 -1,4 C 3,9 C 95 % 993,7 hPa 0,0 l/m 1,0 km/h (0 Bft) O-NO 70 0 min 0,000 mm 0,0 UV-I 0 W/m -2,1 C -1,4 C 3,2 km/h (1 Bft) 97,37 %
10.12.2017 18:38 -1,5 C 3,9 C 95 % 993,5 hPa 0,0 l/m 3,5 km/h (1 Bft) O 84 0 min 0,000 mm 0,0 UV-I 0 W/m -2,2 C -1,5 C 6,4 km/h (2 Bft) 100,00 %
10.12.2017 18:40 -1,5 C 3,9 C 95 % 993,5 hPa 0,0 l/m 5,7 km/h (1 Bft) O 90 0 min 0,000 mm 0,0 UV-I 0 W/m -2,2 C -1,5 C 9,7 km/h (2 Bft) 100,00 %
10.12.2017 18:42 -1,5 C 3,9 C 95 % 993,6 hPa 0,0 l/m 2,6 km/h (1 Bft) O 90 0 min 0,000 mm 0,0 UV-I 0 W/m -2,2 C -1,5 C 6,4 km/h (2 Bft) 94,34 %
10.12.2017 18:44 -1,5 C 3,9 C 95 % 993,8 hPa 0,0 l/m 0,3 km/h (0 Bft) O 90 0 min 0,000 mm 0,0 UV-I 0 W/m -2,2 C -1,5 C 1,6 km/h (1 Bft) 97,87 %
10.12.2017 18:46 -1,5 C 3,9 C 95 % 993,7 hPa 0,0 l/m 1,9 km/h (1 Bft) O 90 0 min 0,000 mm 0,0 UV-I 0 W/m -2,2 C -1,5 C 4,8 km/h (1 Bft) 100,00 %
10.12.2017 18:48 -1,5 C 3,9 C 95 % 993,5 hPa 0,0 l/m 3,4 km/h (1 Bft) O 90 0 min 0,000 mm 0,0 UV-I 0 W/m -2,2 C -1,5 C 6,4 km/h (2 Bft) 100,00 %
10.12.2017 18:50 -1,5 C 3,9 C 95 % 993,6 hPa 0,0 l/m 0,0 km/h (0 Bft) O 90 0 min 0,000 mm 0,0 UV-I 0 W/m -2,2 C -1,5 C 1,6 km/h (1 Bft) 95,12 %
10.12.2017 18:52 -1,5 C 3,9 C 95 % 993,7 hPa 0,0 l/m 0,0 km/h (0 Bft) O 90 0 min 0,000 mm 0,0 UV-I 0 W/m -2,2 C -1,5 C 0,0 km/h (0 Bft) 100,00 %
10.12.2017 18:54 -1,5 C 3,9 C 95 % 993,7 hPa 0,0 l/m 0,0 km/h (0 Bft) O 90 0 min 0,000 mm 0,0 UV-I 0 W/m -2,2 C -1,5 C 0,0 km/h (0 Bft) 100,00 %
10.12.2017 18:56 -1,6 C 3,9 C 95 % 993,6 hPa 0,0 l/m 3,5 km/h (1 Bft) O 90 0 min 0,000 mm 0,0 UV-I 0 W/m -2,3 C -1,6 C 6,4 km/h (2 Bft) 98,39 %
10.12.2017 18:58 -1,6 C 3,9 C 95 % 993,6 hPa 0,0 l/m 1,8 km/h (1 Bft) O 90 0 min 0,000 mm 0,0 UV-I 0 W/m -2,3 C -1,6 C 3,2 km/h (1 Bft) 97,37 %
10.12.2017 19:00 -1,6 C 3,9 C 95 % 993,7 hPa 0,0 l/m 0,6 km/h (0 Bft) O 89 0 min 0,000 mm 0,0 UV-I 0 W/m -2,3 C -1,6 C 1,6 km/h (1 Bft) 100,00 %
10.12.2017 19:02 -1,6 C 3,9 C 95 % 993,8 hPa 0,0 l/m 0,0 km/h (0 Bft) O 89 0 min 0,000 mm 0,0 UV-I 0 W/m -2,3 C -1,6 C 0,0 km/h (0 Bft) 98,00 %
10.12.2017 19:04 -1,6 C 3,9 C 95 % 993,8 hPa 0,0 l/m 1,0 km/h (0 Bft) O 89 0 min 0,000 mm 0,0 UV-I 0 W/m -2,3 C -1,6 C 3,2 km/h (1 Bft) 98,00 %
10.12.2017 19:06 -1,6 C 3,9 C 95 % 993,9 hPa 0,0 l/m 0,0 km/h (0 Bft) O 89 0 min 0,000 mm 0,0 UV-I 0 W/m -2,3 C -1,6 C 0,0 km/h (0 Bft) 100,00 %
10.12.2017 19:08 -1,6 C 3,9 C 95 % 993,9 hPa 0,0 l/m 0,9 km/h (0 Bft) O 89 0 min 0,000 mm 0,0 UV-I 0 W/m -2,3 C -1,6 C 3,2 km/h (1 Bft) 100,00 %
10.12.2017 19:10 -1,6 C 3,9 C 95 % 994,0 hPa 0,0 l/m 1,9 km/h (1 Bft) O 89 0 min 0,000 mm 0,0 UV-I 0 W/m -2,3 C -1,6 C 3,2 km/h (1 Bft) 97,87 %
10.12.2017 19:12 -1,6 C 3,9 C 95 % 993,9 hPa 0,0 l/m 3,0 km/h (1 Bft) O 89 0 min 0,000 mm 0,0 UV-I 0 W/m -2,3 C -1,6 C 4,8 km/h (1 Bft) 96,23 %
10.12.2017 19:14 -1,6 C 3,9 C 95 % 993,8 hPa 0,0 l/m 3,9 km/h (1 Bft) O 94 0 min 0,000 mm 0,0 UV-I 0 W/m -2,3 C -1,6 C 4,8 km/h (1 Bft) 97,37 %
10.12.2017 19:16 -1,6 C 3,9 C 95 % 993,6 hPa 0,0 l/m 3,5 km/h (1 Bft) O 94 0 min 0,000 mm 0,0 UV-I 0 W/m -2,3 C -1,6 C 4,8 km/h (1 Bft) 97,87 %
10.12.2017 19:18 -1,6 C 3,9 C 95 % 993,4 hPa 0,0 l/m 3,8 km/h (1 Bft) O 94 0 min 0,000 mm 0,0 UV-I 0 W/m -2,3 C -1,6 C 4,8 km/h (1 Bft) 98,00 %
10.12.2017 19:20 -1,6 C 3,9 C 95 % 993,2 hPa 0,0 l/m 5,1 km/h (1 Bft) O-NO 74 0 min 0,000 mm 0,0 UV-I 0 W/m -2,3 C -1,6 C 8,0 km/h (2 Bft) 98,11 %
10.12.2017 19:22 -1,6 C 3,9 C 96 % 993,2 hPa 0,0 l/m 6,4 km/h (2 Bft) O 87 0 min 0,000 mm 0,0 UV-I 0 W/m -2,2 C -1,6 C 11,3 km/h (2 Bft) 97,37 %
10.12.2017 19:24 -1,6 C 3,9 C 96 % 993,1 hPa 0,0 l/m 6,3 km/h (2 Bft) O-NO 69 0 min 0,000 mm 0,0 UV-I 0 W/m -2,2 C -1,6 C 9,7 km/h (2 Bft) 96,23 %
10.12.2017 19:26 -1,6 C 3,9 C 96 % 993,3 hPa 0,0 l/m 8,5 km/h (2 Bft) NO 36 0 min 0,000 mm 0,0 UV-I 0 W/m -2,2 C -3,8 C 11,3 km/h (2 Bft) 95,74 %
10.12.2017 19:28 -1,6 C 3,9 C 96 % 993,5 hPa 0,0 l/m 2,9 km/h (1 Bft) N-NO 33 0 min 0,000 mm 0,0 UV-I 0 W/m -2,2 C -1,6 C 6,4 km/h (2 Bft) 93,18 %
10.12.2017 19:30 -1,7 C 3,9 C 96 % 993,5 hPa 0,0 l/m 5,2 km/h (1 Bft) O 98 0 min 0,000 mm 0,0 UV-I 0 W/m -2,3 C -1,7 C 11,3 km/h (2 Bft) 94,00 %
10.12.2017 19:32 -1,7 C 3,9 C 96 % 993,6 hPa 0,0 l/m 2,7 km/h (1 Bft) O-SO 113 0 min 0,000 mm 0,0 UV-I 0 W/m -2,3 C -1,7 C 6,4 km/h (2 Bft) 95,12 %
10.12.2017 19:34 -1,6 C 3,9 C 96 % 993,9 hPa 0,0 l/m 1,1 km/h (1 Bft) N 5 0 min 0,000 mm 0,0 UV-I 0 W/m -2,2 C -1,6 C 4,8 km/h (1 Bft) 92,86 %
10.12.2017 19:36 -1,6 C 3,9 C 96 % 993,9 hPa 0,0 l/m 3,5 km/h (1 Bft) O-NO 58 0 min 0,000 mm 0,0 UV-I 0 W/m -2,2 C -1,6 C 6,4 km/h (2 Bft) 94,00 %
10.12.2017 19:38 -1,6 C 3,9 C 96 % 994,0 hPa 0,0 l/m 2,3 km/h (1 Bft) O 82 0 min 0,000 mm 0,0 UV-I 0 W/m -2,2 C -1,6 C 4,8 km/h (1 Bft) 96,00 %
10.12.2017 19:40 -1,6 C 3,9 C 96 % 994,0 hPa 0,0 l/m 2,1 km/h (1 Bft) O-SO 123 0 min 0,000 mm 0,0 UV-I 0 W/m -2,2 C -1,6 C 4,8 km/h (1 Bft) 93,62 %
10.12.2017 19:42 -1,6 C 3,9 C 96 % 994,1 hPa 0,0 l/m 0,8 km/h (0 Bft) O-SO 123 0 min 0,000 mm 0,0 UV-I 0 W/m -2,2 C -1,6 C 4,8 km/h (1 Bft) 96,00 %
10.12.2017 19:44 -1,6 C 3,9 C 96 % 994,1 hPa 0,0 l/m 1,6 km/h (1 Bft) N 355 0 min 0,000 mm 0,0 UV-I 0 W/m -2,2 C -1,6 C 4,8 km/h (1 Bft) 95,74 %
10.12.2017 19:46 -1,6 C 3,9 C 96 % 994,0 hPa 0,0 l/m 0,6 km/h (0 Bft) N 355 0 min 0,000 mm 0,0 UV-I 0 W/m -2,2 C -1,6 C 3,2 km/h (1 Bft) 93,62 %
10.12.2017 19:48 -1,7 C 3,9 C 95 % 994,1 hPa 0,0 l/m 2,1 km/h (1 Bft) N 5 0 min 0,000 mm 0,0 UV-I 0 W/m -2,4 C -1,7 C 4,8 km/h (1 Bft) 92,00 %
10.12.2017 19:50 -1,7 C 3,9 C 96 % 994,0 hPa 0,0 l/m 3,0 km/h (1 Bft) O 79 0 min 0,000 mm 0,0 UV-I 0 W/m -2,3 C -1,7 C 4,8 km/h (1 Bft) 94,74 %
10.12.2017 19:52 -1,7 C 3,9 C 96 % 994,0 hPa 0,0 l/m 0,5 km/h (0 Bft) O 79 0 min 0,000 mm 0,0 UV-I 0 W/m -2,3 C -1,7 C 1,6 km/h (1 Bft) 95,74 %
10.12.2017 19:54 -1,6 C 3,9 C 96 % 993,9 hPa 0,0 l/m 1,9 km/h (1 Bft) O 79 0 min 0,000 mm 0,0 UV-I 0 W/m -2,2 C -1,6 C 4,8 km/h (1 Bft) 94,00 %
10.12.2017 19:56 -1,6 C 3,9 C 96 % 994,0 hPa 0,0 l/m 1,5 km/h (1 Bft) O 80 0 min 0,000 mm 0,0 UV-I 0 W/m -2,2 C -1,6 C 3,2 km/h (1 Bft) 94,34 %
10.12.2017 19:58 -1,6 C 3,9 C 96 % 994,0 hPa 0,0 l/m 1,2 km/h (1 Bft) O 79 0 min 0,000 mm 0,0 UV-I 0 W/m -2,2 C -1,6 C 4,8 km/h (1 Bft) 94,74 %
10.12.2017 20:00 -1,6 C 3,9 C 96 % 994,1 hPa 0,0 l/m 0,5 km/h (0 Bft) O 79 0 min 0,000 mm 0,0 UV-I 0 W/m -2,2 C -1,6 C 3,2 km/h (1 Bft) 98,00 %
10.12.2017 20:02 -1,6 C 3,9 C 96 % 994,2 hPa 0,0 l/m 1,6 km/h (1 Bft) O 79 0 min 0,000 mm 0,0 UV-I 0 W/m -2,2 C -1,6 C 3,2 km/h (1 Bft) 95,74 %
10.12.2017 20:04 -1,6 C 3,9 C 96 % 994,5 hPa 0,0 l/m 3,8 km/h (1 Bft) W-SW 247 0 min 0,000 mm 0,0 UV-I 0 W/m -2,2 C -1,6 C 8,0 km/h (2 Bft) 96,00 %
10.12.2017 20:06 -1,5 C 3,9 C 96 % 994,8 hPa 0,0 l/m 2,0 km/h (1 Bft) W-NW 283 0 min 0,000 mm 0,0 UV-I 0 W/m -2,1 C -1,5 C 6,4 km/h (2 Bft) 97,87 %
10.12.2017 20:08 -1,4 C 3,9 C 96 % 994,8 hPa 0,0 l/m 2,2 km/h (1 Bft) NW 313 0 min 0,000 mm 0,0 UV-I 0 W/m -2,0 C -1,4 C 4,8 km/h (1 Bft) 95,83 %
10.12.2017 20:10 -1,4 C 3,9 C 96 % 994,6 hPa 0,0 l/m 1,1 km/h (1 Bft) NW 312 0 min 0,000 mm 0,0 UV-I 0 W/m -2,0 C -1,4 C 3,2 km/h (1 Bft) 98,36 %
10.12.2017 20:12 -1,4 C 3,9 C 96 % 994,7 hPa 0,0 l/m 0,8 km/h (0 Bft) NW 312 0 min 0,000 mm 0,0 UV-I 0 W/m -2,0 C -1,4 C 3,2 km/h (1 Bft) 94,00 %
10.12.2017 20:14 -1,3 C 3,9 C 96 % 994,7 hPa 0,0 l/m 0,0 km/h (0 Bft) NW 312 0 min 0,000 mm 0,0 UV-I 0 W/m -1,9 C -1,3 C 1,6 km/h (1 Bft) 96,00 %
10.12.2017 20:16 -1,3 C 3,9 C 96 % 994,8 hPa 0,0 l/m 0,9 km/h (0 Bft) NW 315 0 min 0,000 mm 0,0 UV-I 0 W/m -1,9 C -1,3 C 3,2 km/h (1 Bft) 100,00 %
10.12.2017 20:18 -1,3 C 3,9 C 96 % 994,7 hPa 0,0 l/m 0,7 km/h (0 Bft) NW 315 0 min 0,000 mm 0,0 UV-I 0 W/m -1,9 C -1,3 C 3,2 km/h (1 Bft) 100,00 %
10.12.2017 20:20 -1,2 C 3,9 C 96 % 994,6 hPa 0,0 l/m 1,4 km/h (1 Bft) NW 315 0 min 0,000 mm 0,0 UV-I 0 W/m -1,8 C -1,2 C 3,2 km/h (1 Bft) 100,00 %
10.12.2017 20:22 -1,3 C 3,9 C 96 % 994,6 hPa 0,0 l/m 0,7 km/h (0 Bft) NW 315 0 min 0,000 mm 0,0 UV-I 0 W/m -1,9 C -1,3 C 3,2 km/h (1 Bft) 100,00 %
10.12.2017 20:24 -1,3 C 3,9 C 96 % 994,4 hPa 0,0 l/m 2,1 km/h (1 Bft) O-NO 63 0 min 0,000 mm 0,0 UV-I 0 W/m -1,9 C -1,3 C 4,8 km/h (1 Bft) 100,00 %
10.12.2017 20:26 -1,2 C 3,9 C 96 % 994,3 hPa 0,0 l/m 7,9 km/h (2 Bft) O-SO 121 0 min 0,000 mm 0,0 UV-I 0 W/m -1,8 C -2,8 C 11,3 km/h (2 Bft) 100,00 %
10.12.2017 20:28 -1,2 C 3,9 C 96 % 994,3 hPa 0,0 l/m 9,1 km/h (2 Bft) O-SO 116 0 min 0,000 mm 0,0 UV-I 0 W/m -1,8 C -4,0 C 12,9 km/h (3 Bft) 100,00 %
10.12.2017 20:30 -1,1 C 3,9 C 96 % 994,2 hPa 0,0 l/m 11,8 km/h (2 Bft) SO 144 0 min 0,000 mm 0,0 UV-I 0 W/m -1,7 C -6,1 C 16,1 km/h (3 Bft) 97,56 %
10.12.2017 20:32 -1,1 C 3,9 C 96 % 994,3 hPa 0,0 l/m 9,2 km/h (2 Bft) O-SO 123 0 min 0,000 mm 0,0 UV-I 0 W/m -1,7 C -4,0 C 14,5 km/h (3 Bft) 100,00 %
10.12.2017 20:34 -1,0 C 3,9 C 96 % 994,3 hPa 0,0 l/m 9,7 km/h (2 Bft) O-SO 121 0 min 0,000 mm 0,0 UV-I 0 W/m -1,6 C -4,3 C 16,1 km/h (3 Bft) 95,74 %
10.12.2017 20:36 -0,9 C 3,9 C 96 % 994,2 hPa 0,0 l/m 9,9 km/h (2 Bft) S 169 0 min 0,000 mm 0,0 UV-I 0 W/m -1,5 C -4,4 C 17,7 km/h (3 Bft) 100,00 %
10.12.2017 20:38 -0,9 C 3,9 C 96 % 993,9 hPa 0,0 l/m 14,9 km/h (3 Bft) S-SO 156 0 min 0,000 mm 0,0 UV-I 0 W/m -1,5 C -8,0 C 20,9 km/h (4 Bft) 100,00 %
10.12.2017 20:40 -0,8 C 3,9 C 96 % 993,9 hPa 0,0 l/m 10,2 km/h (2 Bft) S-SO 153 0 min 0,000 mm 0,0 UV-I 0 W/m -1,4 C -4,5 C 14,5 km/h (3 Bft) 98,21 %
10.12.2017 20:42 -0,8 C 3,9 C 96 % 993,9 hPa 0,0 l/m 10,6 km/h (2 Bft) SO 136 0 min 0,000 mm 0,0 UV-I 0 W/m -1,4 C -4,8 C 17,7 km/h (3 Bft) 100,00 %
10.12.2017 20:44 -0,8 C 3,9 C 96 % 993,8 hPa 0,0 l/m 10,6 km/h (2 Bft) O-SO 117 0 min 0,000 mm 0,0 UV-I 0 W/m -1,4 C -4,8 C 20,9 km/h (4 Bft) 100,00 %
10.12.2017 20:46 -0,8 C 3,9 C 96 % 993,8 hPa 0,0 l/m 9,7 km/h (2 Bft) SO 146 0 min 0,000 mm 0,0 UV-I 0 W/m -1,4 C -4,1 C 16,1 km/h (3 Bft) 100,00 %
10.12.2017 20:48 -0,8 C 3,9 C 96 % 994,0 hPa 0,0 l/m 8,4 km/h (2 Bft) S-SO 150 0 min 0,000 mm 0,0 UV-I 0 W/m -1,4 C -2,9 C 14,5 km/h (3 Bft) 100,00 %
10.12.2017 20:50 -0,7 C 3,9 C 96 % 994,1 hPa 0,0 l/m 4,3 km/h (1 Bft) S 173 0 min 0,000 mm 0,0 UV-I 0 W/m -1,3 C -0,7 C 8,0 km/h (2 Bft) 100,00 %
10.12.2017 20:52 -0,6 C 3,9 C 96 % 994,2 hPa 0,0 l/m 2,6 km/h (1 Bft) O-SO 119 0 min 0,000 mm 0,0 UV-I 0 W/m -1,2 C -0,6 C 6,4 km/h (2 Bft) 100,00 %
10.12.2017 20:54 -0,4 C 3,9 C 96 % 994,2 hPa 0,0 l/m 1,9 km/h (1 Bft) N-NW 348 0 min 0,000 mm 0,0 UV-I 0 W/m -1,0 C -0,4 C 3,2 km/h (1 Bft) 100,00 %
10.12.2017 20:56 -0,4 C 3,9 C 96 % 994,3 hPa 0,0 l/m 2,1 km/h (1 Bft) N 350 0 min 0,000 mm 0,0 UV-I 0 W/m -1,0 C -0,4 C 4,8 km/h (1 Bft) 100,00 %
10.12.2017 20:58 -0,4 C 3,9 C 95 % 994,3 hPa 0,0 l/m 2,3 km/h (1 Bft) NW 317 0 min 0,000 mm 0,0 UV-I 0 W/m -1,1 C -0,4 C 4,8 km/h (1 Bft) 100,00 %
10.12.2017 21:00 -0,3 C 3,9 C 96 % 994,3 hPa 0,0 l/m 1,2 km/h (1 Bft) NW 319 0 min 0,000 mm 0,0 UV-I 0 W/m -0,9 C -0,3 C 3,2 km/h (1 Bft) 98,00 %
10.12.2017 21:02 -0,2 C 3,9 C 96 % 994,4 hPa 0,0 l/m 2,0 km/h (1 Bft) N-NW 333 0 min 0,000 mm 0,0 UV-I 0 W/m -0,8 C -0,2 C 4,8 km/h (1 Bft) 100,00 %
10.12.2017 21:04 -0,1 C 3,9 C 96 % 994,3 hPa 0,0 l/m 2,1 km/h (1 Bft) N-NO 28 0 min 0,000 mm 0,0 UV-I 0 W/m -0,7 C -0,1 C 8,0 km/h (2 Bft) 100,00 %
10.12.2017 21:06 -0,1 C 3,9 C 96 % 994,3 hPa 0,0 l/m 3,5 km/h (1 Bft) S 173 0 min 0,000 mm 0,0 UV-I 0 W/m -0,7 C -0,1 C 9,7 km/h (2 Bft) 100,00 %
10.12.2017 21:08 -0,1 C 3,9 C 95 % 994,3 hPa 0,0 l/m 3,3 km/h (1 Bft) N 9 0 min 0,000 mm 0,0 UV-I 0 W/m -0,8 C -0,1 C 4,8 km/h (1 Bft) 98,00 %
10.12.2017 21:10 0,1 C 3,9 C 95 % 994,3 hPa 0,0 l/m 2,5 km/h (1 Bft) N 9 0 min 0,000 mm 0,0 UV-I 0 W/m -0,6 C 0,1 C 4,8 km/h (1 Bft) 100,00 %
10.12.2017 21:12 0,3 C 3,9 C 96 % 994,3 hPa 0,0 l/m 0,3 km/h (0 Bft) N 9 0 min 0,000 mm 0,0 UV-I 0 W/m -0,3 C 0,3 C 1,6 km/h (1 Bft) 97,87 %
10.12.2017 21:14 0,3 C 3,9 C 95 % 994,1 hPa 0,0 l/m 3,3 km/h (1 Bft) SO 136 0 min 0,000 mm 0,0 UV-I 0 W/m -0,4 C 0,3 C 6,4 km/h (2 Bft) 100,00 %
10.12.2017 21:16 0,2 C 3,9 C 94 % 994,2 hPa 0,0 l/m 1,7 km/h (1 Bft) SO 142 0 min 0,000 mm 0,0 UV-I 0 W/m -0,6 C 0,2 C 3,2 km/h (1 Bft) 100,00 %
10.12.2017 21:18 0,1 C 3,9 C 94 % 994,1 hPa 0,0 l/m 4,1 km/h (1 Bft) NO 41 0 min 0,000 mm 0,0 UV-I 0 W/m -0,7 C 0,1 C 6,4 km/h (2 Bft) 98,00 %
10.12.2017 21:20 0,2 C 3,9 C 95 % 994,1 hPa 0,0 l/m 3,9 km/h (1 Bft) NO 51 0 min 0,000 mm 0,0 UV-I 0 W/m -0,5 C 0,2 C 6,4 km/h (2 Bft) 100,00 %
10.12.2017 21:22 0,2 C 3,9 C 95 % 994,3 hPa 0,0 l/m 2,5 km/h (1 Bft) NO 51 0 min 0,000 mm 0,0 UV-I 0 W/m -0,5 C 0,2 C 4,8 km/h (1 Bft) 100,00 %
10.12.2017 21:24 0,2 C 3,9 C 95 % 994,4 hPa 0,0 l/m 1,3 km/h (1 Bft) NO 50 0 min 0,000 mm 0,0 UV-I 0 W/m -0,5 C 0,2 C 3,2 km/h (1 Bft) 100,00 %
10.12.2017 21:26 0,2 C 3,9 C 95 % 994,4 hPa 0,0 l/m 0,0 km/h (0 Bft) NO 50 0 min 0,000 mm 0,0 UV-I 0 W/m -0,5 C 0,2 C 0,0 km/h (0 Bft) 100,00 %
10.12.2017 21:28 0,2 C 3,9 C 94 % 994,4 hPa 0,0 l/m 0,0 km/h (0 Bft) NO 50 0 min 0,000 mm 0,0 UV-I 0 W/m -0,6 C 0,2 C 0,0 km/h (0 Bft) 100,00 %
10.12.2017 21:30 0,2 C 3,9 C 94 % 994,5 hPa 0,0 l/m 0,0 km/h (0 Bft) NO 50 0 min 0,000 mm 0,0 UV-I 0 W/m -0,6 C 0,2 C 0,0 km/h (0 Bft) 96,23 %
10.12.2017 21:32 0,2 C 3,9 C 94 % 994,4 hPa 0,0 l/m 2,6 km/h (1 Bft) O 96 0 min 0,000 mm 0,0 UV-I 0 W/m -0,6 C 0,2 C 9,7 km/h (2 Bft) 97,22 %
10.12.2017 21:34 0,1 C 3,9 C 94 % 994,3 hPa 0,0 l/m 4,9 km/h (1 Bft) O-SO 114 0 min 0,000 mm 0,0 UV-I 0 W/m -0,7 C 0,1 C 9,7 km/h (2 Bft) 98,11 %
10.12.2017 21:36 0,1 C 3,9 C 94 % 994,4 hPa 0,0 l/m 1,7 km/h (1 Bft) O-SO 114 0 min 0,000 mm 0,0 UV-I 0 W/m -0,7 C 0,1 C 4,8 km/h (1 Bft) 97,87 %
10.12.2017 21:38 0,0 C 3,9 C 95 % 994,3 hPa 0,0 l/m 3,4 km/h (1 Bft) O-SO 114 0 min 0,000 mm 0,0 UV-I 0 W/m -0,7 C 0,0 C 6,4 km/h (2 Bft) 95,74 %
10.12.2017 21:40 0,0 C 3,9 C 95 % 994,4 hPa 0,0 l/m 0,5 km/h (0 Bft) O-SO 114 0 min 0,000 mm 0,0 UV-I 0 W/m -0,7 C 0,0 C 3,2 km/h (1 Bft) 95,74 %
10.12.2017 21:42 0,1 C 3,9 C 95 % 994,3 hPa 0,0 l/m 0,2 km/h (0 Bft) O-SO 114 0 min 0,000 mm 0,0 UV-I 0 W/m -0,6 C 0,1 C 1,6 km/h (1 Bft) 97,73 %
10.12.2017 21:44 0,1 C 3,9 C 95 % 994,3 hPa 0,0 l/m 0,0 km/h (0 Bft) O-SO 114 0 min 0,000 mm 0,0 UV-I 0 W/m -0,6 C 0,1 C 0,0 km/h (0 Bft) 98,11 %
10.12.2017 21:46 0,1 C 3,9 C 95 % 994,4 hPa 0,0 l/m 0,8 km/h (0 Bft) O-SO 113 0 min 0,000 mm 0,0 UV-I 0 W/m -0,6 C 0,1 C 3,2 km/h (1 Bft) 97,37 %
10.12.2017 21:48 0,0 C 3,9 C 95 % 994,4 hPa 0,0 l/m 0,0 km/h (0 Bft) O-SO 113 0 min 0,000 mm 0,0 UV-I 0 W/m -0,7 C 0,0 C 0,0 km/h (0 Bft) 96,23 %
10.12.2017 21:50 0,1 C 3,9 C 95 % 994,4 hPa 0,0 l/m 2,2 km/h (1 Bft) O-SO 113 0 min 0,000 mm 0,0 UV-I 0 W/m -0,6 C 0,1 C 3,2 km/h (1 Bft) 97,87 %
10.12.2017 21:52 0,1 C 3,9 C 95 % 994,4 hPa 0,0 l/m 4,4 km/h (1 Bft) O-SO 113 0 min 0,000 mm 0,0 UV-I 0 W/m -0,6 C 0,1 C 6,4 km/h (2 Bft) 97,56 %
10.12.2017 21:54 -0,1 C 3,9 C 95 % 994,5 hPa 0,0 l/m 3,4 km/h (1 Bft) O-SO 113 0 min 0,000 mm 0,0 UV-I 0 W/m -0,8 C -0,1 C 6,4 km/h (2 Bft) 98,21 %
10.12.2017 21:56 -0,1 C 3,9 C 95 % 994,5 hPa 0,0 l/m 1,1 km/h (1 Bft) O-SO 112 0 min 0,000 mm 0,0 UV-I 0 W/m -0,8 C -0,1 C 3,2 km/h (1 Bft) 93,62 %
10.12.2017 21:58 -0,1 C 3,9 C 95 % 994,6 hPa 0,0 l/m 0,4 km/h (0 Bft) O-SO 104 0 min 0,000 mm 0,0 UV-I 0 W/m -0,8 C -0,1 C 1,6 km/h (1 Bft) 100,00 %
10.12.2017 22:00 -0,1 C 3,9 C 95 % 994,7 hPa 0,0 l/m 1,6 km/h (1 Bft) N-NW 341 0 min 0,000 mm 0,0 UV-I 0 W/m -0,8 C -0,1 C 3,2 km/h (1 Bft) 95,74 %
10.12.2017 22:02 -0,1 C 3,9 C 95 % 994,8 hPa 0,0 l/m 2,0 km/h (1 Bft) N-NW 337 0 min 0,000 mm 0,0 UV-I 0 W/m -0,8 C -0,1 C 4,8 km/h (1 Bft) 97,87 %
10.12.2017 22:04 -0,1 C 3,9 C 96 % 994,8 hPa 0,0 l/m 2,7 km/h (1 Bft) NW 325 0 min 0,000 mm 0,0 UV-I 0 W/m -0,7 C -0,1 C 4,8 km/h (1 Bft) 100,00 %
10.12.2017 22:06 -0,1 C 3,9 C 95 % 994,7 hPa 0,0 l/m 2,4 km/h (1 Bft) N-NW 331 0 min 0,000 mm 0,0 UV-I 0 W/m -0,8 C -0,1 C 4,8 km/h (1 Bft) 100,00 %
10.12.2017 22:08 -0,1 C 3,9 C 95 % 994,7 hPa 0,0 l/m 2,4 km/h (1 Bft) NW 320 0 min 0,000 mm 0,0 UV-I 0 W/m -0,8 C -0,1 C 4,8 km/h (1 Bft) 97,87 %
10.12.2017 22:10 -0,1 C 3,9 C 95 % 994,8 hPa 0,0 l/m 2,8 km/h (1 Bft) NW 317 0 min 0,000 mm 0,0 UV-I 0 W/m -0,8 C -0,1 C 4,8 km/h (1 Bft) 100,00 %
10.12.2017 22:12 -0,2 C 3,9 C 95 % 994,8 hPa 0,0 l/m 0,0 km/h (0 Bft) NW 317 0 min 0,000 mm 0,0 UV-I 0 W/m -0,9 C -0,2 C 0,0 km/h (0 Bft) 100,00 %
10.12.2017 22:14 -0,2 C 3,9 C 96 % 994,6 hPa 0,0 l/m 0,2 km/h (0 Bft) NW 317 0 min 0,000 mm 0,0 UV-I 0 W/m -0,8 C -0,2 C 1,6 km/h (1 Bft) 100,00 %
10.12.2017 22:16 -0,2 C 3,9 C 96 % 994,6 hPa 0,0 l/m 1,4 km/h (1 Bft) NW 317 0 min 0,000 mm 0,0 UV-I 0 W/m -0,8 C -0,2 C 3,2 km/h (1 Bft) 100,00 %
10.12.2017 22:18 -0,2 C 3,9 C 96 % 994,6 hPa 0,0 l/m 0,2 km/h (0 Bft) NW 317 0 min 0,000 mm 0,0 UV-I 0 W/m -0,8 C -0,2 C 1,6 km/h (1 Bft) 97,87 %
10.12.2017 22:20 -0,2 C 3,9 C 96 % 994,5 hPa 0,0 l/m 2,3 km/h (1 Bft) NW 318 0 min 0,000 mm 0,0 UV-I 0 W/m -0,8 C -0,2 C 3,2 km/h (1 Bft) 100,00 %
10.12.2017 22:22 -0,2 C 3,9 C 96 % 994,5 hPa 0,0 l/m 3,1 km/h (1 Bft) NW 318 0 min 0,000 mm 0,0 UV-I 0 W/m -0,8 C -0,2 C 3,2 km/h (1 Bft) 100,00 %
10.12.2017 22:24 -0,2 C 3,9 C 96 % 994,4 hPa 0,0 l/m 3,9 km/h (1 Bft) O-NO 74 0 min 0,000 mm 0,0 UV-I 0 W/m -0,8 C -0,2 C 8,0 km/h (2 Bft) 100,00 %
10.12.2017 22:26 -0,2 C 3,9 C 96 % 994,3 hPa 0,0 l/m 6,9 km/h (2 Bft) O-NO 73 0 min 0,000 mm 0,0 UV-I 0 W/m -0,8 C -0,7 C 8,0 km/h (2 Bft) 100,00 %
10.12.2017 22:28 -0,2 C 3,9 C 96 % 994,3 hPa 0,0 l/m 5,5 km/h (1 Bft) O-NO 74 0 min 0,000 mm 0,0 UV-I 0 W/m -0,8 C -0,2 C 8,0 km/h (2 Bft) 98,11 %
10.12.2017 22:30 -0,2 C 3,9 C 96 % 994,3 hPa 0,0 l/m 3,6 km/h (1 Bft) O-NO 74 0 min 0,000 mm 0,0 UV-I 0 W/m -0,8 C -0,2 C 4,8 km/h (1 Bft) 97,56 %
10.12.2017 22:32 -0,3 C 3,9 C 96 % 994,2 hPa 0,0 l/m 3,1 km/h (1 Bft) O-NO 74 0 min 0,000 mm 0,0 UV-I 0 W/m -0,9 C -0,3 C 4,8 km/h (1 Bft) 100,00 %
10.12.2017 22:34 -0,3 C 3,9 C 96 % 994,3 hPa 0,0 l/m 1,0 km/h (0 Bft) O-NO 74 0 min 0,000 mm 0,0 UV-I 0 W/m -0,9 C -0,3 C 3,2 km/h (1 Bft) 100,00 %
10.12.2017 22:36 -0,3 C 3,9 C 96 % 994,2 hPa 0,0 l/m 1,3 km/h (1 Bft) O-NO 74 0 min 0,000 mm 0,0 UV-I 0 W/m -0,9 C -0,3 C 4,8 km/h (1 Bft) 100,00 %
10.12.2017 22:38 -0,3 C 3,9 C 96 % 994,3 hPa 0,0 l/m 3,0 km/h (1 Bft) O-NO 71 0 min 0,000 mm 0,0 UV-I 0 W/m -0,9 C -0,3 C 6,4 km/h (2 Bft) 100,00 %
10.12.2017 22:40 -0,4 C 3,9 C 96 % 994,2 hPa 0,0 l/m 6,0 km/h (2 Bft) O-NO 77 0 min 0,000 mm 0,0 UV-I 0 W/m -1,0 C -0,4 C 8,0 km/h (2 Bft) 100,00 %
10.12.2017 22:42 -0,4 C 3,9 C 96 % 994,3 hPa 0,0 l/m 9,0 km/h (2 Bft) O-NO 67 0 min 0,000 mm 0,0 UV-I 0 W/m -1,0 C -3,0 C 11,3 km/h (2 Bft) 98,11 %
10.12.2017 22:44 -0,4 C 3,9 C 96 % 994,3 hPa 0,0 l/m 2,7 km/h (1 Bft) N-NO 12 0 min 0,000 mm 0,0 UV-I 0 W/m -1,0 C -0,4 C 6,4 km/h (2 Bft) 100,00 %
10.12.2017 22:46 -0,4 C 3,9 C 96 % 994,1 hPa 0,0 l/m 2,5 km/h (1 Bft) N-NO 19 0 min 0,000 mm 0,0 UV-I 0 W/m -1,0 C -0,4 C 6,4 km/h (2 Bft) 100,00 %
10.12.2017 22:48 -0,5 C 3,9 C 96 % 994,1 hPa 0,0 l/m 7,0 km/h (2 Bft) NO 36 0 min 0,000 mm 0,0 UV-I 0 W/m -1,1 C -1,1 C 9,7 km/h (2 Bft) 100,00 %
10.12.2017 22:50 -0,5 C 3,9 C 96 % 994,2 hPa 0,0 l/m 6,6 km/h (2 Bft) O 81 0 min 0,000 mm 0,0 UV-I 0 W/m -1,1 C -0,7 C 8,0 km/h (2 Bft) 100,00 %
10.12.2017 22:52 -0,6 C 3,9 C 96 % 994,2 hPa 0,0 l/m 5,9 km/h (2 Bft) O 90 0 min 0,000 mm 0,0 UV-I 0 W/m -1,2 C -0,6 C 8,0 km/h (2 Bft) 100,00 %
10.12.2017 22:54 -0,6 C 3,9 C 96 % 994,3 hPa 0,0 l/m 2,3 km/h (1 Bft) O 90 0 min 0,000 mm 0,0 UV-I 0 W/m -1,2 C -0,6 C 6,4 km/h (2 Bft) 100,00 %
10.12.2017 22:56 -0,5 C 3,9 C 96 % 994,2 hPa 0,0 l/m 1,9 km/h (1 Bft) N-NO 15 0 min 0,000 mm 0,0 UV-I 0 W/m -1,1 C -0,5 C 6,4 km/h (2 Bft) 100,00 %
10.12.2017 22:58 -0,5 C 3,9 C 96 % 994,2 hPa 0,0 l/m 5,6 km/h (1 Bft) N-NO 26 0 min 0,000 mm 0,0 UV-I 0 W/m -1,1 C -0,5 C 8,0 km/h (2 Bft) 98,00 %
10.12.2017 23:00 -0,6 C 3,9 C 96 % 994,3 hPa 0,0 l/m 0,4 km/h (0 Bft) N-NO 26 0 min 0,000 mm 0,0 UV-I 0 W/m -1,2 C -0,6 C 4,8 km/h (1 Bft) 100,00 %
10.12.2017 23:02 -0,6 C 3,9 C 96 % 994,2 hPa 0,0 l/m 0,5 km/h (0 Bft) N-NO 26 0 min 0,000 mm 0,0 UV-I 0 W/m -1,2 C -0,6 C 3,2 km/h (1 Bft) 100,00 %
10.12.2017 23:04 -0,6 C 3,9 C 96 % 994,2 hPa 0,0 l/m 3,4 km/h (1 Bft) NO 51 0 min 0,000 mm 0,0 UV-I 0 W/m -1,2 C -0,6 C 6,4 km/h (2 Bft) 98,00 %
10.12.2017 23:06 -0,6 C 3,9 C 96 % 994,3 hPa 0,0 l/m 3,3 km/h (1 Bft) NO 53 0 min 0,000 mm 0,0 UV-I 0 W/m -1,2 C -0,6 C 6,4 km/h (2 Bft) 100,00 %
10.12.2017 23:08 -0,6 C 3,9 C 96 % 994,4 hPa 0,0 l/m 0,6 km/h (0 Bft) NO 47 0 min 0,000 mm 0,0 UV-I 0 W/m -1,2 C -0,6 C 3,2 km/h (1 Bft) 98,00 %
10.12.2017 23:10 -0,6 C 3,9 C 96 % 994,3 hPa 0,0 l/m 0,2 km/h (0 Bft) NO 47 0 min 0,000 mm 0,0 UV-I 0 W/m -1,2 C -0,6 C 1,6 km/h (1 Bft) 100,00 %
10.12.2017 23:12 -0,6 C 3,9 C 96 % 994,4 hPa 0,0 l/m 0,0 km/h (0 Bft) NO 47 0 min 0,000 mm 0,0 UV-I 0 W/m -1,2 C -0,6 C 0,0 km/h (0 Bft) 97,87 %
10.12.2017 23:14 -0,6 C 3,9 C 96 % 994,1 hPa 0,0 l/m 0,0 km/h (0 Bft) NO 47 0 min 0,000 mm 0,0 UV-I 0 W/m -1,2 C -0,6 C 0,0 km/h (0 Bft) 96,00 %
10.12.2017 23:16 -0,6 C 3,9 C 96 % 994,2 hPa 0,0 l/m 2,1 km/h (1 Bft) NO 47 0 min 0,000 mm 0,0 UV-I 0 W/m -1,2 C -0,6 C 4,8 km/h (1 Bft) 97,87 %
10.12.2017 23:18 -0,6 C 3,9 C 96 % 994,2 hPa 0,0 l/m 0,0 km/h (0 Bft) NO 47 0 min 0,000 mm 0,0 UV-I 0 W/m -1,2 C -0,6 C 0,0 km/h (0 Bft) 94,74 %
10.12.2017 23:20 -0,5 C 3,9 C 96 % 994,2 hPa 0,0 l/m 0,0 km/h (0 Bft) NO 47 0 min 0,000 mm 0,0 UV-I 0 W/m -1,1 C -0,5 C 0,0 km/h (0 Bft) 97,87 %
10.12.2017 23:22 -0,6 C 3,9 C 96 % 994,2 hPa 0,0 l/m 0,3 km/h (0 Bft) NO 47 0 min 0,000 mm 0,0 UV-I 0 W/m -1,2 C -0,6 C 1,6 km/h (1 Bft) 96,00 %
10.12.2017 23:24 -0,6 C 3,9 C 96 % 994,1 hPa 0,0 l/m 0,6 km/h (0 Bft) NO 48 0 min 0,000 mm 0,0 UV-I 0 W/m -1,2 C -0,6 C 3,2 km/h (1 Bft) 94,74 %
10.12.2017 23:26 -0,6 C 3,9 C 96 % 994,0 hPa 0,0 l/m 3,0 km/h (1 Bft) O-SO 110 0 min 0,000 mm 0,0 UV-I 0 W/m -1,2 C -0,6 C 4,8 km/h (1 Bft) 94,64 %
10.12.2017 23:28 -0,6 C 3,9 C 96 % 994,0 hPa 0,0 l/m 4,4 km/h (1 Bft) O-SO 109 0 min 0,000 mm 0,0 UV-I 0 W/m -1,2 C -0,6 C 6,4 km/h (2 Bft) 94,00 %
10.12.2017 23:30 -0,6 C 3,9 C 96 % 994,0 hPa 0,0 l/m 2,2 km/h (1 Bft) N-NO 15 0 min 0,000 mm 0,0 UV-I 0 W/m -1,2 C -0,6 C 3,2 km/h (1 Bft) 94,87 %
10.12.2017 23:32 -0,6 C 3,9 C 96 % 994,1 hPa 0,0 l/m 0,7 km/h (0 Bft) N-NW 345 0 min 0,000 mm 0,0 UV-I 0 W/m -1,2 C -0,6 C 3,2 km/h (1 Bft) 95,45 %
10.12.2017 23:34 -0,6 C 3,9 C 97 % 994,0 hPa 0,0 l/m 1,2 km/h (1 Bft) N-NW 346 0 min 0,000 mm 0,0 UV-I 0 W/m -1,0 C -0,6 C 3,2 km/h (1 Bft) 96,00 %
10.12.2017 23:36 -0,6 C 3,9 C 97 % 994,0 hPa 0,0 l/m 3,4 km/h (1 Bft) O-NO 58 0 min 0,000 mm 0,0 UV-I 0 W/m -1,0 C -0,6 C 4,8 km/h (1 Bft) 96,00 %
10.12.2017 23:38 -0,6 C 3,9 C 97 % 994,0 hPa 0,0 l/m 3,8 km/h (1 Bft) O-NO 58 0 min 0,000 mm 0,0 UV-I 0 W/m -1,0 C -0,6 C 4,8 km/h (1 Bft) 96,23 %
10.12.2017 23:40 -0,6 C 3,9 C 97 % 993,9 hPa 0,0 l/m 3,4 km/h (1 Bft) O-NO 58 0 min 0,000 mm 0,0 UV-I 0 W/m -1,0 C -0,6 C 4,8 km/h (1 Bft) 94,29 %
10.12.2017 23:42 -0,6 C 3,9 C 97 % 993,8 hPa 0,0 l/m 0,1 km/h (0 Bft) O-NO 58 0 min 0,000 mm 0,0 UV-I 0 W/m -1,0 C -0,6 C 1,6 km/h (1 Bft) 94,34 %
10.12.2017 23:44 -0,7 C 3,9 C 97 % 993,9 hPa 0,0 l/m 0,1 km/h (0 Bft) O-NO 58 0 min 0,000 mm 0,0 UV-I 0 W/m -1,1 C -0,7 C 1,6 km/h (1 Bft) 93,62 %
10.12.2017 23:46 -0,7 C 3,9 C 97 % 993,9 hPa 0,0 l/m 0,8 km/h (0 Bft) O-NO 58 0 min 0,000 mm 0,0 UV-I 0 W/m -1,1 C -0,7 C 3,2 km/h (1 Bft) 96,00 %
10.12.2017 23:48 -0,6 C 3,9 C 97 % 993,8 hPa 0,0 l/m 2,3 km/h (1 Bft) O-NO 58 0 min 0,000 mm 0,0 UV-I 0 W/m -1,0 C -0,6 C 4,8 km/h (1 Bft) 91,49 %
10.12.2017 23:50 -0,6 C 3,9 C 97 % 993,7 hPa 0,0 l/m 4,2 km/h (1 Bft) O-NO 58 0 min 0,000 mm 0,0 UV-I 0 W/m -1,0 C -0,6 C 6,4 km/h (2 Bft) 94,00 %
10.12.2017 23:52 -0,5 C 3,9 C 97 % 993,6 hPa 0,0 l/m 6,5 km/h (2 Bft) O-NO 57 0 min 0,000 mm 0,0 UV-I 0 W/m -0,9 C -0,6 C 9,7 km/h (2 Bft) 92,11 %
10.12.2017 23:54 -0,4 C 3,9 C 97 % 993,6 hPa 0,0 l/m 6,1 km/h (2 Bft) O-NO 71 0 min 0,000 mm 0,0 UV-I 0 W/m -0,8 C -0,4 C 9,7 km/h (2 Bft) 96,23 %
10.12.2017 23:56 -0,4 C 3,9 C 97 % 993,6 hPa 0,0 l/m 2,5 km/h (1 Bft) O-NO 71 0 min 0,000 mm 0,0 UV-I 0 W/m -0,8 C -0,4 C 4,8 km/h (1 Bft) 95,74 %
10.12.2017 23:58 -0,4 C 3,9 C 97 % 993,6 hPa 0,0 l/m 2,3 km/h (1 Bft) NO 49 0 min 0,000 mm 0,0 UV-I 0 W/m -0,8 C -0,4 C 6,4 km/h (2 Bft) 95,12 %
_ Min-Zeit 08:24 06:42 11:46 16:20 - 05:34 - - - - - - 08:18 00:26 08:22 15:44
Minimum _ -5,4 C 3,3 C 70 % 992,5 hPa - 0,0 km/h (0 Bft) - - - - - - -7,9 C -11,5 C 0,0 km/h (0 Bft) 87,80 %
_ Max-Zeit 21:14 00:00 23:34 00:02 00:00 00:26 - - 09:03 12:02 10:54 11:12 21:12 21:12 00:22 00:00
Maximum _ 0,4 C 3,9 C 97 % 1015,3 hPa 0,0 l/m 20,3 km/h
W-SW (4 Bft)
- - 3 min 0,127 mm 0,6 UV-I 355 W/m -0,3 C 0,3 C 29,0 km/h
W-SW (5 Bft)
100,00 %
Durchschnitt _ -2,0 C 3,9 C 83 % 1002,3 hPa #0,0 l/m 7,4 km/h (2 Bft) O-NO - #3:56 h #0,610 mm 0,6 UV-I 134 W/m -4,6 C -4,5 C 11,2 km/h (2 Bft) 98,02 %